<?xml version="1.0" encoding="UTF-8" standalone="no" ?>
<gpx xmlns="http://www.topografix.com/GPX/1/1" xmlns:xsi="http://www.w3.org/2001/XMLSchema-instance" xsi:schemaLocation="http://www.topografix.com/GPX/1/1 http://www.topografix.com/GPX/1/1/gpx.xsd" version="1.1" creator="VisuGPX - https://www.visugpx.com">
  <metadata>
    <name>Tour des monts du lévézou </name>
    <desc><![CDATA[Un parcours fabuleux : l'austérité du Pal, l'étonnante lande du Ram, la panoramique crête de Vaysse Rodier, les bois de la chapelle de Bergounhoux, les grands espaces de Curan, les horizons sans fins de la crête de bouloc, la visions globale à 360° du mont Seigne, la haute vallée de la muse (je ne peux pas la qualifier car nous l'avons faites sous la pluie) et le fond de la vallée de la Lumensonesque et son ambiance de calcaire. On devrait en entendre parler à l'avenir si l'Aveyron rédige un topo..<Le topo est maintenant réalisé ( voir article )
www.velo12.com]]></desc>
  </metadata>
  <trk>
    <name><![CDATA[TMLoct2005]]></name>
    <trkseg>
      <trkpt lat="44.26254" lon="2.9829">
        <ele>927</ele>
        <time>2005-10-02T08:24:21Z</time>
      </trkpt>
      <trkpt lat="44.26261" lon="2.98309">
        <ele>928</ele>
        <time>2005-10-02T08:24:32Z</time>
      </trkpt>
      <trkpt lat="44.2625" lon="2.98343">
        <ele>928</ele>
        <time>2005-10-02T08:24:46Z</time>
      </trkpt>
      <trkpt lat="44.26246" lon="2.98378">
        <ele>935</ele>
        <time>2005-10-02T08:24:58Z</time>
      </trkpt>
      <trkpt lat="44.26256" lon="2.98386">
        <ele>936</ele>
        <time>2005-10-02T08:25:04Z</time>
      </trkpt>
      <trkpt lat="44.26282" lon="2.98401">
        <ele>936</ele>
        <time>2005-10-02T08:25:17Z</time>
      </trkpt>
      <trkpt lat="44.26284" lon="2.9845">
        <ele>945</ele>
        <time>2005-10-02T08:25:31Z</time>
      </trkpt>
      <trkpt lat="44.26286" lon="2.98502">
        <ele>946</ele>
        <time>2005-10-02T08:25:44Z</time>
      </trkpt>
      <trkpt lat="44.2631" lon="2.98558">
        <ele>947</ele>
        <time>2005-10-02T08:26:01Z</time>
      </trkpt>
      <trkpt lat="44.26336" lon="2.98616">
        <ele>949</ele>
        <time>2005-10-02T08:26:20Z</time>
      </trkpt>
      <trkpt lat="44.26374" lon="2.9868">
        <ele>950</ele>
        <time>2005-10-02T08:26:44Z</time>
      </trkpt>
      <trkpt lat="44.26387" lon="2.98744">
        <ele>952</ele>
        <time>2005-10-02T08:27:04Z</time>
      </trkpt>
      <trkpt lat="44.264" lon="2.98809">
        <ele>956</ele>
        <time>2005-10-02T08:27:23Z</time>
      </trkpt>
      <trkpt lat="44.26402" lon="2.98828">
        <ele>957</ele>
        <time>2005-10-02T08:27:29Z</time>
      </trkpt>
      <trkpt lat="44.26404" lon="2.98865">
        <ele>958</ele>
        <time>2005-10-02T08:27:37Z</time>
      </trkpt>
      <trkpt lat="44.26392" lon="2.98923">
        <ele>957</ele>
        <time>2005-10-02T08:27:54Z</time>
      </trkpt>
      <trkpt lat="44.26385" lon="2.98972">
        <ele>956</ele>
        <time>2005-10-02T08:28:08Z</time>
      </trkpt>
      <trkpt lat="44.26392" lon="2.99006">
        <ele>956</ele>
        <time>2005-10-02T08:28:19Z</time>
      </trkpt>
      <trkpt lat="44.264" lon="2.99015">
        <ele>958</ele>
        <time>2005-10-02T08:28:25Z</time>
      </trkpt>
      <trkpt lat="44.26411" lon="2.99056">
        <ele>965</ele>
        <time>2005-10-02T08:28:44Z</time>
      </trkpt>
      <trkpt lat="44.26419" lon="2.99092">
        <ele>967</ele>
        <time>2005-10-02T08:29:00Z</time>
      </trkpt>
      <trkpt lat="44.26424" lon="2.99129">
        <ele>965</ele>
        <time>2005-10-02T08:29:17Z</time>
      </trkpt>
      <trkpt lat="44.2643" lon="2.99159">
        <ele>965</ele>
        <time>2005-10-02T08:29:33Z</time>
      </trkpt>
      <trkpt lat="44.26439" lon="2.99184">
        <ele>968</ele>
        <time>2005-10-02T08:29:47Z</time>
      </trkpt>
      <trkpt lat="44.26445" lon="2.9921">
        <ele>970</ele>
        <time>2005-10-02T08:30:01Z</time>
      </trkpt>
      <trkpt lat="44.26456" lon="2.99242">
        <ele>971</ele>
        <time>2005-10-02T08:30:19Z</time>
      </trkpt>
      <trkpt lat="44.26467" lon="2.99268">
        <ele>972</ele>
        <time>2005-10-02T08:30:34Z</time>
      </trkpt>
      <trkpt lat="44.26473" lon="2.99296">
        <ele>973</ele>
        <time>2005-10-02T08:30:49Z</time>
      </trkpt>
      <trkpt lat="44.26475" lon="2.99317">
        <ele>975</ele>
        <time>2005-10-02T08:31:01Z</time>
      </trkpt>
      <trkpt lat="44.2648" lon="2.99347">
        <ele>978</ele>
        <time>2005-10-02T08:31:16Z</time>
      </trkpt>
      <trkpt lat="44.26488" lon="2.99382">
        <ele>981</ele>
        <time>2005-10-02T08:31:33Z</time>
      </trkpt>
      <trkpt lat="44.26495" lon="2.99395">
        <ele>980</ele>
        <time>2005-10-02T08:31:40Z</time>
      </trkpt>
      <trkpt lat="44.26499" lon="2.99401">
        <ele>981</ele>
        <time>2005-10-02T08:31:44Z</time>
      </trkpt>
      <trkpt lat="44.26512" lon="2.99416">
        <ele>982</ele>
        <time>2005-10-02T08:31:55Z</time>
      </trkpt>
      <trkpt lat="44.26516" lon="2.9942">
        <ele>982</ele>
        <time>2005-10-02T08:31:58Z</time>
      </trkpt>
      <trkpt lat="44.2652" lon="2.99423">
        <ele>984</ele>
        <time>2005-10-02T08:32:08Z</time>
      </trkpt>
      <trkpt lat="44.26533" lon="2.99435">
        <ele>986</ele>
        <time>2005-10-02T08:32:28Z</time>
      </trkpt>
      <trkpt lat="44.26572" lon="2.99465">
        <ele>987</ele>
        <time>2005-10-02T08:32:38Z</time>
      </trkpt>
      <trkpt lat="44.26576" lon="2.99468">
        <ele>987</ele>
        <time>2005-10-02T08:32:39Z</time>
      </trkpt>
      <trkpt lat="44.26632" lon="2.99495">
        <ele>989</ele>
        <time>2005-10-02T08:32:52Z</time>
      </trkpt>
      <trkpt lat="44.26647" lon="2.99498">
        <ele>990</ele>
        <time>2005-10-02T08:32:59Z</time>
      </trkpt>
      <trkpt lat="44.26686" lon="2.99534">
        <ele>990</ele>
        <time>2005-10-02T08:33:12Z</time>
      </trkpt>
      <trkpt lat="44.26703" lon="2.99583">
        <ele>989</ele>
        <time>2005-10-02T08:33:24Z</time>
      </trkpt>
      <trkpt lat="44.26718" lon="2.99646">
        <ele>988</ele>
        <time>2005-10-02T08:33:40Z</time>
      </trkpt>
      <trkpt lat="44.26731" lon="2.99697">
        <ele>988</ele>
        <time>2005-10-02T08:33:54Z</time>
      </trkpt>
      <trkpt lat="44.26746" lon="2.99751">
        <ele>989</ele>
        <time>2005-10-02T08:34:10Z</time>
      </trkpt>
      <trkpt lat="44.26761" lon="2.99811">
        <ele>993</ele>
        <time>2005-10-02T08:34:26Z</time>
      </trkpt>
      <trkpt lat="44.2678" lon="2.99856">
        <ele>994</ele>
        <time>2005-10-02T08:34:39Z</time>
      </trkpt>
      <trkpt lat="44.2681" lon="2.9992">
        <ele>992</ele>
        <time>2005-10-02T08:34:54Z</time>
      </trkpt>
      <trkpt lat="44.26823" lon="2.99995">
        <ele>992</ele>
        <time>2005-10-02T08:35:09Z</time>
      </trkpt>
      <trkpt lat="44.26836" lon="3.00098">
        <ele>991</ele>
        <time>2005-10-02T08:35:26Z</time>
      </trkpt>
      <trkpt lat="44.2684" lon="3.00118">
        <ele>991</ele>
        <time>2005-10-02T08:35:29Z</time>
      </trkpt>
      <trkpt lat="44.26902" lon="3.00154">
        <ele>993</ele>
        <time>2005-10-02T08:35:42Z</time>
      </trkpt>
      <trkpt lat="44.26973" lon="3.00201">
        <ele>993</ele>
        <time>2005-10-02T08:35:59Z</time>
      </trkpt>
      <trkpt lat="44.27005" lon="3.00244">
        <ele>993</ele>
        <time>2005-10-02T08:36:13Z</time>
      </trkpt>
      <trkpt lat="44.27042" lon="3.00285">
        <ele>998</ele>
        <time>2005-10-02T08:36:32Z</time>
      </trkpt>
      <trkpt lat="44.27078" lon="3.00337">
        <ele>1001</ele>
        <time>2005-10-02T08:36:49Z</time>
      </trkpt>
      <trkpt lat="44.27119" lon="3.00384">
        <ele>1004</ele>
        <time>2005-10-02T08:37:04Z</time>
      </trkpt>
      <trkpt lat="44.27162" lon="3.00403">
        <ele>1003</ele>
        <time>2005-10-02T08:37:16Z</time>
      </trkpt>
      <trkpt lat="44.27179" lon="3.00412">
        <ele>1003</ele>
        <time>2005-10-02T08:37:20Z</time>
      </trkpt>
      <trkpt lat="44.27211" lon="3.00412">
        <ele>1003</ele>
        <time>2005-10-02T08:37:24Z</time>
      </trkpt>
      <trkpt lat="44.27226" lon="3.00418">
        <ele>1003</ele>
        <time>2005-10-02T08:37:26Z</time>
      </trkpt>
      <trkpt lat="44.27265" lon="3.0048">
        <ele>1004</ele>
        <time>2005-10-02T08:37:37Z</time>
      </trkpt>
      <trkpt lat="44.27276" lon="3.00521">
        <ele>1007</ele>
        <time>2005-10-02T08:37:47Z</time>
      </trkpt>
      <trkpt lat="44.27286" lon="3.00581">
        <ele>1007</ele>
        <time>2005-10-02T08:38:02Z</time>
      </trkpt>
      <trkpt lat="44.27308" lon="3.00658">
        <ele>1007</ele>
        <time>2005-10-02T08:38:19Z</time>
      </trkpt>
      <trkpt lat="44.27319" lon="3.0071">
        <ele>1010</ele>
        <time>2005-10-02T08:38:32Z</time>
      </trkpt>
      <trkpt lat="44.27321" lon="3.0071">
        <ele>1010</ele>
        <time>2005-10-02T08:38:33Z</time>
      </trkpt>
      <trkpt lat="44.27323" lon="3.00704">
        <ele>1011</ele>
        <time>2005-10-02T08:38:38Z</time>
      </trkpt>
      <trkpt lat="44.27329" lon="3.00701">
        <ele>1012</ele>
        <time>2005-10-02T08:38:42Z</time>
      </trkpt>
      <trkpt lat="44.2734" lon="3.00697">
        <ele>1014</ele>
        <time>2005-10-02T08:38:51Z</time>
      </trkpt>
      <trkpt lat="44.27344" lon="3.00697">
        <ele>1022</ele>
        <time>2005-10-02T08:39:04Z</time>
      </trkpt>
      <trkpt lat="44.27342" lon="3.00699">
        <ele>1023</ele>
        <time>2005-10-02T08:39:20Z</time>
      </trkpt>
      <trkpt lat="44.27338" lon="3.00697">
        <ele>1026</ele>
        <time>2005-10-02T08:39:45Z</time>
      </trkpt>
      <trkpt lat="44.27327" lon="3.00697">
        <ele>1024</ele>
        <time>2005-10-02T08:40:00Z</time>
      </trkpt>
      <trkpt lat="44.27321" lon="3.00699">
        <ele>1023</ele>
        <time>2005-10-02T08:40:05Z</time>
      </trkpt>
      <trkpt lat="44.27314" lon="3.00719">
        <ele>1024</ele>
        <time>2005-10-02T08:40:15Z</time>
      </trkpt>
      <trkpt lat="44.27293" lon="3.00764">
        <ele>1030</ele>
        <time>2005-10-02T08:40:34Z</time>
      </trkpt>
      <trkpt lat="44.27265" lon="3.00822">
        <ele>1030</ele>
        <time>2005-10-02T08:40:56Z</time>
      </trkpt>
      <trkpt lat="44.27263" lon="3.0089">
        <ele>1033</ele>
        <time>2005-10-02T08:41:16Z</time>
      </trkpt>
      <trkpt lat="44.27269" lon="3.00944">
        <ele>1034</ele>
        <time>2005-10-02T08:41:32Z</time>
      </trkpt>
      <trkpt lat="44.27276" lon="3.00946">
        <ele>1033</ele>
        <time>2005-10-02T08:41:37Z</time>
      </trkpt>
      <trkpt lat="44.27291" lon="3.00899">
        <ele>1034</ele>
        <time>2005-10-02T08:41:51Z</time>
      </trkpt>
      <trkpt lat="44.27316" lon="3.00869">
        <ele>1035</ele>
        <time>2005-10-02T08:42:01Z</time>
      </trkpt>
      <trkpt lat="44.2737" lon="3.00839">
        <ele>1035</ele>
        <time>2005-10-02T08:42:17Z</time>
      </trkpt>
      <trkpt lat="44.27415" lon="3.00841">
        <ele>1035</ele>
        <time>2005-10-02T08:42:32Z</time>
      </trkpt>
      <trkpt lat="44.27456" lon="3.00839">
        <ele>1035</ele>
        <time>2005-10-02T08:42:46Z</time>
      </trkpt>
      <trkpt lat="44.27512" lon="3.00817">
        <ele>1036</ele>
        <time>2005-10-02T08:43:07Z</time>
      </trkpt>
      <trkpt lat="44.27552" lon="3.00789">
        <ele>1038</ele>
        <time>2005-10-02T08:43:23Z</time>
      </trkpt>
      <trkpt lat="44.27591" lon="3.00789">
        <ele>1039</ele>
        <time>2005-10-02T08:43:36Z</time>
      </trkpt>
      <trkpt lat="44.27645" lon="3.00792">
        <ele>1041</ele>
        <time>2005-10-02T08:43:54Z</time>
      </trkpt>
      <trkpt lat="44.27688" lon="3.00774">
        <ele>1046</ele>
        <time>2005-10-02T08:44:09Z</time>
      </trkpt>
      <trkpt lat="44.27733" lon="3.00746">
        <ele>1047</ele>
        <time>2005-10-02T08:44:28Z</time>
      </trkpt>
      <trkpt lat="44.27763" lon="3.00729">
        <ele>1053</ele>
        <time>2005-10-02T08:44:41Z</time>
      </trkpt>
      <trkpt lat="44.27791" lon="3.00719">
        <ele>1058</ele>
        <time>2005-10-02T08:44:56Z</time>
      </trkpt>
      <trkpt lat="44.27814" lon="3.00697">
        <ele>1058</ele>
        <time>2005-10-02T08:45:11Z</time>
      </trkpt>
      <trkpt lat="44.27829" lon="3.00665">
        <ele>1061</ele>
        <time>2005-10-02T08:45:27Z</time>
      </trkpt>
      <trkpt lat="44.2784" lon="3.00641">
        <ele>1064</ele>
        <time>2005-10-02T08:45:38Z</time>
      </trkpt>
      <trkpt lat="44.27851" lon="3.00631">
        <ele>1069</ele>
        <time>2005-10-02T08:45:48Z</time>
      </trkpt>
      <trkpt lat="44.2787" lon="3.00613">
        <ele>1075</ele>
        <time>2005-10-02T08:46:04Z</time>
      </trkpt>
      <trkpt lat="44.27883" lon="3.00598">
        <ele>1077</ele>
        <time>2005-10-02T08:46:15Z</time>
      </trkpt>
      <trkpt lat="44.279" lon="3.00573">
        <ele>1080</ele>
        <time>2005-10-02T08:46:29Z</time>
      </trkpt>
      <trkpt lat="44.27907" lon="3.00538">
        <ele>1082</ele>
        <time>2005-10-02T08:46:45Z</time>
      </trkpt>
      <trkpt lat="44.27907" lon="3.00532">
        <ele>1083</ele>
        <time>2005-10-02T08:46:49Z</time>
      </trkpt>
      <trkpt lat="44.27917" lon="3.00504">
        <ele>1085</ele>
        <time>2005-10-02T08:47:04Z</time>
      </trkpt>
      <trkpt lat="44.27924" lon="3.00491">
        <ele>1090</ele>
        <time>2005-10-02T08:47:15Z</time>
      </trkpt>
      <trkpt lat="44.27926" lon="3.00489">
        <ele>1091</ele>
        <time>2005-10-02T08:47:19Z</time>
      </trkpt>
      <trkpt lat="44.27945" lon="3.0048">
        <ele>1094</ele>
        <time>2005-10-02T08:47:34Z</time>
      </trkpt>
      <trkpt lat="44.27962" lon="3.00478">
        <ele>1095</ele>
        <time>2005-10-02T08:47:48Z</time>
      </trkpt>
      <trkpt lat="44.27973" lon="3.0048">
        <ele>1096</ele>
        <time>2005-10-02T08:47:57Z</time>
      </trkpt>
      <trkpt lat="44.27988" lon="3.00474">
        <ele>1099</ele>
        <time>2005-10-02T08:48:08Z</time>
      </trkpt>
      <trkpt lat="44.27994" lon="3.0045">
        <ele>1105</ele>
        <time>2005-10-02T08:48:22Z</time>
      </trkpt>
      <trkpt lat="44.28003" lon="3.00418">
        <ele>1109</ele>
        <time>2005-10-02T08:48:37Z</time>
      </trkpt>
      <trkpt lat="44.2801" lon="3.00382">
        <ele>1110</ele>
        <time>2005-10-02T08:48:56Z</time>
      </trkpt>
      <trkpt lat="44.28016" lon="3.0036">
        <ele>1114</ele>
        <time>2005-10-02T08:49:10Z</time>
      </trkpt>
      <trkpt lat="44.28022" lon="3.00339">
        <ele>1116</ele>
        <time>2005-10-02T08:49:23Z</time>
      </trkpt>
      <trkpt lat="44.28031" lon="3.00313">
        <ele>1119</ele>
        <time>2005-10-02T08:49:38Z</time>
      </trkpt>
      <trkpt lat="44.28031" lon="3.00304">
        <ele>1119</ele>
        <time>2005-10-02T08:49:42Z</time>
      </trkpt>
      <trkpt lat="44.28031" lon="3.0027">
        <ele>1122</ele>
        <time>2005-10-02T08:50:02Z</time>
      </trkpt>
      <trkpt lat="44.28035" lon="3.00227">
        <ele>1125</ele>
        <time>2005-10-02T08:50:25Z</time>
      </trkpt>
      <trkpt lat="44.2804" lon="3.00189">
        <ele>1127</ele>
        <time>2005-10-02T08:50:45Z</time>
      </trkpt>
      <trkpt lat="44.28048" lon="3.00154">
        <ele>1132</ele>
        <time>2005-10-02T08:51:01Z</time>
      </trkpt>
      <trkpt lat="44.28057" lon="3.00113">
        <ele>1136</ele>
        <time>2005-10-02T08:51:17Z</time>
      </trkpt>
      <trkpt lat="44.28061" lon="3.00073">
        <ele>1141</ele>
        <time>2005-10-02T08:51:30Z</time>
      </trkpt>
      <trkpt lat="44.28061" lon="3.00047">
        <ele>1143</ele>
        <time>2005-10-02T08:51:39Z</time>
      </trkpt>
      <trkpt lat="44.28067" lon="3.00008">
        <ele>1145</ele>
        <time>2005-10-02T08:51:51Z</time>
      </trkpt>
      <trkpt lat="44.28065" lon="3.00002">
        <ele>1145</ele>
        <time>2005-10-02T08:51:59Z</time>
      </trkpt>
      <trkpt lat="44.28065" lon="3.00004">
        <ele>1146</ele>
        <time>2005-10-02T08:52:12Z</time>
      </trkpt>
      <trkpt lat="44.28063" lon="3.00006">
        <ele>1147</ele>
        <time>2005-10-02T08:53:38Z</time>
      </trkpt>
      <trkpt lat="44.28063" lon="3.00004">
        <ele>1149</ele>
        <time>2005-10-02T08:53:50Z</time>
      </trkpt>
      <trkpt lat="44.28065" lon="2.99995">
        <ele>1148</ele>
        <time>2005-10-02T08:53:54Z</time>
      </trkpt>
      <trkpt lat="44.28065" lon="2.99959">
        <ele>1148</ele>
        <time>2005-10-02T08:54:05Z</time>
      </trkpt>
      <trkpt lat="44.28059" lon="2.99925">
        <ele>1147</ele>
        <time>2005-10-02T08:54:15Z</time>
      </trkpt>
      <trkpt lat="44.28055" lon="2.99912">
        <ele>1147</ele>
        <time>2005-10-02T08:54:19Z</time>
      </trkpt>
      <trkpt lat="44.28035" lon="2.99912">
        <ele>1149</ele>
        <time>2005-10-02T08:54:28Z</time>
      </trkpt>
      <trkpt lat="44.28003" lon="2.99918">
        <ele>1153</ele>
        <time>2005-10-02T08:54:47Z</time>
      </trkpt>
      <trkpt lat="44.27977" lon="2.9995">
        <ele>1157</ele>
        <time>2005-10-02T08:55:01Z</time>
      </trkpt>
      <trkpt lat="44.27947" lon="2.99983">
        <ele>1158</ele>
        <time>2005-10-02T08:55:15Z</time>
      </trkpt>
      <trkpt lat="44.27917" lon="3.00002">
        <ele>1159</ele>
        <time>2005-10-02T08:55:28Z</time>
      </trkpt>
      <trkpt lat="44.27879" lon="2.99985">
        <ele>1159</ele>
        <time>2005-10-02T08:55:40Z</time>
      </trkpt>
      <trkpt lat="44.27829" lon="2.99922">
        <ele>1159</ele>
        <time>2005-10-02T08:55:58Z</time>
      </trkpt>
      <trkpt lat="44.27821" lon="2.99914">
        <ele>1159</ele>
        <time>2005-10-02T08:56:01Z</time>
      </trkpt>
      <trkpt lat="44.27821" lon="2.99811">
        <ele>1152</ele>
        <time>2005-10-02T08:56:12Z</time>
      </trkpt>
      <trkpt lat="44.27838" lon="2.99676">
        <ele>1150</ele>
        <time>2005-10-02T08:56:27Z</time>
      </trkpt>
      <trkpt lat="44.27834" lon="2.99646">
        <ele>1150</ele>
        <time>2005-10-02T08:56:30Z</time>
      </trkpt>
      <trkpt lat="44.27825" lon="2.99562">
        <ele>1150</ele>
        <time>2005-10-02T08:56:34Z</time>
      </trkpt>
      <trkpt lat="44.27844" lon="2.99549">
        <ele>1151</ele>
        <time>2005-10-02T08:56:37Z</time>
      </trkpt>
      <trkpt lat="44.27904" lon="2.99541">
        <ele>1150</ele>
        <time>2005-10-02T08:56:55Z</time>
      </trkpt>
      <trkpt lat="44.27954" lon="2.99545">
        <ele>1148</ele>
        <time>2005-10-02T08:57:11Z</time>
      </trkpt>
      <trkpt lat="44.28001" lon="2.99551">
        <ele>1150</ele>
        <time>2005-10-02T08:57:27Z</time>
      </trkpt>
      <trkpt lat="44.28027" lon="2.99515">
        <ele>1150</ele>
        <time>2005-10-02T08:57:39Z</time>
      </trkpt>
      <trkpt lat="44.28052" lon="2.99423">
        <ele>1151</ele>
        <time>2005-10-02T08:57:58Z</time>
      </trkpt>
      <trkpt lat="44.28082" lon="2.99302">
        <ele>1151</ele>
        <time>2005-10-02T08:58:15Z</time>
      </trkpt>
      <trkpt lat="44.28125" lon="2.99208">
        <ele>1144</ele>
        <time>2005-10-02T08:58:29Z</time>
      </trkpt>
      <trkpt lat="44.28181" lon="2.99129">
        <ele>1134</ele>
        <time>2005-10-02T08:58:41Z</time>
      </trkpt>
      <trkpt lat="44.28233" lon="2.99049">
        <ele>1099</ele>
        <time>2005-10-02T08:58:51Z</time>
      </trkpt>
      <trkpt lat="44.28312" lon="2.98935">
        <ele>1088</ele>
        <time>2005-10-02T08:59:05Z</time>
      </trkpt>
      <trkpt lat="44.28314" lon="2.98914">
        <ele>1088</ele>
        <time>2005-10-02T08:59:11Z</time>
      </trkpt>
      <trkpt lat="44.28314" lon="2.98914">
        <ele>1089</ele>
        <time>2005-10-02T08:59:35Z</time>
      </trkpt>
      <trkpt lat="44.28306" lon="2.9891">
        <ele>1089</ele>
        <time>2005-10-02T08:59:39Z</time>
      </trkpt>
      <trkpt lat="44.28291" lon="2.98905">
        <ele>1089</ele>
        <time>2005-10-02T08:59:44Z</time>
      </trkpt>
      <trkpt lat="44.28246" lon="2.98895">
        <ele>1089</ele>
        <time>2005-10-02T08:59:55Z</time>
      </trkpt>
      <trkpt lat="44.282" lon="2.98897">
        <ele>1084</ele>
        <time>2005-10-02T09:00:05Z</time>
      </trkpt>
      <trkpt lat="44.28192" lon="2.98899">
        <ele>1083</ele>
        <time>2005-10-02T09:00:07Z</time>
      </trkpt>
      <trkpt lat="44.2817" lon="2.98895">
        <ele>1081</ele>
        <time>2005-10-02T09:00:11Z</time>
      </trkpt>
      <trkpt lat="44.28123" lon="2.98875">
        <ele>1075</ele>
        <time>2005-10-02T09:00:20Z</time>
      </trkpt>
      <trkpt lat="44.28076" lon="2.98837">
        <ele>1072</ele>
        <time>2005-10-02T09:00:30Z</time>
      </trkpt>
      <trkpt lat="44.28042" lon="2.98824">
        <ele>1068</ele>
        <time>2005-10-02T09:00:36Z</time>
      </trkpt>
      <trkpt lat="44.28007" lon="2.98824">
        <ele>1065</ele>
        <time>2005-10-02T09:00:42Z</time>
      </trkpt>
      <trkpt lat="44.27984" lon="2.98832">
        <ele>1063</ele>
        <time>2005-10-02T09:00:46Z</time>
      </trkpt>
      <trkpt lat="44.27973" lon="2.98828">
        <ele>1062</ele>
        <time>2005-10-02T09:00:48Z</time>
      </trkpt>
      <trkpt lat="44.2796" lon="2.98817">
        <ele>1060</ele>
        <time>2005-10-02T09:00:51Z</time>
      </trkpt>
      <trkpt lat="44.27945" lon="2.9879">
        <ele>1060</ele>
        <time>2005-10-02T09:00:56Z</time>
      </trkpt>
      <trkpt lat="44.2793" lon="2.98736">
        <ele>1057</ele>
        <time>2005-10-02T09:01:05Z</time>
      </trkpt>
      <trkpt lat="44.27896" lon="2.98667">
        <ele>1052</ele>
        <time>2005-10-02T09:01:20Z</time>
      </trkpt>
      <trkpt lat="44.27874" lon="2.98631">
        <ele>1048</ele>
        <time>2005-10-02T09:01:29Z</time>
      </trkpt>
      <trkpt lat="44.27881" lon="2.9862">
        <ele>1047</ele>
        <time>2005-10-02T09:01:33Z</time>
      </trkpt>
      <trkpt lat="44.27917" lon="2.98641">
        <ele>1042</ele>
        <time>2005-10-02T09:01:44Z</time>
      </trkpt>
      <trkpt lat="44.2796" lon="2.98659">
        <ele>1040</ele>
        <time>2005-10-02T09:01:54Z</time>
      </trkpt>
      <trkpt lat="44.27979" lon="2.98622">
        <ele>1038</ele>
        <time>2005-10-02T09:02:01Z</time>
      </trkpt>
      <trkpt lat="44.27994" lon="2.98607">
        <ele>1037</ele>
        <time>2005-10-02T09:02:04Z</time>
      </trkpt>
      <trkpt lat="44.28016" lon="2.98594">
        <ele>1036</ele>
        <time>2005-10-02T09:02:08Z</time>
      </trkpt>
      <trkpt lat="44.28033" lon="2.98588">
        <ele>1034</ele>
        <time>2005-10-02T09:02:11Z</time>
      </trkpt>
      <trkpt lat="44.28076" lon="2.98586">
        <ele>1031</ele>
        <time>2005-10-02T09:02:18Z</time>
      </trkpt>
      <trkpt lat="44.28151" lon="2.98605">
        <ele>1028</ele>
        <time>2005-10-02T09:02:30Z</time>
      </trkpt>
      <trkpt lat="44.28177" lon="2.98592">
        <ele>1028</ele>
        <time>2005-10-02T09:02:34Z</time>
      </trkpt>
      <trkpt lat="44.28237" lon="2.98517">
        <ele>1029</ele>
        <time>2005-10-02T09:02:48Z</time>
      </trkpt>
      <trkpt lat="44.2828" lon="2.98478">
        <ele>1028</ele>
        <time>2005-10-02T09:03:02Z</time>
      </trkpt>
      <trkpt lat="44.28357" lon="2.9842">
        <ele>1028</ele>
        <time>2005-10-02T09:03:24Z</time>
      </trkpt>
      <trkpt lat="44.28411" lon="2.98405">
        <ele>1027</ele>
        <time>2005-10-02T09:03:38Z</time>
      </trkpt>
      <trkpt lat="44.28486" lon="2.98397">
        <ele>1027</ele>
        <time>2005-10-02T09:04:03Z</time>
      </trkpt>
      <trkpt lat="44.28535" lon="2.98356">
        <ele>1026</ele>
        <time>2005-10-02T09:04:22Z</time>
      </trkpt>
      <trkpt lat="44.28561" lon="2.98315">
        <ele>1026</ele>
        <time>2005-10-02T09:04:34Z</time>
      </trkpt>
      <trkpt lat="44.28625" lon="2.98227">
        <ele>1029</ele>
        <time>2005-10-02T09:04:54Z</time>
      </trkpt>
      <trkpt lat="44.28688" lon="2.98161">
        <ele>1030</ele>
        <time>2005-10-02T09:05:08Z</time>
      </trkpt>
      <trkpt lat="44.28758" lon="2.98084">
        <ele>1030</ele>
        <time>2005-10-02T09:05:23Z</time>
      </trkpt>
      <trkpt lat="44.28818" lon="2.98023">
        <ele>1029</ele>
        <time>2005-10-02T09:05:35Z</time>
      </trkpt>
      <trkpt lat="44.28861" lon="2.97996">
        <ele>1030</ele>
        <time>2005-10-02T09:05:46Z</time>
      </trkpt>
      <trkpt lat="44.28894" lon="2.97972">
        <ele>1033</ele>
        <time>2005-10-02T09:05:59Z</time>
      </trkpt>
      <trkpt lat="44.28924" lon="2.97944">
        <ele>1038</ele>
        <time>2005-10-02T09:06:16Z</time>
      </trkpt>
      <trkpt lat="44.28952" lon="2.97923">
        <ele>1041</ele>
        <time>2005-10-02T09:06:30Z</time>
      </trkpt>
      <trkpt lat="44.28984" lon="2.97897">
        <ele>1043</ele>
        <time>2005-10-02T09:06:44Z</time>
      </trkpt>
      <trkpt lat="44.29031" lon="2.97863">
        <ele>1042</ele>
        <time>2005-10-02T09:06:58Z</time>
      </trkpt>
      <trkpt lat="44.29072" lon="2.97832">
        <ele>1043</ele>
        <time>2005-10-02T09:07:08Z</time>
      </trkpt>
      <trkpt lat="44.29089" lon="2.97785">
        <ele>1043</ele>
        <time>2005-10-02T09:07:17Z</time>
      </trkpt>
      <trkpt lat="44.2908" lon="2.97768">
        <ele>1043</ele>
        <time>2005-10-02T09:07:20Z</time>
      </trkpt>
      <trkpt lat="44.29074" lon="2.97757">
        <ele>1043</ele>
        <time>2005-10-02T09:07:22Z</time>
      </trkpt>
      <trkpt lat="44.29063" lon="2.97734">
        <ele>1042</ele>
        <time>2005-10-02T09:07:26Z</time>
      </trkpt>
      <trkpt lat="44.29057" lon="2.97712">
        <ele>1042</ele>
        <time>2005-10-02T09:07:29Z</time>
      </trkpt>
      <trkpt lat="44.29054" lon="2.9762">
        <ele>1040</ele>
        <time>2005-10-02T09:07:41Z</time>
      </trkpt>
      <trkpt lat="44.29072" lon="2.97519">
        <ele>1037</ele>
        <time>2005-10-02T09:07:54Z</time>
      </trkpt>
      <trkpt lat="44.29085" lon="2.97448">
        <ele>1040</ele>
        <time>2005-10-02T09:08:06Z</time>
      </trkpt>
      <trkpt lat="44.29085" lon="2.97395">
        <ele>1043</ele>
        <time>2005-10-02T09:08:20Z</time>
      </trkpt>
      <trkpt lat="44.29067" lon="2.97354">
        <ele>1046</ele>
        <time>2005-10-02T09:08:33Z</time>
      </trkpt>
      <trkpt lat="44.29052" lon="2.97302">
        <ele>1048</ele>
        <time>2005-10-02T09:08:46Z</time>
      </trkpt>
      <trkpt lat="44.29054" lon="2.97247">
        <ele>1050</ele>
        <time>2005-10-02T09:08:59Z</time>
      </trkpt>
      <trkpt lat="44.29063" lon="2.97189">
        <ele>1053</ele>
        <time>2005-10-02T09:09:14Z</time>
      </trkpt>
      <trkpt lat="44.29078" lon="2.97139">
        <ele>1056</ele>
        <time>2005-10-02T09:09:28Z</time>
      </trkpt>
      <trkpt lat="44.29102" lon="2.97094">
        <ele>1058</ele>
        <time>2005-10-02T09:09:42Z</time>
      </trkpt>
      <trkpt lat="44.2913" lon="2.97032">
        <ele>1057</ele>
        <time>2005-10-02T09:09:57Z</time>
      </trkpt>
      <trkpt lat="44.29134" lon="2.97009">
        <ele>1057</ele>
        <time>2005-10-02T09:10:01Z</time>
      </trkpt>
      <trkpt lat="44.29119" lon="2.9694">
        <ele>1059</ele>
        <time>2005-10-02T09:10:14Z</time>
      </trkpt>
      <trkpt lat="44.29112" lon="2.96884">
        <ele>1060</ele>
        <time>2005-10-02T09:10:26Z</time>
      </trkpt>
      <trkpt lat="44.29108" lon="2.96813">
        <ele>1059</ele>
        <time>2005-10-02T09:10:39Z</time>
      </trkpt>
      <trkpt lat="44.29089" lon="2.96723">
        <ele>1057</ele>
        <time>2005-10-02T09:10:53Z</time>
      </trkpt>
      <trkpt lat="44.29037" lon="2.96633">
        <ele>1054</ele>
        <time>2005-10-02T09:11:07Z</time>
      </trkpt>
      <trkpt lat="44.28958" lon="2.96545">
        <ele>1052</ele>
        <time>2005-10-02T09:11:22Z</time>
      </trkpt>
      <trkpt lat="44.28881" lon="2.96455">
        <ele>1051</ele>
        <time>2005-10-02T09:11:36Z</time>
      </trkpt>
      <trkpt lat="44.28838" lon="2.9638">
        <ele>1051</ele>
        <time>2005-10-02T09:11:47Z</time>
      </trkpt>
      <trkpt lat="44.28803" lon="2.96307">
        <ele>1051</ele>
        <time>2005-10-02T09:11:58Z</time>
      </trkpt>
      <trkpt lat="44.28758" lon="2.96225">
        <ele>1049</ele>
        <time>2005-10-02T09:12:10Z</time>
      </trkpt>
      <trkpt lat="44.28752" lon="2.96208">
        <ele>1049</ele>
        <time>2005-10-02T09:12:12Z</time>
      </trkpt>
      <trkpt lat="44.28748" lon="2.96178">
        <ele>1049</ele>
        <time>2005-10-02T09:12:16Z</time>
      </trkpt>
      <trkpt lat="44.28743" lon="2.96099">
        <ele>1050</ele>
        <time>2005-10-02T09:12:28Z</time>
      </trkpt>
      <trkpt lat="44.28741" lon="2.96036">
        <ele>1051</ele>
        <time>2005-10-02T09:12:40Z</time>
      </trkpt>
      <trkpt lat="44.28739" lon="2.95974">
        <ele>1052</ele>
        <time>2005-10-02T09:12:53Z</time>
      </trkpt>
      <trkpt lat="44.28733" lon="2.95895">
        <ele>1050</ele>
        <time>2005-10-02T09:13:06Z</time>
      </trkpt>
      <trkpt lat="44.28733" lon="2.958">
        <ele>1047</ele>
        <time>2005-10-02T09:13:19Z</time>
      </trkpt>
      <trkpt lat="44.28733" lon="2.95704">
        <ele>1043</ele>
        <time>2005-10-02T09:13:30Z</time>
      </trkpt>
      <trkpt lat="44.28735" lon="2.95642">
        <ele>1041</ele>
        <time>2005-10-02T09:13:38Z</time>
      </trkpt>
      <trkpt lat="44.28705" lon="2.95571">
        <ele>1041</ele>
        <time>2005-10-02T09:13:48Z</time>
      </trkpt>
      <trkpt lat="44.28651" lon="2.95451">
        <ele>1035</ele>
        <time>2005-10-02T09:14:03Z</time>
      </trkpt>
      <trkpt lat="44.28623" lon="2.95399">
        <ele>1035</ele>
        <time>2005-10-02T09:14:09Z</time>
      </trkpt>
      <trkpt lat="44.28602" lon="2.95384">
        <ele>1031</ele>
        <time>2005-10-02T09:14:15Z</time>
      </trkpt>
      <trkpt lat="44.28557" lon="2.95388">
        <ele>1029</ele>
        <time>2005-10-02T09:14:22Z</time>
      </trkpt>
      <trkpt lat="44.28527" lon="2.95384">
        <ele>1029</ele>
        <time>2005-10-02T09:14:26Z</time>
      </trkpt>
      <trkpt lat="44.2849" lon="2.95277">
        <ele>1023</ele>
        <time>2005-10-02T09:14:35Z</time>
      </trkpt>
      <trkpt lat="44.28471" lon="2.95189">
        <ele>1020</ele>
        <time>2005-10-02T09:14:41Z</time>
      </trkpt>
      <trkpt lat="44.28409" lon="2.95129">
        <ele>1019</ele>
        <time>2005-10-02T09:14:48Z</time>
      </trkpt>
      <trkpt lat="44.28385" lon="2.95114">
        <ele>1016</ele>
        <time>2005-10-02T09:14:51Z</time>
      </trkpt>
      <trkpt lat="44.28342" lon="2.9512">
        <ele>1009</ele>
        <time>2005-10-02T09:14:56Z</time>
      </trkpt>
      <trkpt lat="44.28301" lon="2.95155">
        <ele>1000</ele>
        <time>2005-10-02T09:15:01Z</time>
      </trkpt>
      <trkpt lat="44.28235" lon="2.9527">
        <ele>963</ele>
        <time>2005-10-02T09:15:11Z</time>
      </trkpt>
      <trkpt lat="44.28198" lon="2.9529">
        <ele>962</ele>
        <time>2005-10-02T09:15:16Z</time>
      </trkpt>
      <trkpt lat="44.28063" lon="2.95268">
        <ele>959</ele>
        <time>2005-10-02T09:15:33Z</time>
      </trkpt>
      <trkpt lat="44.2802" lon="2.95262">
        <ele>959</ele>
        <time>2005-10-02T09:15:41Z</time>
      </trkpt>
      <trkpt lat="44.28012" lon="2.9526">
        <ele>958</ele>
        <time>2005-10-02T09:15:43Z</time>
      </trkpt>
      <trkpt lat="44.27994" lon="2.95268">
        <ele>957</ele>
        <time>2005-10-02T09:15:49Z</time>
      </trkpt>
      <trkpt lat="44.2799" lon="2.95292">
        <ele>957</ele>
        <time>2005-10-02T09:15:59Z</time>
      </trkpt>
      <trkpt lat="44.27979" lon="2.9529">
        <ele>958</ele>
        <time>2005-10-02T09:16:27Z</time>
      </trkpt>
      <trkpt lat="44.28016" lon="2.9532">
        <ele>958</ele>
        <time>2005-10-02T09:17:08Z</time>
      </trkpt>
      <trkpt lat="44.28025" lon="2.95324">
        <ele>958</ele>
        <time>2005-10-02T09:17:13Z</time>
      </trkpt>
      <trkpt lat="44.27999" lon="2.95361">
        <ele>956</ele>
        <time>2005-10-02T09:17:32Z</time>
      </trkpt>
      <trkpt lat="44.27982" lon="2.95378">
        <ele>954</ele>
        <time>2005-10-02T09:17:45Z</time>
      </trkpt>
      <trkpt lat="44.27964" lon="2.95395">
        <ele>952</ele>
        <time>2005-10-02T09:17:53Z</time>
      </trkpt>
      <trkpt lat="44.27952" lon="2.95391">
        <ele>951</ele>
        <time>2005-10-02T09:17:57Z</time>
      </trkpt>
      <trkpt lat="44.27924" lon="2.95384">
        <ele>949</ele>
        <time>2005-10-02T09:18:11Z</time>
      </trkpt>
      <trkpt lat="44.27922" lon="2.95386">
        <ele>947</ele>
        <time>2005-10-02T09:18:17Z</time>
      </trkpt>
      <trkpt lat="44.27907" lon="2.9541">
        <ele>946</ele>
        <time>2005-10-02T09:18:30Z</time>
      </trkpt>
      <trkpt lat="44.27874" lon="2.95423">
        <ele>945</ele>
        <time>2005-10-02T09:18:45Z</time>
      </trkpt>
      <trkpt lat="44.2787" lon="2.95421">
        <ele>944</ele>
        <time>2005-10-02T09:18:48Z</time>
      </trkpt>
      <trkpt lat="44.27851" lon="2.95384">
        <ele>943</ele>
        <time>2005-10-02T09:18:58Z</time>
      </trkpt>
      <trkpt lat="44.27829" lon="2.95352">
        <ele>941</ele>
        <time>2005-10-02T09:19:09Z</time>
      </trkpt>
      <trkpt lat="44.27795" lon="2.95335">
        <ele>939</ele>
        <time>2005-10-02T09:19:23Z</time>
      </trkpt>
      <trkpt lat="44.27771" lon="2.9535">
        <ele>938</ele>
        <time>2005-10-02T09:19:33Z</time>
      </trkpt>
      <trkpt lat="44.27741" lon="2.95358">
        <ele>937</ele>
        <time>2005-10-02T09:19:45Z</time>
      </trkpt>
      <trkpt lat="44.27733" lon="2.95348">
        <ele>937</ele>
        <time>2005-10-02T09:19:50Z</time>
      </trkpt>
      <trkpt lat="44.27703" lon="2.95328">
        <ele>937</ele>
        <time>2005-10-02T09:19:56Z</time>
      </trkpt>
      <trkpt lat="44.27623" lon="2.95303">
        <ele>937</ele>
        <time>2005-10-02T09:20:12Z</time>
      </trkpt>
      <trkpt lat="44.27613" lon="2.953">
        <ele>938</ele>
        <time>2005-10-02T09:20:14Z</time>
      </trkpt>
      <trkpt lat="44.27623" lon="2.95298">
        <ele>936</ele>
        <time>2005-10-02T09:20:26Z</time>
      </trkpt>
      <trkpt lat="44.27636" lon="2.95294">
        <ele>936</ele>
        <time>2005-10-02T09:20:37Z</time>
      </trkpt>
      <trkpt lat="44.27647" lon="2.95305">
        <ele>938</ele>
        <time>2005-10-02T09:20:55Z</time>
      </trkpt>
      <trkpt lat="44.2764" lon="2.95339">
        <ele>941</ele>
        <time>2005-10-02T09:21:16Z</time>
      </trkpt>
      <trkpt lat="44.27621" lon="2.95367">
        <ele>940</ele>
        <time>2005-10-02T09:21:29Z</time>
      </trkpt>
      <trkpt lat="44.27615" lon="2.95373">
        <ele>938</ele>
        <time>2005-10-02T09:21:35Z</time>
      </trkpt>
      <trkpt lat="44.27602" lon="2.95391">
        <ele>938</ele>
        <time>2005-10-02T09:21:45Z</time>
      </trkpt>
      <trkpt lat="44.27578" lon="2.95384">
        <ele>936</ele>
        <time>2005-10-02T09:21:52Z</time>
      </trkpt>
      <trkpt lat="44.2757" lon="2.95358">
        <ele>934</ele>
        <time>2005-10-02T09:22:00Z</time>
      </trkpt>
      <trkpt lat="44.27585" lon="2.95333">
        <ele>930</ele>
        <time>2005-10-02T09:22:10Z</time>
      </trkpt>
      <trkpt lat="44.27589" lon="2.95318">
        <ele>929</ele>
        <time>2005-10-02T09:22:20Z</time>
      </trkpt>
      <trkpt lat="44.27589" lon="2.9532">
        <ele>929</ele>
        <time>2005-10-02T09:22:40Z</time>
      </trkpt>
      <trkpt lat="44.27591" lon="2.9532">
        <ele>931</ele>
        <time>2005-10-02T09:23:04Z</time>
      </trkpt>
      <trkpt lat="44.27585" lon="2.95318">
        <ele>936</ele>
        <time>2005-10-02T09:27:06Z</time>
      </trkpt>
      <trkpt lat="44.27572" lon="2.95303">
        <ele>936</ele>
        <time>2005-10-02T09:27:23Z</time>
      </trkpt>
      <trkpt lat="44.27561" lon="2.95294">
        <ele>938</ele>
        <time>2005-10-02T09:27:38Z</time>
      </trkpt>
      <trkpt lat="44.27557" lon="2.95292">
        <ele>939</ele>
        <time>2005-10-02T09:27:45Z</time>
      </trkpt>
      <trkpt lat="44.27548" lon="2.9529">
        <ele>940</ele>
        <time>2005-10-02T09:27:53Z</time>
      </trkpt>
      <trkpt lat="44.27546" lon="2.95273">
        <ele>940</ele>
        <time>2005-10-02T09:28:09Z</time>
      </trkpt>
      <trkpt lat="44.27548" lon="2.9527">
        <ele>940</ele>
        <time>2005-10-02T09:28:20Z</time>
      </trkpt>
      <trkpt lat="44.27559" lon="2.95245">
        <ele>940</ele>
        <time>2005-10-02T09:28:35Z</time>
      </trkpt>
      <trkpt lat="44.27561" lon="2.95217">
        <ele>945</ele>
        <time>2005-10-02T09:30:25Z</time>
      </trkpt>
      <trkpt lat="44.27488" lon="2.94951">
        <ele>945</ele>
        <time>2005-10-02T09:30:36Z</time>
      </trkpt>
      <trkpt lat="44.27477" lon="2.94908">
        <ele>945</ele>
        <time>2005-10-02T09:30:50Z</time>
      </trkpt>
      <trkpt lat="44.2743" lon="2.94837">
        <ele>937</ele>
        <time>2005-10-02T09:30:54Z</time>
      </trkpt>
      <trkpt lat="44.27426" lon="2.94824">
        <ele>935</ele>
        <time>2005-10-02T09:30:56Z</time>
      </trkpt>
      <trkpt lat="44.27385" lon="2.94773">
        <ele>912</ele>
        <time>2005-10-02T09:31:06Z</time>
      </trkpt>
      <trkpt lat="44.27368" lon="2.94764">
        <ele>912</ele>
        <time>2005-10-02T09:31:09Z</time>
      </trkpt>
      <trkpt lat="44.27351" lon="2.9476">
        <ele>911</ele>
        <time>2005-10-02T09:31:12Z</time>
      </trkpt>
      <trkpt lat="44.27331" lon="2.94762">
        <ele>911</ele>
        <time>2005-10-02T09:31:15Z</time>
      </trkpt>
      <trkpt lat="44.27291" lon="2.94749">
        <ele>910</ele>
        <time>2005-10-02T09:31:21Z</time>
      </trkpt>
      <trkpt lat="44.27274" lon="2.9473">
        <ele>910</ele>
        <time>2005-10-02T09:31:25Z</time>
      </trkpt>
      <trkpt lat="44.27261" lon="2.94721">
        <ele>911</ele>
        <time>2005-10-02T09:31:28Z</time>
      </trkpt>
      <trkpt lat="44.27218" lon="2.9471">
        <ele>911</ele>
        <time>2005-10-02T09:31:38Z</time>
      </trkpt>
      <trkpt lat="44.27147" lon="2.94693">
        <ele>911</ele>
        <time>2005-10-02T09:31:51Z</time>
      </trkpt>
      <trkpt lat="44.27115" lon="2.94678">
        <ele>908</ele>
        <time>2005-10-02T09:32:02Z</time>
      </trkpt>
      <trkpt lat="44.27068" lon="2.94657">
        <ele>907</ele>
        <time>2005-10-02T09:32:19Z</time>
      </trkpt>
      <trkpt lat="44.27063" lon="2.94655">
        <ele>906</ele>
        <time>2005-10-02T09:32:26Z</time>
      </trkpt>
      <trkpt lat="44.27061" lon="2.94655">
        <ele>906</ele>
        <time>2005-10-02T09:32:36Z</time>
      </trkpt>
      <trkpt lat="44.2705" lon="2.94633">
        <ele>906</ele>
        <time>2005-10-02T09:32:42Z</time>
      </trkpt>
      <trkpt lat="44.27022" lon="2.94577">
        <ele>902</ele>
        <time>2005-10-02T09:32:55Z</time>
      </trkpt>
      <trkpt lat="44.27033" lon="2.94564">
        <ele>900</ele>
        <time>2005-10-02T09:33:01Z</time>
      </trkpt>
      <trkpt lat="44.27074" lon="2.94554">
        <ele>898</ele>
        <time>2005-10-02T09:33:12Z</time>
      </trkpt>
      <trkpt lat="44.27089" lon="2.94554">
        <ele>898</ele>
        <time>2005-10-02T09:33:16Z</time>
      </trkpt>
      <trkpt lat="44.27149" lon="2.94573">
        <ele>895</ele>
        <time>2005-10-02T09:33:28Z</time>
      </trkpt>
      <trkpt lat="44.27218" lon="2.9459">
        <ele>893</ele>
        <time>2005-10-02T09:33:41Z</time>
      </trkpt>
      <trkpt lat="44.27267" lon="2.9458">
        <ele>892</ele>
        <time>2005-10-02T09:33:52Z</time>
      </trkpt>
      <trkpt lat="44.27327" lon="2.94549">
        <ele>893</ele>
        <time>2005-10-02T09:34:07Z</time>
      </trkpt>
      <trkpt lat="44.27353" lon="2.94541">
        <ele>894</ele>
        <time>2005-10-02T09:34:16Z</time>
      </trkpt>
      <trkpt lat="44.27353" lon="2.9453">
        <ele>894</ele>
        <time>2005-10-02T09:34:20Z</time>
      </trkpt>
      <trkpt lat="44.27349" lon="2.94522">
        <ele>893</ele>
        <time>2005-10-02T09:34:24Z</time>
      </trkpt>
      <trkpt lat="44.27319" lon="2.94507">
        <ele>890</ele>
        <time>2005-10-02T09:34:30Z</time>
      </trkpt>
      <trkpt lat="44.27301" lon="2.94481">
        <ele>890</ele>
        <time>2005-10-02T09:34:34Z</time>
      </trkpt>
      <trkpt lat="44.27295" lon="2.94461">
        <ele>891</ele>
        <time>2005-10-02T09:34:37Z</time>
      </trkpt>
      <trkpt lat="44.27291" lon="2.94425">
        <ele>893</ele>
        <time>2005-10-02T09:34:45Z</time>
      </trkpt>
      <trkpt lat="44.27282" lon="2.94389">
        <ele>896</ele>
        <time>2005-10-02T09:34:58Z</time>
      </trkpt>
      <trkpt lat="44.2725" lon="2.94363">
        <ele>897</ele>
        <time>2005-10-02T09:35:12Z</time>
      </trkpt>
      <trkpt lat="44.2719" lon="2.94318">
        <ele>899</ele>
        <time>2005-10-02T09:35:36Z</time>
      </trkpt>
      <trkpt lat="44.2716" lon="2.9429">
        <ele>903</ele>
        <time>2005-10-02T09:35:50Z</time>
      </trkpt>
      <trkpt lat="44.2714" lon="2.94251">
        <ele>905</ele>
        <time>2005-10-02T09:36:05Z</time>
      </trkpt>
      <trkpt lat="44.27128" lon="2.94185">
        <ele>906</ele>
        <time>2005-10-02T09:36:27Z</time>
      </trkpt>
      <trkpt lat="44.27095" lon="2.94105">
        <ele>906</ele>
        <time>2005-10-02T09:36:58Z</time>
      </trkpt>
      <trkpt lat="44.27078" lon="2.9406">
        <ele>906</ele>
        <time>2005-10-02T09:37:11Z</time>
      </trkpt>
      <trkpt lat="44.27074" lon="2.94054">
        <ele>909</ele>
        <time>2005-10-02T09:37:18Z</time>
      </trkpt>
      <trkpt lat="44.27065" lon="2.94047">
        <ele>912</ele>
        <time>2005-10-02T09:37:37Z</time>
      </trkpt>
      <trkpt lat="44.27037" lon="2.94034">
        <ele>911</ele>
        <time>2005-10-02T09:37:48Z</time>
      </trkpt>
      <trkpt lat="44.27014" lon="2.94022">
        <ele>911</ele>
        <time>2005-10-02T09:37:53Z</time>
      </trkpt>
      <trkpt lat="44.26947" lon="2.93996">
        <ele>910</ele>
        <time>2005-10-02T09:38:06Z</time>
      </trkpt>
      <trkpt lat="44.26887" lon="2.93966">
        <ele>907</ele>
        <time>2005-10-02T09:38:19Z</time>
      </trkpt>
      <trkpt lat="44.26834" lon="2.93955">
        <ele>906</ele>
        <time>2005-10-02T09:38:32Z</time>
      </trkpt>
      <trkpt lat="44.26774" lon="2.93977">
        <ele>906</ele>
        <time>2005-10-02T09:38:46Z</time>
      </trkpt>
      <trkpt lat="44.26726" lon="2.94011">
        <ele>907</ele>
        <time>2005-10-02T09:39:00Z</time>
      </trkpt>
      <trkpt lat="44.2669" lon="2.94032">
        <ele>904</ele>
        <time>2005-10-02T09:39:12Z</time>
      </trkpt>
      <trkpt lat="44.26656" lon="2.94039">
        <ele>900</ele>
        <time>2005-10-02T09:39:20Z</time>
      </trkpt>
      <trkpt lat="44.26589" lon="2.9406">
        <ele>891</ele>
        <time>2005-10-02T09:39:34Z</time>
      </trkpt>
      <trkpt lat="44.26527" lon="2.9408">
        <ele>887</ele>
        <time>2005-10-02T09:39:43Z</time>
      </trkpt>
      <trkpt lat="44.26477" lon="2.94095">
        <ele>884</ele>
        <time>2005-10-02T09:39:52Z</time>
      </trkpt>
      <trkpt lat="44.26458" lon="2.94084">
        <ele>882</ele>
        <time>2005-10-02T09:39:57Z</time>
      </trkpt>
      <trkpt lat="44.26454" lon="2.94077">
        <ele>880</ele>
        <time>2005-10-02T09:40:05Z</time>
      </trkpt>
      <trkpt lat="44.26456" lon="2.94075">
        <ele>878</ele>
        <time>2005-10-02T09:41:04Z</time>
      </trkpt>
      <trkpt lat="44.26452" lon="2.94039">
        <ele>878</ele>
        <time>2005-10-02T09:41:17Z</time>
      </trkpt>
      <trkpt lat="44.26458" lon="2.93989">
        <ele>878</ele>
        <time>2005-10-02T09:41:30Z</time>
      </trkpt>
      <trkpt lat="44.26471" lon="2.93921">
        <ele>878</ele>
        <time>2005-10-02T09:41:44Z</time>
      </trkpt>
      <trkpt lat="44.26492" lon="2.93839">
        <ele>879</ele>
        <time>2005-10-02T09:42:02Z</time>
      </trkpt>
      <trkpt lat="44.26499" lon="2.93807">
        <ele>878</ele>
        <time>2005-10-02T09:42:09Z</time>
      </trkpt>
      <trkpt lat="44.26512" lon="2.93764">
        <ele>877</ele>
        <time>2005-10-02T09:42:16Z</time>
      </trkpt>
      <trkpt lat="44.26548" lon="2.93695">
        <ele>875</ele>
        <time>2005-10-02T09:42:29Z</time>
      </trkpt>
      <trkpt lat="44.26565" lon="2.93668">
        <ele>874</ele>
        <time>2005-10-02T09:42:36Z</time>
      </trkpt>
      <trkpt lat="44.2663" lon="2.93597">
        <ele>873</ele>
        <time>2005-10-02T09:42:54Z</time>
      </trkpt>
      <trkpt lat="44.26675" lon="2.93545">
        <ele>869</ele>
        <time>2005-10-02T09:43:07Z</time>
      </trkpt>
      <trkpt lat="44.26694" lon="2.93535">
        <ele>868</ele>
        <time>2005-10-02T09:43:12Z</time>
      </trkpt>
      <trkpt lat="44.26728" lon="2.93517">
        <ele>865</ele>
        <time>2005-10-02T09:43:20Z</time>
      </trkpt>
      <trkpt lat="44.2678" lon="2.93462">
        <ele>861</ele>
        <time>2005-10-02T09:43:36Z</time>
      </trkpt>
      <trkpt lat="44.26797" lon="2.93384">
        <ele>859</ele>
        <time>2005-10-02T09:43:50Z</time>
      </trkpt>
      <trkpt lat="44.26804" lon="2.93346">
        <ele>858</ele>
        <time>2005-10-02T09:43:59Z</time>
      </trkpt>
      <trkpt lat="44.26784" lon="2.93331">
        <ele>857</ele>
        <time>2005-10-02T09:44:08Z</time>
      </trkpt>
      <trkpt lat="44.26739" lon="2.93324">
        <ele>855</ele>
        <time>2005-10-02T09:44:21Z</time>
      </trkpt>
      <trkpt lat="44.26681" lon="2.93311">
        <ele>855</ele>
        <time>2005-10-02T09:44:34Z</time>
      </trkpt>
      <trkpt lat="44.26621" lon="2.9329">
        <ele>854</ele>
        <time>2005-10-02T09:44:50Z</time>
      </trkpt>
      <trkpt lat="44.26583" lon="2.93281">
        <ele>855</ele>
        <time>2005-10-02T09:45:04Z</time>
      </trkpt>
      <trkpt lat="44.26555" lon="2.93256">
        <ele>860</ele>
        <time>2005-10-02T09:45:19Z</time>
      </trkpt>
      <trkpt lat="44.26555" lon="2.93251">
        <ele>860</ele>
        <time>2005-10-02T09:45:20Z</time>
      </trkpt>
      <trkpt lat="44.2657" lon="2.93217">
        <ele>861</ele>
        <time>2005-10-02T09:45:36Z</time>
      </trkpt>
      <trkpt lat="44.2658" lon="2.93187">
        <ele>865</ele>
        <time>2005-10-02T09:45:52Z</time>
      </trkpt>
      <trkpt lat="44.26589" lon="2.93165">
        <ele>867</ele>
        <time>2005-10-02T09:46:05Z</time>
      </trkpt>
      <trkpt lat="44.26604" lon="2.93148">
        <ele>869</ele>
        <time>2005-10-02T09:46:18Z</time>
      </trkpt>
      <trkpt lat="44.26621" lon="2.93116">
        <ele>873</ele>
        <time>2005-10-02T09:46:35Z</time>
      </trkpt>
      <trkpt lat="44.26638" lon="2.9309">
        <ele>876</ele>
        <time>2005-10-02T09:46:48Z</time>
      </trkpt>
      <trkpt lat="44.26653" lon="2.93069">
        <ele>877</ele>
        <time>2005-10-02T09:46:58Z</time>
      </trkpt>
      <trkpt lat="44.26679" lon="2.93039">
        <ele>882</ele>
        <time>2005-10-02T09:47:14Z</time>
      </trkpt>
      <trkpt lat="44.26694" lon="2.93013">
        <ele>884</ele>
        <time>2005-10-02T09:47:27Z</time>
      </trkpt>
      <trkpt lat="44.26724" lon="2.92977">
        <ele>885</ele>
        <time>2005-10-02T09:47:43Z</time>
      </trkpt>
      <trkpt lat="44.2675" lon="2.9294">
        <ele>887</ele>
        <time>2005-10-02T09:47:57Z</time>
      </trkpt>
      <trkpt lat="44.26774" lon="2.92904">
        <ele>890</ele>
        <time>2005-10-02T09:48:10Z</time>
      </trkpt>
      <trkpt lat="44.26799" lon="2.92874">
        <ele>891</ele>
        <time>2005-10-02T09:48:23Z</time>
      </trkpt>
      <trkpt lat="44.26821" lon="2.92831">
        <ele>893</ele>
        <time>2005-10-02T09:48:40Z</time>
      </trkpt>
      <trkpt lat="44.26823" lon="2.92771">
        <ele>896</ele>
        <time>2005-10-02T09:48:58Z</time>
      </trkpt>
      <trkpt lat="44.26821" lon="2.92743">
        <ele>898</ele>
        <time>2005-10-02T09:49:09Z</time>
      </trkpt>
      <trkpt lat="44.26829" lon="2.92715">
        <ele>901</ele>
        <time>2005-10-02T09:49:22Z</time>
      </trkpt>
      <trkpt lat="44.26844" lon="2.92683">
        <ele>904</ele>
        <time>2005-10-02T09:49:39Z</time>
      </trkpt>
      <trkpt lat="44.26868" lon="2.92638">
        <ele>905</ele>
        <time>2005-10-02T09:50:08Z</time>
      </trkpt>
      <trkpt lat="44.26879" lon="2.92627">
        <ele>905</ele>
        <time>2005-10-02T09:50:23Z</time>
      </trkpt>
      <trkpt lat="44.26896" lon="2.92616">
        <ele>907</ele>
        <time>2005-10-02T09:50:34Z</time>
      </trkpt>
      <trkpt lat="44.26898" lon="2.92605">
        <ele>908</ele>
        <time>2005-10-02T09:50:38Z</time>
      </trkpt>
      <trkpt lat="44.26896" lon="2.92595">
        <ele>911</ele>
        <time>2005-10-02T09:50:43Z</time>
      </trkpt>
      <trkpt lat="44.26896" lon="2.92588">
        <ele>913</ele>
        <time>2005-10-02T09:50:47Z</time>
      </trkpt>
      <trkpt lat="44.26894" lon="2.92582">
        <ele>914</ele>
        <time>2005-10-02T09:50:52Z</time>
      </trkpt>
      <trkpt lat="44.26885" lon="2.92586">
        <ele>914</ele>
        <time>2005-10-02T09:50:58Z</time>
      </trkpt>
      <trkpt lat="44.26862" lon="2.92612">
        <ele>913</ele>
        <time>2005-10-02T09:51:12Z</time>
      </trkpt>
      <trkpt lat="44.26859" lon="2.92614">
        <ele>913</ele>
        <time>2005-10-02T09:51:13Z</time>
      </trkpt>
      <trkpt lat="44.26844" lon="2.92614">
        <ele>913</ele>
        <time>2005-10-02T09:51:19Z</time>
      </trkpt>
      <trkpt lat="44.26842" lon="2.92614">
        <ele>915</ele>
        <time>2005-10-02T09:51:30Z</time>
      </trkpt>
      <trkpt lat="44.26844" lon="2.92614">
        <ele>915</ele>
        <time>2005-10-02T09:51:50Z</time>
      </trkpt>
      <trkpt lat="44.26842" lon="2.9261">
        <ele>916</ele>
        <time>2005-10-02T09:52:07Z</time>
      </trkpt>
      <trkpt lat="44.26842" lon="2.9261">
        <ele>916</ele>
        <time>2005-10-02T09:52:16Z</time>
      </trkpt>
      <trkpt lat="44.26816" lon="2.92582">
        <ele>914</ele>
        <time>2005-10-02T09:52:27Z</time>
      </trkpt>
      <trkpt lat="44.26812" lon="2.9258">
        <ele>914</ele>
        <time>2005-10-02T09:52:28Z</time>
      </trkpt>
      <trkpt lat="44.26799" lon="2.92569">
        <ele>912</ele>
        <time>2005-10-02T09:52:31Z</time>
      </trkpt>
      <trkpt lat="44.26791" lon="2.92562">
        <ele>912</ele>
        <time>2005-10-02T09:52:37Z</time>
      </trkpt>
      <trkpt lat="44.26791" lon="2.92562">
        <ele>912</ele>
        <time>2005-10-02T09:52:38Z</time>
      </trkpt>
      <trkpt lat="44.26793" lon="2.92552">
        <ele>913</ele>
        <time>2005-10-02T09:52:47Z</time>
      </trkpt>
      <trkpt lat="44.26795" lon="2.92522">
        <ele>915</ele>
        <time>2005-10-02T09:52:59Z</time>
      </trkpt>
      <trkpt lat="44.26808" lon="2.92498">
        <ele>917</ele>
        <time>2005-10-02T09:53:12Z</time>
      </trkpt>
      <trkpt lat="44.26829" lon="2.92472">
        <ele>920</ele>
        <time>2005-10-02T09:53:29Z</time>
      </trkpt>
      <trkpt lat="44.26849" lon="2.92464">
        <ele>923</ele>
        <time>2005-10-02T09:53:41Z</time>
      </trkpt>
      <trkpt lat="44.26857" lon="2.92468">
        <ele>924</ele>
        <time>2005-10-02T09:53:46Z</time>
      </trkpt>
      <trkpt lat="44.26864" lon="2.92459">
        <ele>924</ele>
        <time>2005-10-02T09:53:50Z</time>
      </trkpt>
      <trkpt lat="44.26896" lon="2.92429">
        <ele>925</ele>
        <time>2005-10-02T09:54:04Z</time>
      </trkpt>
      <trkpt lat="44.26924" lon="2.92404">
        <ele>927</ele>
        <time>2005-10-02T09:54:18Z</time>
      </trkpt>
      <trkpt lat="44.26945" lon="2.9238">
        <ele>928</ele>
        <time>2005-10-02T09:54:29Z</time>
      </trkpt>
      <trkpt lat="44.26947" lon="2.92376">
        <ele>927</ele>
        <time>2005-10-02T09:54:38Z</time>
      </trkpt>
      <trkpt lat="44.2695" lon="2.92352">
        <ele>928</ele>
        <time>2005-10-02T09:54:47Z</time>
      </trkpt>
      <trkpt lat="44.26937" lon="2.92318">
        <ele>928</ele>
        <time>2005-10-02T09:54:55Z</time>
      </trkpt>
      <trkpt lat="44.2693" lon="2.92271">
        <ele>928</ele>
        <time>2005-10-02T09:55:06Z</time>
      </trkpt>
      <trkpt lat="44.26913" lon="2.92241">
        <ele>928</ele>
        <time>2005-10-02T09:55:16Z</time>
      </trkpt>
      <trkpt lat="44.26874" lon="2.92215">
        <ele>928</ele>
        <time>2005-10-02T09:55:31Z</time>
      </trkpt>
      <trkpt lat="44.26847" lon="2.92187">
        <ele>927</ele>
        <time>2005-10-02T09:55:42Z</time>
      </trkpt>
      <trkpt lat="44.2684" lon="2.92181">
        <ele>927</ele>
        <time>2005-10-02T09:55:46Z</time>
      </trkpt>
      <trkpt lat="44.26829" lon="2.92168">
        <ele>925</ele>
        <time>2005-10-02T09:55:50Z</time>
      </trkpt>
      <trkpt lat="44.26814" lon="2.92159">
        <ele>924</ele>
        <time>2005-10-02T09:55:54Z</time>
      </trkpt>
      <trkpt lat="44.26782" lon="2.92142">
        <ele>924</ele>
        <time>2005-10-02T09:56:03Z</time>
      </trkpt>
      <trkpt lat="44.26744" lon="2.92127">
        <ele>924</ele>
        <time>2005-10-02T09:56:15Z</time>
      </trkpt>
      <trkpt lat="44.26722" lon="2.92114">
        <ele>924</ele>
        <time>2005-10-02T09:56:26Z</time>
      </trkpt>
      <trkpt lat="44.26718" lon="2.9209">
        <ele>925</ele>
        <time>2005-10-02T09:56:38Z</time>
      </trkpt>
      <trkpt lat="44.26716" lon="2.92065">
        <ele>925</ele>
        <time>2005-10-02T09:56:48Z</time>
      </trkpt>
      <trkpt lat="44.26713" lon="2.92028">
        <ele>923</ele>
        <time>2005-10-02T09:56:59Z</time>
      </trkpt>
      <trkpt lat="44.26733" lon="2.91968">
        <ele>923</ele>
        <time>2005-10-02T09:57:16Z</time>
      </trkpt>
      <trkpt lat="44.26748" lon="2.91919">
        <ele>922</ele>
        <time>2005-10-02T09:57:29Z</time>
      </trkpt>
      <trkpt lat="44.26759" lon="2.91884">
        <ele>921</ele>
        <time>2005-10-02T09:57:37Z</time>
      </trkpt>
      <trkpt lat="44.26776" lon="2.91893">
        <ele>922</ele>
        <time>2005-10-02T09:57:47Z</time>
      </trkpt>
      <trkpt lat="44.26806" lon="2.9191">
        <ele>923</ele>
        <time>2005-10-02T09:58:00Z</time>
      </trkpt>
      <trkpt lat="44.26831" lon="2.91934">
        <ele>926</ele>
        <time>2005-10-02T09:58:13Z</time>
      </trkpt>
      <trkpt lat="44.26849" lon="2.91947">
        <ele>928</ele>
        <time>2005-10-02T09:58:24Z</time>
      </trkpt>
      <trkpt lat="44.26864" lon="2.91964">
        <ele>929</ele>
        <time>2005-10-02T09:58:35Z</time>
      </trkpt>
      <trkpt lat="44.26877" lon="2.9199">
        <ele>930</ele>
        <time>2005-10-02T09:58:45Z</time>
      </trkpt>
      <trkpt lat="44.26894" lon="2.92">
        <ele>930</ele>
        <time>2005-10-02T09:58:56Z</time>
      </trkpt>
      <trkpt lat="44.26902" lon="2.92009">
        <ele>930</ele>
        <time>2005-10-02T09:59:02Z</time>
      </trkpt>
      <trkpt lat="44.26904" lon="2.92011">
        <ele>930</ele>
        <time>2005-10-02T09:59:04Z</time>
      </trkpt>
      <trkpt lat="44.26911" lon="2.92024">
        <ele>929</ele>
        <time>2005-10-02T09:59:10Z</time>
      </trkpt>
      <trkpt lat="44.26924" lon="2.92067">
        <ele>928</ele>
        <time>2005-10-02T09:59:23Z</time>
      </trkpt>
      <trkpt lat="44.26934" lon="2.9211">
        <ele>926</ele>
        <time>2005-10-02T09:59:37Z</time>
      </trkpt>
      <trkpt lat="44.26945" lon="2.92133">
        <ele>926</ele>
        <time>2005-10-02T09:59:48Z</time>
      </trkpt>
      <trkpt lat="44.26947" lon="2.9214">
        <ele>926</ele>
        <time>2005-10-02T09:59:50Z</time>
      </trkpt>
      <trkpt lat="44.26958" lon="2.92153">
        <ele>926</ele>
        <time>2005-10-02T09:59:59Z</time>
      </trkpt>
      <trkpt lat="44.26967" lon="2.92163">
        <ele>926</ele>
        <time>2005-10-02T10:00:06Z</time>
      </trkpt>
      <trkpt lat="44.26986" lon="2.92181">
        <ele>926</ele>
        <time>2005-10-02T10:00:17Z</time>
      </trkpt>
      <trkpt lat="44.27001" lon="2.922">
        <ele>927</ele>
        <time>2005-10-02T10:00:27Z</time>
      </trkpt>
      <trkpt lat="44.27003" lon="2.92206">
        <ele>927</ele>
        <time>2005-10-02T10:00:30Z</time>
      </trkpt>
      <trkpt lat="44.27007" lon="2.92219">
        <ele>928</ele>
        <time>2005-10-02T10:00:35Z</time>
      </trkpt>
      <trkpt lat="44.2702" lon="2.92238">
        <ele>928</ele>
        <time>2005-10-02T10:00:44Z</time>
      </trkpt>
      <trkpt lat="44.27037" lon="2.92219">
        <ele>928</ele>
        <time>2005-10-02T10:00:55Z</time>
      </trkpt>
      <trkpt lat="44.27057" lon="2.92202">
        <ele>929</ele>
        <time>2005-10-02T10:01:07Z</time>
      </trkpt>
      <trkpt lat="44.27059" lon="2.922">
        <ele>929</ele>
        <time>2005-10-02T10:01:09Z</time>
      </trkpt>
      <trkpt lat="44.27068" lon="2.92196">
        <ele>929</ele>
        <time>2005-10-02T10:01:18Z</time>
      </trkpt>
      <trkpt lat="44.27068" lon="2.92196">
        <ele>928</ele>
        <time>2005-10-02T10:01:28Z</time>
      </trkpt>
      <trkpt lat="44.2707" lon="2.92193">
        <ele>929</ele>
        <time>2005-10-02T10:01:38Z</time>
      </trkpt>
      <trkpt lat="44.27074" lon="2.92193">
        <ele>929</ele>
        <time>2005-10-02T10:01:42Z</time>
      </trkpt>
      <trkpt lat="44.27074" lon="2.92191">
        <ele>928</ele>
        <time>2005-10-02T10:01:56Z</time>
      </trkpt>
      <trkpt lat="44.27076" lon="2.92189">
        <ele>927</ele>
        <time>2005-10-02T10:02:16Z</time>
      </trkpt>
      <trkpt lat="44.2708" lon="2.92193">
        <ele>928</ele>
        <time>2005-10-02T10:02:34Z</time>
      </trkpt>
      <trkpt lat="44.27089" lon="2.92198">
        <ele>927</ele>
        <time>2005-10-02T10:02:42Z</time>
      </trkpt>
      <trkpt lat="44.27091" lon="2.92189">
        <ele>927</ele>
        <time>2005-10-02T10:02:48Z</time>
      </trkpt>
      <trkpt lat="44.27098" lon="2.92174">
        <ele>927</ele>
        <time>2005-10-02T10:02:58Z</time>
      </trkpt>
      <trkpt lat="44.2711" lon="2.92174">
        <ele>925</ele>
        <time>2005-10-02T10:03:10Z</time>
      </trkpt>
      <trkpt lat="44.27115" lon="2.92174">
        <ele>924</ele>
        <time>2005-10-02T10:03:21Z</time>
      </trkpt>
      <trkpt lat="44.27123" lon="2.92176">
        <ele>926</ele>
        <time>2005-10-02T10:03:34Z</time>
      </trkpt>
      <trkpt lat="44.2713" lon="2.92178">
        <ele>929</ele>
        <time>2005-10-02T10:03:48Z</time>
      </trkpt>
      <trkpt lat="44.27132" lon="2.92185">
        <ele>927</ele>
        <time>2005-10-02T10:04:02Z</time>
      </trkpt>
      <trkpt lat="44.27132" lon="2.92191">
        <ele>923</ele>
        <time>2005-10-02T10:04:16Z</time>
      </trkpt>
      <trkpt lat="44.27132" lon="2.92191">
        <ele>921</ele>
        <time>2005-10-02T10:04:24Z</time>
      </trkpt>
      <trkpt lat="44.27136" lon="2.92189">
        <ele>921</ele>
        <time>2005-10-02T10:04:36Z</time>
      </trkpt>
      <trkpt lat="44.27143" lon="2.92193">
        <ele>922</ele>
        <time>2005-10-02T10:04:45Z</time>
      </trkpt>
      <trkpt lat="44.27143" lon="2.92193">
        <ele>918</ele>
        <time>2005-10-02T10:05:41Z</time>
      </trkpt>
      <trkpt lat="44.2714" lon="2.92193">
        <ele>917</ele>
        <time>2005-10-02T10:06:08Z</time>
      </trkpt>
      <trkpt lat="44.27147" lon="2.92245">
        <ele>913</ele>
        <time>2005-10-02T10:06:23Z</time>
      </trkpt>
      <trkpt lat="44.27162" lon="2.9229">
        <ele>913</ele>
        <time>2005-10-02T10:06:34Z</time>
      </trkpt>
      <trkpt lat="44.27179" lon="2.92335">
        <ele>914</ele>
        <time>2005-10-02T10:06:45Z</time>
      </trkpt>
      <trkpt lat="44.27192" lon="2.92389">
        <ele>914</ele>
        <time>2005-10-02T10:06:57Z</time>
      </trkpt>
      <trkpt lat="44.27218" lon="2.9241">
        <ele>914</ele>
        <time>2005-10-02T10:07:05Z</time>
      </trkpt>
      <trkpt lat="44.27254" lon="2.92421">
        <ele>911</ele>
        <time>2005-10-02T10:07:17Z</time>
      </trkpt>
      <trkpt lat="44.27289" lon="2.92408">
        <ele>912</ele>
        <time>2005-10-02T10:07:28Z</time>
      </trkpt>
      <trkpt lat="44.27327" lon="2.92369">
        <ele>911</ele>
        <time>2005-10-02T10:07:42Z</time>
      </trkpt>
      <trkpt lat="44.27368" lon="2.92318">
        <ele>915</ele>
        <time>2005-10-02T10:07:56Z</time>
      </trkpt>
      <trkpt lat="44.27394" lon="2.9226">
        <ele>915</ele>
        <time>2005-10-02T10:08:08Z</time>
      </trkpt>
      <trkpt lat="44.27411" lon="2.92178">
        <ele>914</ele>
        <time>2005-10-02T10:08:23Z</time>
      </trkpt>
      <trkpt lat="44.27443" lon="2.92105">
        <ele>913</ele>
        <time>2005-10-02T10:08:39Z</time>
      </trkpt>
      <trkpt lat="44.27473" lon="2.9203">
        <ele>912</ele>
        <time>2005-10-02T10:08:53Z</time>
      </trkpt>
      <trkpt lat="44.27501" lon="2.91942">
        <ele>912</ele>
        <time>2005-10-02T10:09:08Z</time>
      </trkpt>
      <trkpt lat="44.27507" lon="2.91921">
        <ele>912</ele>
        <time>2005-10-02T10:09:12Z</time>
      </trkpt>
      <trkpt lat="44.27544" lon="2.91861">
        <ele>912</ele>
        <time>2005-10-02T10:09:26Z</time>
      </trkpt>
      <trkpt lat="44.27561" lon="2.91839">
        <ele>913</ele>
        <time>2005-10-02T10:09:33Z</time>
      </trkpt>
      <trkpt lat="44.27576" lon="2.91857">
        <ele>914</ele>
        <time>2005-10-02T10:09:41Z</time>
      </trkpt>
      <trkpt lat="44.27593" lon="2.91852">
        <ele>916</ele>
        <time>2005-10-02T10:09:49Z</time>
      </trkpt>
      <trkpt lat="44.27615" lon="2.91837">
        <ele>918</ele>
        <time>2005-10-02T10:10:01Z</time>
      </trkpt>
      <trkpt lat="44.27634" lon="2.91822">
        <ele>921</ele>
        <time>2005-10-02T10:10:14Z</time>
      </trkpt>
      <trkpt lat="44.27649" lon="2.91803">
        <ele>923</ele>
        <time>2005-10-02T10:10:25Z</time>
      </trkpt>
      <trkpt lat="44.27658" lon="2.91771">
        <ele>922</ele>
        <time>2005-10-02T10:10:37Z</time>
      </trkpt>
      <trkpt lat="44.27658" lon="2.9176">
        <ele>922</ele>
        <time>2005-10-02T10:10:41Z</time>
      </trkpt>
      <trkpt lat="44.27655" lon="2.91749">
        <ele>922</ele>
        <time>2005-10-02T10:10:45Z</time>
      </trkpt>
      <trkpt lat="44.27651" lon="2.91732">
        <ele>922</ele>
        <time>2005-10-02T10:10:50Z</time>
      </trkpt>
      <trkpt lat="44.27649" lon="2.91726">
        <ele>923</ele>
        <time>2005-10-02T10:10:55Z</time>
      </trkpt>
      <trkpt lat="44.27658" lon="2.91749">
        <ele>923</ele>
        <time>2005-10-02T10:11:05Z</time>
      </trkpt>
      <trkpt lat="44.27649" lon="2.91792">
        <ele>923</ele>
        <time>2005-10-02T10:11:17Z</time>
      </trkpt>
      <trkpt lat="44.27651" lon="2.91799">
        <ele>923</ele>
        <time>2005-10-02T10:11:20Z</time>
      </trkpt>
      <trkpt lat="44.27653" lon="2.91801">
        <ele>924</ele>
        <time>2005-10-02T10:11:23Z</time>
      </trkpt>
      <trkpt lat="44.27673" lon="2.91803">
        <ele>925</ele>
        <time>2005-10-02T10:11:38Z</time>
      </trkpt>
      <trkpt lat="44.27679" lon="2.91809">
        <ele>927</ele>
        <time>2005-10-02T10:11:51Z</time>
      </trkpt>
      <trkpt lat="44.2769" lon="2.91811">
        <ele>927</ele>
        <time>2005-10-02T10:12:10Z</time>
      </trkpt>
      <trkpt lat="44.27694" lon="2.91816">
        <ele>929</ele>
        <time>2005-10-02T10:12:21Z</time>
      </trkpt>
      <trkpt lat="44.27698" lon="2.91811">
        <ele>930</ele>
        <time>2005-10-02T10:12:32Z</time>
      </trkpt>
      <trkpt lat="44.27703" lon="2.91807">
        <ele>932</ele>
        <time>2005-10-02T10:12:40Z</time>
      </trkpt>
      <trkpt lat="44.27709" lon="2.91796">
        <ele>935</ele>
        <time>2005-10-02T10:12:54Z</time>
      </trkpt>
      <trkpt lat="44.27709" lon="2.91799">
        <ele>935</ele>
        <time>2005-10-02T10:12:58Z</time>
      </trkpt>
      <trkpt lat="44.2772" lon="2.91794">
        <ele>937</ele>
        <time>2005-10-02T10:13:04Z</time>
      </trkpt>
      <trkpt lat="44.27741" lon="2.91796">
        <ele>939</ele>
        <time>2005-10-02T10:13:18Z</time>
      </trkpt>
      <trkpt lat="44.27741" lon="2.91799">
        <ele>939</ele>
        <time>2005-10-02T10:13:20Z</time>
      </trkpt>
      <trkpt lat="44.27748" lon="2.91816">
        <ele>940</ele>
        <time>2005-10-02T10:13:29Z</time>
      </trkpt>
      <trkpt lat="44.27754" lon="2.91837">
        <ele>940</ele>
        <time>2005-10-02T10:13:41Z</time>
      </trkpt>
      <trkpt lat="44.27761" lon="2.91852">
        <ele>941</ele>
        <time>2005-10-02T10:13:48Z</time>
      </trkpt>
      <trkpt lat="44.27776" lon="2.91882">
        <ele>942</ele>
        <time>2005-10-02T10:14:01Z</time>
      </trkpt>
      <trkpt lat="44.27793" lon="2.91891">
        <ele>942</ele>
        <time>2005-10-02T10:14:10Z</time>
      </trkpt>
      <trkpt lat="44.27819" lon="2.91917">
        <ele>942</ele>
        <time>2005-10-02T10:14:25Z</time>
      </trkpt>
      <trkpt lat="44.27851" lon="2.91947">
        <ele>941</ele>
        <time>2005-10-02T10:14:38Z</time>
      </trkpt>
      <trkpt lat="44.279" lon="2.91987">
        <ele>941</ele>
        <time>2005-10-02T10:14:54Z</time>
      </trkpt>
      <trkpt lat="44.27943" lon="2.92026">
        <ele>941</ele>
        <time>2005-10-02T10:15:08Z</time>
      </trkpt>
      <trkpt lat="44.27992" lon="2.92069">
        <ele>942</ele>
        <time>2005-10-02T10:15:24Z</time>
      </trkpt>
      <trkpt lat="44.28037" lon="2.92112">
        <ele>945</ele>
        <time>2005-10-02T10:15:41Z</time>
      </trkpt>
      <trkpt lat="44.28076" lon="2.92159">
        <ele>944</ele>
        <time>2005-10-02T10:15:57Z</time>
      </trkpt>
      <trkpt lat="44.28106" lon="2.92189">
        <ele>943</ele>
        <time>2005-10-02T10:16:10Z</time>
      </trkpt>
      <trkpt lat="44.28145" lon="2.9223">
        <ele>945</ele>
        <time>2005-10-02T10:16:29Z</time>
      </trkpt>
      <trkpt lat="44.28168" lon="2.92258">
        <ele>951</ele>
        <time>2005-10-02T10:16:45Z</time>
      </trkpt>
      <trkpt lat="44.28192" lon="2.92286">
        <ele>956</ele>
        <time>2005-10-02T10:17:02Z</time>
      </trkpt>
      <trkpt lat="44.28216" lon="2.92314">
        <ele>960</ele>
        <time>2005-10-02T10:17:19Z</time>
      </trkpt>
      <trkpt lat="44.28243" lon="2.92361">
        <ele>961</ele>
        <time>2005-10-02T10:17:37Z</time>
      </trkpt>
      <trkpt lat="44.28267" lon="2.92399">
        <ele>960</ele>
        <time>2005-10-02T10:17:52Z</time>
      </trkpt>
      <trkpt lat="44.28306" lon="2.92425">
        <ele>964</ele>
        <time>2005-10-02T10:18:08Z</time>
      </trkpt>
      <trkpt lat="44.28359" lon="2.92434">
        <ele>968</ele>
        <time>2005-10-02T10:18:25Z</time>
      </trkpt>
      <trkpt lat="44.28396" lon="2.92436">
        <ele>969</ele>
        <time>2005-10-02T10:18:36Z</time>
      </trkpt>
      <trkpt lat="44.28445" lon="2.92436">
        <ele>973</ele>
        <time>2005-10-02T10:18:52Z</time>
      </trkpt>
      <trkpt lat="44.2849" lon="2.92451">
        <ele>976</ele>
        <time>2005-10-02T10:19:08Z</time>
      </trkpt>
      <trkpt lat="44.28516" lon="2.92447">
        <ele>978</ele>
        <time>2005-10-02T10:19:18Z</time>
      </trkpt>
      <trkpt lat="44.28548" lon="2.92434">
        <ele>979</ele>
        <time>2005-10-02T10:19:31Z</time>
      </trkpt>
      <trkpt lat="44.28591" lon="2.92425">
        <ele>981</ele>
        <time>2005-10-02T10:19:45Z</time>
      </trkpt>
      <trkpt lat="44.28636" lon="2.92419">
        <ele>979</ele>
        <time>2005-10-02T10:19:55Z</time>
      </trkpt>
      <trkpt lat="44.28709" lon="2.92425">
        <ele>979</ele>
        <time>2005-10-02T10:20:07Z</time>
      </trkpt>
      <trkpt lat="44.28754" lon="2.92449">
        <ele>980</ele>
        <time>2005-10-02T10:20:18Z</time>
      </trkpt>
      <trkpt lat="44.28791" lon="2.92492">
        <ele>981</ele>
        <time>2005-10-02T10:20:32Z</time>
      </trkpt>
      <trkpt lat="44.28808" lon="2.92541">
        <ele>983</ele>
        <time>2005-10-02T10:20:43Z</time>
      </trkpt>
      <trkpt lat="44.28831" lon="2.92603">
        <ele>983</ele>
        <time>2005-10-02T10:20:59Z</time>
      </trkpt>
      <trkpt lat="44.28859" lon="2.92625">
        <ele>985</ele>
        <time>2005-10-02T10:21:13Z</time>
      </trkpt>
      <trkpt lat="44.28894" lon="2.92635">
        <ele>986</ele>
        <time>2005-10-02T10:21:28Z</time>
      </trkpt>
      <trkpt lat="44.2893" lon="2.92648">
        <ele>992</ele>
        <time>2005-10-02T10:21:44Z</time>
      </trkpt>
      <trkpt lat="44.28964" lon="2.92659">
        <ele>994</ele>
        <time>2005-10-02T10:22:00Z</time>
      </trkpt>
      <trkpt lat="44.2899" lon="2.92665">
        <ele>994</ele>
        <time>2005-10-02T10:22:12Z</time>
      </trkpt>
      <trkpt lat="44.29018" lon="2.92674">
        <ele>996</ele>
        <time>2005-10-02T10:22:26Z</time>
      </trkpt>
      <trkpt lat="44.29044" lon="2.92683">
        <ele>998</ele>
        <time>2005-10-02T10:22:37Z</time>
      </trkpt>
      <trkpt lat="44.29076" lon="2.92696">
        <ele>1002</ele>
        <time>2005-10-02T10:22:53Z</time>
      </trkpt>
      <trkpt lat="44.29106" lon="2.92704">
        <ele>1005</ele>
        <time>2005-10-02T10:23:09Z</time>
      </trkpt>
      <trkpt lat="44.2913" lon="2.92715">
        <ele>1007</ele>
        <time>2005-10-02T10:23:22Z</time>
      </trkpt>
      <trkpt lat="44.29151" lon="2.9273">
        <ele>1008</ele>
        <time>2005-10-02T10:23:34Z</time>
      </trkpt>
      <trkpt lat="44.29181" lon="2.92756">
        <ele>1009</ele>
        <time>2005-10-02T10:23:53Z</time>
      </trkpt>
      <trkpt lat="44.29203" lon="2.92777">
        <ele>1012</ele>
        <time>2005-10-02T10:24:07Z</time>
      </trkpt>
      <trkpt lat="44.29233" lon="2.92805">
        <ele>1015</ele>
        <time>2005-10-02T10:24:26Z</time>
      </trkpt>
      <trkpt lat="44.2925" lon="2.92824">
        <ele>1018</ele>
        <time>2005-10-02T10:24:38Z</time>
      </trkpt>
      <trkpt lat="44.29258" lon="2.92859">
        <ele>1019</ele>
        <time>2005-10-02T10:24:52Z</time>
      </trkpt>
      <trkpt lat="44.29258" lon="2.92897">
        <ele>1022</ele>
        <time>2005-10-02T10:25:07Z</time>
      </trkpt>
      <trkpt lat="44.29265" lon="2.92944">
        <ele>1025</ele>
        <time>2005-10-02T10:25:24Z</time>
      </trkpt>
      <trkpt lat="44.2926" lon="2.93035">
        <ele>1027</ele>
        <time>2005-10-02T10:25:41Z</time>
      </trkpt>
      <trkpt lat="44.29286" lon="2.93069">
        <ele>1023</ele>
        <time>2005-10-02T10:25:56Z</time>
      </trkpt>
      <trkpt lat="44.29316" lon="2.93101">
        <ele>1019</ele>
        <time>2005-10-02T10:26:09Z</time>
      </trkpt>
      <trkpt lat="44.29333" lon="2.93127">
        <ele>1019</ele>
        <time>2005-10-02T10:26:19Z</time>
      </trkpt>
      <trkpt lat="44.29348" lon="2.93165">
        <ele>1021</ele>
        <time>2005-10-02T10:26:31Z</time>
      </trkpt>
      <trkpt lat="44.29376" lon="2.93228">
        <ele>1020</ele>
        <time>2005-10-02T10:26:41Z</time>
      </trkpt>
      <trkpt lat="44.29419" lon="2.93326">
        <ele>1018</ele>
        <time>2005-10-02T10:26:53Z</time>
      </trkpt>
      <trkpt lat="44.29443" lon="2.93339">
        <ele>1018</ele>
        <time>2005-10-02T10:26:57Z</time>
      </trkpt>
      <trkpt lat="44.29499" lon="2.93371">
        <ele>1014</ele>
        <time>2005-10-02T10:27:07Z</time>
      </trkpt>
      <trkpt lat="44.29531" lon="2.93412">
        <ele>1012</ele>
        <time>2005-10-02T10:27:13Z</time>
      </trkpt>
      <trkpt lat="44.29557" lon="2.935">
        <ele>1010</ele>
        <time>2005-10-02T10:27:22Z</time>
      </trkpt>
      <trkpt lat="44.29557" lon="2.93509">
        <ele>1010</ele>
        <time>2005-10-02T10:27:23Z</time>
      </trkpt>
      <trkpt lat="44.29537" lon="2.93603">
        <ele>1008</ele>
        <time>2005-10-02T10:27:33Z</time>
      </trkpt>
      <trkpt lat="44.2952" lon="2.93674">
        <ele>1006</ele>
        <time>2005-10-02T10:27:42Z</time>
      </trkpt>
      <trkpt lat="44.29522" lon="2.93691">
        <ele>1006</ele>
        <time>2005-10-02T10:27:47Z</time>
      </trkpt>
      <trkpt lat="44.29527" lon="2.93689">
        <ele>1006</ele>
        <time>2005-10-02T10:27:49Z</time>
      </trkpt>
      <trkpt lat="44.29563" lon="2.93657">
        <ele>1005</ele>
        <time>2005-10-02T10:28:01Z</time>
      </trkpt>
      <trkpt lat="44.29591" lon="2.93616">
        <ele>1003</ele>
        <time>2005-10-02T10:28:11Z</time>
      </trkpt>
      <trkpt lat="44.29602" lon="2.93584">
        <ele>1001</ele>
        <time>2005-10-02T10:28:18Z</time>
      </trkpt>
      <trkpt lat="44.2961" lon="2.93569">
        <ele>1000</ele>
        <time>2005-10-02T10:28:21Z</time>
      </trkpt>
      <trkpt lat="44.29651" lon="2.93535">
        <ele>997</ele>
        <time>2005-10-02T10:28:31Z</time>
      </trkpt>
      <trkpt lat="44.29709" lon="2.935">
        <ele>995</ele>
        <time>2005-10-02T10:28:42Z</time>
      </trkpt>
      <trkpt lat="44.29758" lon="2.9341">
        <ele>989</ele>
        <time>2005-10-02T10:28:54Z</time>
      </trkpt>
      <trkpt lat="44.29775" lon="2.93333">
        <ele>984</ele>
        <time>2005-10-02T10:29:02Z</time>
      </trkpt>
      <trkpt lat="44.29797" lon="2.93161">
        <ele>978</ele>
        <time>2005-10-02T10:29:18Z</time>
      </trkpt>
      <trkpt lat="44.29821" lon="2.93026">
        <ele>978</ele>
        <time>2005-10-02T10:29:31Z</time>
      </trkpt>
      <trkpt lat="44.29831" lon="2.93022">
        <ele>977</ele>
        <time>2005-10-02T10:29:35Z</time>
      </trkpt>
      <trkpt lat="44.29848" lon="2.93073">
        <ele>976</ele>
        <time>2005-10-02T10:29:49Z</time>
      </trkpt>
      <trkpt lat="44.29853" lon="2.93099">
        <ele>976</ele>
        <time>2005-10-02T10:29:55Z</time>
      </trkpt>
      <trkpt lat="44.29874" lon="2.93144">
        <ele>976</ele>
        <time>2005-10-02T10:30:03Z</time>
      </trkpt>
      <trkpt lat="44.29896" lon="2.93189">
        <ele>976</ele>
        <time>2005-10-02T10:30:11Z</time>
      </trkpt>
      <trkpt lat="44.29904" lon="2.93213">
        <ele>976</ele>
        <time>2005-10-02T10:30:14Z</time>
      </trkpt>
      <trkpt lat="44.29919" lon="2.93256">
        <ele>974</ele>
        <time>2005-10-02T10:30:18Z</time>
      </trkpt>
      <trkpt lat="44.29934" lon="2.93238">
        <ele>974</ele>
        <time>2005-10-02T10:30:20Z</time>
      </trkpt>
      <trkpt lat="44.29954" lon="2.93174">
        <ele>964</ele>
        <time>2005-10-02T10:30:33Z</time>
      </trkpt>
      <trkpt lat="44.29973" lon="2.93092">
        <ele>949</ele>
        <time>2005-10-02T10:30:49Z</time>
      </trkpt>
      <trkpt lat="44.29999" lon="2.92983">
        <ele>949</ele>
        <time>2005-10-02T10:31:11Z</time>
      </trkpt>
      <trkpt lat="44.29979" lon="2.92983">
        <ele>901</ele>
        <time>2005-10-02T10:34:36Z</time>
      </trkpt>
      <trkpt lat="44.29988" lon="2.92989">
        <ele>907</ele>
        <time>2005-10-02T10:37:53Z</time>
      </trkpt>
      <trkpt lat="44.29988" lon="2.92992">
        <ele>907</ele>
        <time>2005-10-02T10:37:55Z</time>
      </trkpt>
      <trkpt lat="44.2999" lon="2.93041">
        <ele>909</ele>
        <time>2005-10-02T10:38:09Z</time>
      </trkpt>
      <trkpt lat="44.29984" lon="2.93105">
        <ele>910</ele>
        <time>2005-10-02T10:38:26Z</time>
      </trkpt>
      <trkpt lat="44.29984" lon="2.93118">
        <ele>912</ele>
        <time>2005-10-02T10:38:36Z</time>
      </trkpt>
      <trkpt lat="44.29992" lon="2.93144">
        <ele>920</ele>
        <time>2005-10-02T10:39:18Z</time>
      </trkpt>
      <trkpt lat="44.30012" lon="2.93191">
        <ele>917</ele>
        <time>2005-10-02T10:39:30Z</time>
      </trkpt>
      <trkpt lat="44.30018" lon="2.93215">
        <ele>916</ele>
        <time>2005-10-02T10:39:35Z</time>
      </trkpt>
      <trkpt lat="44.30037" lon="2.93271">
        <ele>914</ele>
        <time>2005-10-02T10:39:43Z</time>
      </trkpt>
      <trkpt lat="44.30054" lon="2.93307">
        <ele>915</ele>
        <time>2005-10-02T10:39:53Z</time>
      </trkpt>
      <trkpt lat="44.3008" lon="2.93356">
        <ele>916</ele>
        <time>2005-10-02T10:40:08Z</time>
      </trkpt>
      <trkpt lat="44.30099" lon="2.93399">
        <ele>915</ele>
        <time>2005-10-02T10:40:21Z</time>
      </trkpt>
      <trkpt lat="44.30106" lon="2.9341">
        <ele>914</ele>
        <time>2005-10-02T10:40:34Z</time>
      </trkpt>
      <trkpt lat="44.30108" lon="2.9341">
        <ele>913</ele>
        <time>2005-10-02T10:40:45Z</time>
      </trkpt>
      <trkpt lat="44.3011" lon="2.9341">
        <ele>910</ele>
        <time>2005-10-02T10:40:55Z</time>
      </trkpt>
      <trkpt lat="44.30121" lon="2.93412">
        <ele>909</ele>
        <time>2005-10-02T10:41:07Z</time>
      </trkpt>
      <trkpt lat="44.3013" lon="2.9341">
        <ele>911</ele>
        <time>2005-10-02T10:41:14Z</time>
      </trkpt>
      <trkpt lat="44.3014" lon="2.9341">
        <ele>909</ele>
        <time>2005-10-02T10:41:27Z</time>
      </trkpt>
      <trkpt lat="44.30145" lon="2.93412">
        <ele>908</ele>
        <time>2005-10-02T10:41:53Z</time>
      </trkpt>
      <trkpt lat="44.30151" lon="2.93412">
        <ele>909</ele>
        <time>2005-10-02T10:42:02Z</time>
      </trkpt>
      <trkpt lat="44.30166" lon="2.93414">
        <ele>909</ele>
        <time>2005-10-02T10:42:16Z</time>
      </trkpt>
      <trkpt lat="44.30179" lon="2.93421">
        <ele>908</ele>
        <time>2005-10-02T10:42:28Z</time>
      </trkpt>
      <trkpt lat="44.3019" lon="2.93427">
        <ele>907</ele>
        <time>2005-10-02T10:42:39Z</time>
      </trkpt>
      <trkpt lat="44.30205" lon="2.93434">
        <ele>908</ele>
        <time>2005-10-02T10:42:53Z</time>
      </trkpt>
      <trkpt lat="44.3022" lon="2.93444">
        <ele>909</ele>
        <time>2005-10-02T10:43:07Z</time>
      </trkpt>
      <trkpt lat="44.30233" lon="2.93453">
        <ele>909</ele>
        <time>2005-10-02T10:43:20Z</time>
      </trkpt>
      <trkpt lat="44.30237" lon="2.93455">
        <ele>910</ele>
        <time>2005-10-02T10:43:24Z</time>
      </trkpt>
      <trkpt lat="44.30245" lon="2.93472">
        <ele>911</ele>
        <time>2005-10-02T10:43:38Z</time>
      </trkpt>
      <trkpt lat="44.30239" lon="2.93496">
        <ele>911</ele>
        <time>2005-10-02T10:43:57Z</time>
      </trkpt>
      <trkpt lat="44.30239" lon="2.93504">
        <ele>911</ele>
        <time>2005-10-02T10:44:09Z</time>
      </trkpt>
      <trkpt lat="44.30239" lon="2.93507">
        <ele>913</ele>
        <time>2005-10-02T10:44:20Z</time>
      </trkpt>
      <trkpt lat="44.30239" lon="2.93504">
        <ele>915</ele>
        <time>2005-10-02T10:44:32Z</time>
      </trkpt>
      <trkpt lat="44.30243" lon="2.93507">
        <ele>913</ele>
        <time>2005-10-02T10:45:11Z</time>
      </trkpt>
      <trkpt lat="44.30245" lon="2.93513">
        <ele>914</ele>
        <time>2005-10-02T10:46:15Z</time>
      </trkpt>
      <trkpt lat="44.30245" lon="2.93524">
        <ele>919</ele>
        <time>2005-10-02T10:47:16Z</time>
      </trkpt>
      <trkpt lat="44.30233" lon="2.93539">
        <ele>922</ele>
        <time>2005-10-02T10:47:36Z</time>
      </trkpt>
      <trkpt lat="44.30224" lon="2.93552">
        <ele>927</ele>
        <time>2005-10-02T10:47:54Z</time>
      </trkpt>
      <trkpt lat="44.30213" lon="2.93562">
        <ele>927</ele>
        <time>2005-10-02T10:48:12Z</time>
      </trkpt>
      <trkpt lat="44.30211" lon="2.93575">
        <ele>927</ele>
        <time>2005-10-02T10:48:26Z</time>
      </trkpt>
      <trkpt lat="44.30207" lon="2.93586">
        <ele>928</ele>
        <time>2005-10-02T10:48:39Z</time>
      </trkpt>
      <trkpt lat="44.30209" lon="2.9361">
        <ele>930</ele>
        <time>2005-10-02T10:48:55Z</time>
      </trkpt>
      <trkpt lat="44.30209" lon="2.93631">
        <ele>933</ele>
        <time>2005-10-02T10:49:10Z</time>
      </trkpt>
      <trkpt lat="44.30211" lon="2.93653">
        <ele>935</ele>
        <time>2005-10-02T10:49:24Z</time>
      </trkpt>
      <trkpt lat="44.30211" lon="2.93676">
        <ele>935</ele>
        <time>2005-10-02T10:49:39Z</time>
      </trkpt>
      <trkpt lat="44.30213" lon="2.93702">
        <ele>937</ele>
        <time>2005-10-02T10:49:55Z</time>
      </trkpt>
      <trkpt lat="44.30213" lon="2.93728">
        <ele>940</ele>
        <time>2005-10-02T10:50:11Z</time>
      </trkpt>
      <trkpt lat="44.30215" lon="2.93751">
        <ele>941</ele>
        <time>2005-10-02T10:50:26Z</time>
      </trkpt>
      <trkpt lat="44.3022" lon="2.93777">
        <ele>942</ele>
        <time>2005-10-02T10:50:43Z</time>
      </trkpt>
      <trkpt lat="44.3022" lon="2.93786">
        <ele>944</ele>
        <time>2005-10-02T10:50:55Z</time>
      </trkpt>
      <trkpt lat="44.30226" lon="2.93801">
        <ele>940</ele>
        <time>2005-10-02T10:51:06Z</time>
      </trkpt>
      <trkpt lat="44.30241" lon="2.93822">
        <ele>940</ele>
        <time>2005-10-02T10:51:15Z</time>
      </trkpt>
      <trkpt lat="44.30258" lon="2.93936">
        <ele>940</ele>
        <time>2005-10-02T10:51:30Z</time>
      </trkpt>
      <trkpt lat="44.30286" lon="2.94013">
        <ele>939</ele>
        <time>2005-10-02T10:51:41Z</time>
      </trkpt>
      <trkpt lat="44.30316" lon="2.9403">
        <ele>934</ele>
        <time>2005-10-02T10:51:50Z</time>
      </trkpt>
      <trkpt lat="44.30344" lon="2.94032">
        <ele>929</ele>
        <time>2005-10-02T10:51:58Z</time>
      </trkpt>
      <trkpt lat="44.30366" lon="2.94045">
        <ele>928</ele>
        <time>2005-10-02T10:52:08Z</time>
      </trkpt>
      <trkpt lat="44.30393" lon="2.94028">
        <ele>928</ele>
        <time>2005-10-02T10:52:20Z</time>
      </trkpt>
      <trkpt lat="44.30436" lon="2.93981">
        <ele>927</ele>
        <time>2005-10-02T10:52:38Z</time>
      </trkpt>
      <trkpt lat="44.30471" lon="2.93923">
        <ele>923</ele>
        <time>2005-10-02T10:52:52Z</time>
      </trkpt>
      <trkpt lat="44.30496" lon="2.93848">
        <ele>923</ele>
        <time>2005-10-02T10:53:08Z</time>
      </trkpt>
      <trkpt lat="44.3052" lon="2.93805">
        <ele>924</ele>
        <time>2005-10-02T10:53:21Z</time>
      </trkpt>
      <trkpt lat="44.3055" lon="2.93788">
        <ele>928</ele>
        <time>2005-10-02T10:53:34Z</time>
      </trkpt>
      <trkpt lat="44.30574" lon="2.9379">
        <ele>930</ele>
        <time>2005-10-02T10:53:44Z</time>
      </trkpt>
      <trkpt lat="44.30602" lon="2.9379">
        <ele>933</ele>
        <time>2005-10-02T10:53:57Z</time>
      </trkpt>
      <trkpt lat="44.30627" lon="2.93766">
        <ele>937</ele>
        <time>2005-10-02T10:54:13Z</time>
      </trkpt>
      <trkpt lat="44.30657" lon="2.93747">
        <ele>940</ele>
        <time>2005-10-02T10:54:33Z</time>
      </trkpt>
      <trkpt lat="44.30683" lon="2.93741">
        <ele>938</ele>
        <time>2005-10-02T10:54:50Z</time>
      </trkpt>
      <trkpt lat="44.30711" lon="2.93736">
        <ele>939</ele>
        <time>2005-10-02T10:55:10Z</time>
      </trkpt>
      <trkpt lat="44.30732" lon="2.93741">
        <ele>944</ele>
        <time>2005-10-02T10:55:24Z</time>
      </trkpt>
      <trkpt lat="44.30748" lon="2.93751">
        <ele>948</ele>
        <time>2005-10-02T10:55:38Z</time>
      </trkpt>
      <trkpt lat="44.30758" lon="2.9376">
        <ele>954</ele>
        <time>2005-10-02T10:56:31Z</time>
      </trkpt>
      <trkpt lat="44.30784" lon="2.93775">
        <ele>957</ele>
        <time>2005-10-02T10:56:47Z</time>
      </trkpt>
      <trkpt lat="44.30801" lon="2.93779">
        <ele>960</ele>
        <time>2005-10-02T10:56:59Z</time>
      </trkpt>
      <trkpt lat="44.30823" lon="2.93773">
        <ele>962</ele>
        <time>2005-10-02T10:57:12Z</time>
      </trkpt>
      <trkpt lat="44.30844" lon="2.93753">
        <ele>962</ele>
        <time>2005-10-02T10:57:30Z</time>
      </trkpt>
      <trkpt lat="44.30846" lon="2.93751">
        <ele>963</ele>
        <time>2005-10-02T10:57:32Z</time>
      </trkpt>
      <trkpt lat="44.30848" lon="2.93741">
        <ele>965</ele>
        <time>2005-10-02T10:57:37Z</time>
      </trkpt>
      <trkpt lat="44.30859" lon="2.93713">
        <ele>968</ele>
        <time>2005-10-02T10:57:53Z</time>
      </trkpt>
      <trkpt lat="44.30868" lon="2.93691">
        <ele>971</ele>
        <time>2005-10-02T10:58:04Z</time>
      </trkpt>
      <trkpt lat="44.30872" lon="2.93685">
        <ele>972</ele>
        <time>2005-10-02T10:58:08Z</time>
      </trkpt>
      <trkpt lat="44.30904" lon="2.93657">
        <ele>974</ele>
        <time>2005-10-02T10:58:26Z</time>
      </trkpt>
      <trkpt lat="44.30951" lon="2.93629">
        <ele>978</ele>
        <time>2005-10-02T10:58:46Z</time>
      </trkpt>
      <trkpt lat="44.3099" lon="2.9361">
        <ele>982</ele>
        <time>2005-10-02T10:59:01Z</time>
      </trkpt>
      <trkpt lat="44.31026" lon="2.93584">
        <ele>985</ele>
        <time>2005-10-02T10:59:16Z</time>
      </trkpt>
      <trkpt lat="44.31059" lon="2.93558">
        <ele>985</ele>
        <time>2005-10-02T10:59:30Z</time>
      </trkpt>
      <trkpt lat="44.31093" lon="2.93522">
        <ele>988</ele>
        <time>2005-10-02T10:59:47Z</time>
      </trkpt>
      <trkpt lat="44.31119" lon="2.93494">
        <ele>992</ele>
        <time>2005-10-02T10:59:59Z</time>
      </trkpt>
      <trkpt lat="44.31151" lon="2.93453">
        <ele>995</ele>
        <time>2005-10-02T11:00:16Z</time>
      </trkpt>
      <trkpt lat="44.31183" lon="2.93404">
        <ele>999</ele>
        <time>2005-10-02T11:00:34Z</time>
      </trkpt>
      <trkpt lat="44.31209" lon="2.93374">
        <ele>1003</ele>
        <time>2005-10-02T11:00:49Z</time>
      </trkpt>
      <trkpt lat="44.31235" lon="2.9335">
        <ele>1010</ele>
        <time>2005-10-02T11:01:04Z</time>
      </trkpt>
      <trkpt lat="44.31258" lon="2.93314">
        <ele>1012</ele>
        <time>2005-10-02T11:01:19Z</time>
      </trkpt>
      <trkpt lat="44.31275" lon="2.93296">
        <ele>1013</ele>
        <time>2005-10-02T11:01:30Z</time>
      </trkpt>
      <trkpt lat="44.31293" lon="2.93305">
        <ele>1015</ele>
        <time>2005-10-02T11:01:40Z</time>
      </trkpt>
      <trkpt lat="44.3131" lon="2.93341">
        <ele>1016</ele>
        <time>2005-10-02T11:01:54Z</time>
      </trkpt>
      <trkpt lat="44.31327" lon="2.93382">
        <ele>1014</ele>
        <time>2005-10-02T11:02:05Z</time>
      </trkpt>
      <trkpt lat="44.31353" lon="2.93453">
        <ele>1013</ele>
        <time>2005-10-02T11:02:19Z</time>
      </trkpt>
      <trkpt lat="44.31381" lon="2.93526">
        <ele>1013</ele>
        <time>2005-10-02T11:02:35Z</time>
      </trkpt>
      <trkpt lat="44.31404" lon="2.93588">
        <ele>1010</ele>
        <time>2005-10-02T11:02:47Z</time>
      </trkpt>
      <trkpt lat="44.31438" lon="2.93653">
        <ele>1010</ele>
        <time>2005-10-02T11:02:56Z</time>
      </trkpt>
      <trkpt lat="44.31473" lon="2.93734">
        <ele>1009</ele>
        <time>2005-10-02T11:03:09Z</time>
      </trkpt>
      <trkpt lat="44.31479" lon="2.93747">
        <ele>1009</ele>
        <time>2005-10-02T11:03:13Z</time>
      </trkpt>
      <trkpt lat="44.31488" lon="2.93741">
        <ele>1010</ele>
        <time>2005-10-02T11:03:19Z</time>
      </trkpt>
      <trkpt lat="44.31494" lon="2.93685">
        <ele>1010</ele>
        <time>2005-10-02T11:03:33Z</time>
      </trkpt>
      <trkpt lat="44.31503" lon="2.93607">
        <ele>1010</ele>
        <time>2005-10-02T11:03:49Z</time>
      </trkpt>
      <trkpt lat="44.31526" lon="2.93528">
        <ele>1012</ele>
        <time>2005-10-02T11:04:05Z</time>
      </trkpt>
      <trkpt lat="44.31554" lon="2.93468">
        <ele>1013</ele>
        <time>2005-10-02T11:04:18Z</time>
      </trkpt>
      <trkpt lat="44.31574" lon="2.93408">
        <ele>1013</ele>
        <time>2005-10-02T11:04:29Z</time>
      </trkpt>
      <trkpt lat="44.31582" lon="2.93374">
        <ele>1012</ele>
        <time>2005-10-02T11:04:36Z</time>
      </trkpt>
      <trkpt lat="44.31597" lon="2.93298">
        <ele>1013</ele>
        <time>2005-10-02T11:04:50Z</time>
      </trkpt>
      <trkpt lat="44.31604" lon="2.93245">
        <ele>1013</ele>
        <time>2005-10-02T11:05:01Z</time>
      </trkpt>
      <trkpt lat="44.31614" lon="2.93157">
        <ele>1013</ele>
        <time>2005-10-02T11:05:15Z</time>
      </trkpt>
      <trkpt lat="44.31627" lon="2.93082">
        <ele>1012</ele>
        <time>2005-10-02T11:05:28Z</time>
      </trkpt>
      <trkpt lat="44.31629" lon="2.93067">
        <ele>1011</ele>
        <time>2005-10-02T11:05:36Z</time>
      </trkpt>
      <trkpt lat="44.31629" lon="2.93067">
        <ele>1011</ele>
        <time>2005-10-02T11:05:49Z</time>
      </trkpt>
      <trkpt lat="44.31627" lon="2.93065">
        <ele>1010</ele>
        <time>2005-10-02T11:09:19Z</time>
      </trkpt>
      <trkpt lat="44.31627" lon="2.93065">
        <ele>1010</ele>
        <time>2005-10-02T11:09:36Z</time>
      </trkpt>
      <trkpt lat="44.31627" lon="2.93065">
        <ele>1009</ele>
        <time>2005-10-02T11:09:52Z</time>
      </trkpt>
      <trkpt lat="44.31627" lon="2.93067">
        <ele>1008</ele>
        <time>2005-10-02T11:10:16Z</time>
      </trkpt>
      <trkpt lat="44.31625" lon="2.93062">
        <ele>1008</ele>
        <time>2005-10-02T11:10:44Z</time>
      </trkpt>
      <trkpt lat="44.31623" lon="2.93062">
        <ele>1010</ele>
        <time>2005-10-02T11:11:01Z</time>
      </trkpt>
      <trkpt lat="44.31623" lon="2.93052">
        <ele>1009</ele>
        <time>2005-10-02T11:11:05Z</time>
      </trkpt>
      <trkpt lat="44.31627" lon="2.93013">
        <ele>1009</ele>
        <time>2005-10-02T11:11:16Z</time>
      </trkpt>
      <trkpt lat="44.31634" lon="2.92957">
        <ele>1007</ele>
        <time>2005-10-02T11:11:29Z</time>
      </trkpt>
      <trkpt lat="44.31644" lon="2.92884">
        <ele>1006</ele>
        <time>2005-10-02T11:11:43Z</time>
      </trkpt>
      <trkpt lat="44.31666" lon="2.92803">
        <ele>1006</ele>
        <time>2005-10-02T11:11:57Z</time>
      </trkpt>
      <trkpt lat="44.31707" lon="2.92693">
        <ele>1006</ele>
        <time>2005-10-02T11:12:15Z</time>
      </trkpt>
      <trkpt lat="44.3173" lon="2.9259">
        <ele>1004</ele>
        <time>2005-10-02T11:12:30Z</time>
      </trkpt>
      <trkpt lat="44.31745" lon="2.92483">
        <ele>1003</ele>
        <time>2005-10-02T11:12:44Z</time>
      </trkpt>
      <trkpt lat="44.31771" lon="2.92412">
        <ele>1004</ele>
        <time>2005-10-02T11:12:56Z</time>
      </trkpt>
      <trkpt lat="44.3176" lon="2.92395">
        <ele>1004</ele>
        <time>2005-10-02T11:13:02Z</time>
      </trkpt>
      <trkpt lat="44.31737" lon="2.92384">
        <ele>1003</ele>
        <time>2005-10-02T11:13:10Z</time>
      </trkpt>
      <trkpt lat="44.31741" lon="2.92339">
        <ele>1001</ele>
        <time>2005-10-02T11:13:19Z</time>
      </trkpt>
      <trkpt lat="44.3175" lon="2.92292">
        <ele>999</ele>
        <time>2005-10-02T11:13:26Z</time>
      </trkpt>
      <trkpt lat="44.31745" lon="2.92191">
        <ele>997</ele>
        <time>2005-10-02T11:13:40Z</time>
      </trkpt>
      <trkpt lat="44.31735" lon="2.92142">
        <ele>999</ele>
        <time>2005-10-02T11:13:51Z</time>
      </trkpt>
      <trkpt lat="44.3173" lon="2.92088">
        <ele>1004</ele>
        <time>2005-10-02T11:14:07Z</time>
      </trkpt>
      <trkpt lat="44.31739" lon="2.92041">
        <ele>1008</ele>
        <time>2005-10-02T11:14:20Z</time>
      </trkpt>
      <trkpt lat="44.31745" lon="2.91996">
        <ele>1013</ele>
        <time>2005-10-02T11:14:32Z</time>
      </trkpt>
      <trkpt lat="44.31752" lon="2.91919">
        <ele>1013</ele>
        <time>2005-10-02T11:14:53Z</time>
      </trkpt>
      <trkpt lat="44.31752" lon="2.91859">
        <ele>1012</ele>
        <time>2005-10-02T11:15:07Z</time>
      </trkpt>
      <trkpt lat="44.31747" lon="2.91803">
        <ele>1010</ele>
        <time>2005-10-02T11:15:19Z</time>
      </trkpt>
      <trkpt lat="44.31724" lon="2.9173">
        <ele>1010</ele>
        <time>2005-10-02T11:15:29Z</time>
      </trkpt>
      <trkpt lat="44.3172" lon="2.91715">
        <ele>1010</ele>
        <time>2005-10-02T11:15:31Z</time>
      </trkpt>
      <trkpt lat="44.31724" lon="2.91683">
        <ele>1011</ele>
        <time>2005-10-02T11:15:38Z</time>
      </trkpt>
      <trkpt lat="44.31728" lon="2.91685">
        <ele>1011</ele>
        <time>2005-10-02T11:15:41Z</time>
      </trkpt>
      <trkpt lat="44.3173" lon="2.91685">
        <ele>1010</ele>
        <time>2005-10-02T11:15:54Z</time>
      </trkpt>
      <trkpt lat="44.31726" lon="2.91683">
        <ele>1010</ele>
        <time>2005-10-02T11:17:06Z</time>
      </trkpt>
      <trkpt lat="44.31724" lon="2.91685">
        <ele>1010</ele>
        <time>2005-10-02T11:17:18Z</time>
      </trkpt>
      <trkpt lat="44.31728" lon="2.91685">
        <ele>1012</ele>
        <time>2005-10-02T11:17:50Z</time>
      </trkpt>
      <trkpt lat="44.31728" lon="2.91689">
        <ele>1012</ele>
        <time>2005-10-02T11:18:11Z</time>
      </trkpt>
      <trkpt lat="44.31732" lon="2.91691">
        <ele>1013</ele>
        <time>2005-10-02T11:18:15Z</time>
      </trkpt>
      <trkpt lat="44.31754" lon="2.91693">
        <ele>1015</ele>
        <time>2005-10-02T11:18:30Z</time>
      </trkpt>
      <trkpt lat="44.31771" lon="2.91678">
        <ele>1018</ele>
        <time>2005-10-02T11:18:41Z</time>
      </trkpt>
      <trkpt lat="44.31797" lon="2.91661">
        <ele>1020</ele>
        <time>2005-10-02T11:18:53Z</time>
      </trkpt>
      <trkpt lat="44.31844" lon="2.91651">
        <ele>1017</ele>
        <time>2005-10-02T11:19:06Z</time>
      </trkpt>
      <trkpt lat="44.31898" lon="2.91625">
        <ele>1015</ele>
        <time>2005-10-02T11:19:18Z</time>
      </trkpt>
      <trkpt lat="44.31973" lon="2.91578">
        <ele>1013</ele>
        <time>2005-10-02T11:19:34Z</time>
      </trkpt>
      <trkpt lat="44.32035" lon="2.91533">
        <ele>1010</ele>
        <time>2005-10-02T11:19:46Z</time>
      </trkpt>
      <trkpt lat="44.3211" lon="2.915">
        <ele>1010</ele>
        <time>2005-10-02T11:20:00Z</time>
      </trkpt>
      <trkpt lat="44.32142" lon="2.91477">
        <ele>1011</ele>
        <time>2005-10-02T11:20:10Z</time>
      </trkpt>
      <trkpt lat="44.32153" lon="2.91436">
        <ele>1010</ele>
        <time>2005-10-02T11:20:20Z</time>
      </trkpt>
      <trkpt lat="44.32155" lon="2.91369">
        <ele>1008</ele>
        <time>2005-10-02T11:20:32Z</time>
      </trkpt>
      <trkpt lat="44.32166" lon="2.91266">
        <ele>1005</ele>
        <time>2005-10-02T11:20:48Z</time>
      </trkpt>
      <trkpt lat="44.3217" lon="2.91241">
        <ele>1003</ele>
        <time>2005-10-02T11:20:52Z</time>
      </trkpt>
      <trkpt lat="44.3217" lon="2.91213">
        <ele>1002</ele>
        <time>2005-10-02T11:20:56Z</time>
      </trkpt>
      <trkpt lat="44.32166" lon="2.91146">
        <ele>998</ele>
        <time>2005-10-02T11:21:05Z</time>
      </trkpt>
      <trkpt lat="44.32162" lon="2.91082">
        <ele>994</ele>
        <time>2005-10-02T11:21:14Z</time>
      </trkpt>
      <trkpt lat="44.32159" lon="2.91073">
        <ele>994</ele>
        <time>2005-10-02T11:21:15Z</time>
      </trkpt>
      <trkpt lat="44.32129" lon="2.90979">
        <ele>990</ele>
        <time>2005-10-02T11:21:24Z</time>
      </trkpt>
      <trkpt lat="44.32093" lon="2.90938">
        <ele>989</ele>
        <time>2005-10-02T11:21:30Z</time>
      </trkpt>
      <trkpt lat="44.32048" lon="2.90942">
        <ele>989</ele>
        <time>2005-10-02T11:21:37Z</time>
      </trkpt>
      <trkpt lat="44.32016" lon="2.90953">
        <ele>986</ele>
        <time>2005-10-02T11:21:44Z</time>
      </trkpt>
      <trkpt lat="44.32007" lon="2.90953">
        <ele>985</ele>
        <time>2005-10-02T11:21:52Z</time>
      </trkpt>
      <trkpt lat="44.32011" lon="2.90951">
        <ele>986</ele>
        <time>2005-10-02T11:22:12Z</time>
      </trkpt>
      <trkpt lat="44.32031" lon="2.90949">
        <ele>986</ele>
        <time>2005-10-02T11:22:24Z</time>
      </trkpt>
      <trkpt lat="44.32063" lon="2.90934">
        <ele>987</ele>
        <time>2005-10-02T11:22:35Z</time>
      </trkpt>
      <trkpt lat="44.32117" lon="2.90917">
        <ele>988</ele>
        <time>2005-10-02T11:22:50Z</time>
      </trkpt>
      <trkpt lat="44.32177" lon="2.90906">
        <ele>987</ele>
        <time>2005-10-02T11:23:06Z</time>
      </trkpt>
      <trkpt lat="44.32232" lon="2.90912">
        <ele>987</ele>
        <time>2005-10-02T11:23:19Z</time>
      </trkpt>
      <trkpt lat="44.32301" lon="2.90932">
        <ele>985</ele>
        <time>2005-10-02T11:23:32Z</time>
      </trkpt>
      <trkpt lat="44.32357" lon="2.90938">
        <ele>985</ele>
        <time>2005-10-02T11:23:44Z</time>
      </trkpt>
      <trkpt lat="44.3238" lon="2.90936">
        <ele>985</ele>
        <time>2005-10-02T11:23:50Z</time>
      </trkpt>
      <trkpt lat="44.32421" lon="2.90919">
        <ele>983</ele>
        <time>2005-10-02T11:23:59Z</time>
      </trkpt>
      <trkpt lat="44.32436" lon="2.90908">
        <ele>982</ele>
        <time>2005-10-02T11:24:02Z</time>
      </trkpt>
      <trkpt lat="44.32492" lon="2.90824">
        <ele>978</ele>
        <time>2005-10-02T11:24:15Z</time>
      </trkpt>
      <trkpt lat="44.32559" lon="2.90715">
        <ele>974</ele>
        <time>2005-10-02T11:24:30Z</time>
      </trkpt>
      <trkpt lat="44.32614" lon="2.90625">
        <ele>973</ele>
        <time>2005-10-02T11:24:44Z</time>
      </trkpt>
      <trkpt lat="44.32659" lon="2.9055">
        <ele>971</ele>
        <time>2005-10-02T11:24:57Z</time>
      </trkpt>
      <trkpt lat="44.32713" lon="2.9047">
        <ele>969</ele>
        <time>2005-10-02T11:25:11Z</time>
      </trkpt>
      <trkpt lat="44.32724" lon="2.9046">
        <ele>968</ele>
        <time>2005-10-02T11:25:18Z</time>
      </trkpt>
      <trkpt lat="44.32752" lon="2.90434">
        <ele>968</ele>
        <time>2005-10-02T11:25:27Z</time>
      </trkpt>
      <trkpt lat="44.32762" lon="2.90419">
        <ele>969</ele>
        <time>2005-10-02T11:25:31Z</time>
      </trkpt>
      <trkpt lat="44.32767" lon="2.90408">
        <ele>969</ele>
        <time>2005-10-02T11:25:33Z</time>
      </trkpt>
      <trkpt lat="44.32782" lon="2.90337">
        <ele>967</ele>
        <time>2005-10-02T11:25:44Z</time>
      </trkpt>
      <trkpt lat="44.32822" lon="2.90213">
        <ele>964</ele>
        <time>2005-10-02T11:26:01Z</time>
      </trkpt>
      <trkpt lat="44.32857" lon="2.90095">
        <ele>961</ele>
        <time>2005-10-02T11:26:15Z</time>
      </trkpt>
      <trkpt lat="44.32878" lon="2.90037">
        <ele>961</ele>
        <time>2005-10-02T11:26:22Z</time>
      </trkpt>
      <trkpt lat="44.32898" lon="2.90015">
        <ele>960</ele>
        <time>2005-10-02T11:26:26Z</time>
      </trkpt>
      <trkpt lat="44.3296" lon="2.89966">
        <ele>961</ele>
        <time>2005-10-02T11:26:39Z</time>
      </trkpt>
      <trkpt lat="44.32971" lon="2.89955">
        <ele>961</ele>
        <time>2005-10-02T11:26:42Z</time>
      </trkpt>
      <trkpt lat="44.32996" lon="2.89921">
        <ele>961</ele>
        <time>2005-10-02T11:26:50Z</time>
      </trkpt>
      <trkpt lat="44.33009" lon="2.8987">
        <ele>962</ele>
        <time>2005-10-02T11:27:01Z</time>
      </trkpt>
      <trkpt lat="44.32996" lon="2.89824">
        <ele>963</ele>
        <time>2005-10-02T11:27:11Z</time>
      </trkpt>
      <trkpt lat="44.32992" lon="2.89807">
        <ele>964</ele>
        <time>2005-10-02T11:27:14Z</time>
      </trkpt>
      <trkpt lat="44.32998" lon="2.89732">
        <ele>965</ele>
        <time>2005-10-02T11:27:28Z</time>
      </trkpt>
      <trkpt lat="44.33009" lon="2.89653">
        <ele>962</ele>
        <time>2005-10-02T11:27:42Z</time>
      </trkpt>
      <trkpt lat="44.3302" lon="2.8961">
        <ele>962</ele>
        <time>2005-10-02T11:27:50Z</time>
      </trkpt>
      <trkpt lat="44.33035" lon="2.89513">
        <ele>962</ele>
        <time>2005-10-02T11:28:05Z</time>
      </trkpt>
      <trkpt lat="44.33041" lon="2.8943">
        <ele>962</ele>
        <time>2005-10-02T11:28:16Z</time>
      </trkpt>
      <trkpt lat="44.33041" lon="2.89408">
        <ele>962</ele>
        <time>2005-10-02T11:28:19Z</time>
      </trkpt>
      <trkpt lat="44.33026" lon="2.89367">
        <ele>961</ele>
        <time>2005-10-02T11:28:25Z</time>
      </trkpt>
      <trkpt lat="44.32973" lon="2.89282">
        <ele>958</ele>
        <time>2005-10-02T11:28:38Z</time>
      </trkpt>
      <trkpt lat="44.32953" lon="2.89202">
        <ele>953</ele>
        <time>2005-10-02T11:28:45Z</time>
      </trkpt>
      <trkpt lat="44.32943" lon="2.89099">
        <ele>948</ele>
        <time>2005-10-02T11:28:52Z</time>
      </trkpt>
      <trkpt lat="44.32968" lon="2.8902">
        <ele>945</ele>
        <time>2005-10-02T11:28:58Z</time>
      </trkpt>
      <trkpt lat="44.32981" lon="2.88938">
        <ele>941</ele>
        <time>2005-10-02T11:29:05Z</time>
      </trkpt>
      <trkpt lat="44.32977" lon="2.88902">
        <ele>939</ele>
        <time>2005-10-02T11:29:09Z</time>
      </trkpt>
      <trkpt lat="44.32968" lon="2.88872">
        <ele>936</ele>
        <time>2005-10-02T11:29:13Z</time>
      </trkpt>
      <trkpt lat="44.32973" lon="2.8881">
        <ele>933</ele>
        <time>2005-10-02T11:29:20Z</time>
      </trkpt>
      <trkpt lat="44.32981" lon="2.88799">
        <ele>932</ele>
        <time>2005-10-02T11:29:22Z</time>
      </trkpt>
      <trkpt lat="44.33039" lon="2.8873">
        <ele>925</ele>
        <time>2005-10-02T11:29:36Z</time>
      </trkpt>
      <trkpt lat="44.33084" lon="2.88711">
        <ele>924</ele>
        <time>2005-10-02T11:29:43Z</time>
      </trkpt>
      <trkpt lat="44.33174" lon="2.88713">
        <ele>922</ele>
        <time>2005-10-02T11:29:55Z</time>
      </trkpt>
      <trkpt lat="44.33183" lon="2.88715">
        <ele>922</ele>
        <time>2005-10-02T11:29:56Z</time>
      </trkpt>
      <trkpt lat="44.33211" lon="2.88728">
        <ele>921</ele>
        <time>2005-10-02T11:30:00Z</time>
      </trkpt>
      <trkpt lat="44.33271" lon="2.88775">
        <ele>913</ele>
        <time>2005-10-02T11:30:10Z</time>
      </trkpt>
      <trkpt lat="44.33342" lon="2.88803">
        <ele>907</ele>
        <time>2005-10-02T11:30:18Z</time>
      </trkpt>
      <trkpt lat="44.33395" lon="2.88795">
        <ele>905</ele>
        <time>2005-10-02T11:30:24Z</time>
      </trkpt>
      <trkpt lat="44.33419" lon="2.8876">
        <ele>903</ele>
        <time>2005-10-02T11:30:28Z</time>
      </trkpt>
      <trkpt lat="44.33425" lon="2.88743">
        <ele>903</ele>
        <time>2005-10-02T11:30:30Z</time>
      </trkpt>
      <trkpt lat="44.33436" lon="2.88724">
        <ele>903</ele>
        <time>2005-10-02T11:30:33Z</time>
      </trkpt>
      <trkpt lat="44.33468" lon="2.887">
        <ele>902</ele>
        <time>2005-10-02T11:30:44Z</time>
      </trkpt>
      <trkpt lat="44.33507" lon="2.88685">
        <ele>903</ele>
        <time>2005-10-02T11:30:57Z</time>
      </trkpt>
      <trkpt lat="44.33531" lon="2.88664">
        <ele>906</ele>
        <time>2005-10-02T11:31:08Z</time>
      </trkpt>
      <trkpt lat="44.33541" lon="2.88651">
        <ele>907</ele>
        <time>2005-10-02T11:31:14Z</time>
      </trkpt>
      <trkpt lat="44.33537" lon="2.88634">
        <ele>908</ele>
        <time>2005-10-02T11:31:20Z</time>
      </trkpt>
      <trkpt lat="44.33518" lon="2.88604">
        <ele>906</ele>
        <time>2005-10-02T11:31:35Z</time>
      </trkpt>
      <trkpt lat="44.33488" lon="2.88548">
        <ele>906</ele>
        <time>2005-10-02T11:31:49Z</time>
      </trkpt>
      <trkpt lat="44.33483" lon="2.88537">
        <ele>905</ele>
        <time>2005-10-02T11:31:57Z</time>
      </trkpt>
      <trkpt lat="44.33475" lon="2.88524">
        <ele>904</ele>
        <time>2005-10-02T11:32:24Z</time>
      </trkpt>
      <trkpt lat="44.33455" lon="2.88503">
        <ele>903</ele>
        <time>2005-10-02T11:32:33Z</time>
      </trkpt>
      <trkpt lat="44.33421" lon="2.88466">
        <ele>903</ele>
        <time>2005-10-02T11:32:45Z</time>
      </trkpt>
      <trkpt lat="44.33419" lon="2.88464">
        <ele>903</ele>
        <time>2005-10-02T11:32:46Z</time>
      </trkpt>
      <trkpt lat="44.33363" lon="2.88378">
        <ele>902</ele>
        <time>2005-10-02T11:32:55Z</time>
      </trkpt>
      <trkpt lat="44.33295" lon="2.88265">
        <ele>901</ele>
        <time>2005-10-02T11:33:08Z</time>
      </trkpt>
      <trkpt lat="44.33264" lon="2.88249">
        <ele>898</ele>
        <time>2005-10-02T11:33:18Z</time>
      </trkpt>
      <trkpt lat="44.33243" lon="2.88241">
        <ele>897</ele>
        <time>2005-10-02T11:33:23Z</time>
      </trkpt>
      <trkpt lat="44.332" lon="2.88234">
        <ele>897</ele>
        <time>2005-10-02T11:33:30Z</time>
      </trkpt>
      <trkpt lat="44.33155" lon="2.88239">
        <ele>895</ele>
        <time>2005-10-02T11:33:38Z</time>
      </trkpt>
      <trkpt lat="44.33134" lon="2.88234">
        <ele>895</ele>
        <time>2005-10-02T11:33:42Z</time>
      </trkpt>
      <trkpt lat="44.33108" lon="2.88219">
        <ele>894</ele>
        <time>2005-10-02T11:33:47Z</time>
      </trkpt>
      <trkpt lat="44.33086" lon="2.88211">
        <ele>893</ele>
        <time>2005-10-02T11:33:51Z</time>
      </trkpt>
      <trkpt lat="44.33061" lon="2.88209">
        <ele>892</ele>
        <time>2005-10-02T11:33:56Z</time>
      </trkpt>
      <trkpt lat="44.32994" lon="2.88174">
        <ele>888</ele>
        <time>2005-10-02T11:34:09Z</time>
      </trkpt>
      <trkpt lat="44.32934" lon="2.88129">
        <ele>886</ele>
        <time>2005-10-02T11:34:20Z</time>
      </trkpt>
      <trkpt lat="44.3291" lon="2.88093">
        <ele>885</ele>
        <time>2005-10-02T11:34:26Z</time>
      </trkpt>
      <trkpt lat="44.32874" lon="2.88086">
        <ele>882</ele>
        <time>2005-10-02T11:34:32Z</time>
      </trkpt>
      <trkpt lat="44.32846" lon="2.88074">
        <ele>880</ele>
        <time>2005-10-02T11:34:38Z</time>
      </trkpt>
      <trkpt lat="44.32818" lon="2.88024">
        <ele>878</ele>
        <time>2005-10-02T11:34:45Z</time>
      </trkpt>
      <trkpt lat="44.32803" lon="2.88009">
        <ele>877</ele>
        <time>2005-10-02T11:34:48Z</time>
      </trkpt>
      <trkpt lat="44.32752" lon="2.87979">
        <ele>878</ele>
        <time>2005-10-02T11:34:58Z</time>
      </trkpt>
      <trkpt lat="44.32726" lon="2.8796">
        <ele>877</ele>
        <time>2005-10-02T11:35:04Z</time>
      </trkpt>
      <trkpt lat="44.32647" lon="2.87938">
        <ele>878</ele>
        <time>2005-10-02T11:35:18Z</time>
      </trkpt>
      <trkpt lat="44.32595" lon="2.87936">
        <ele>880</ele>
        <time>2005-10-02T11:35:31Z</time>
      </trkpt>
      <trkpt lat="44.32533" lon="2.87921">
        <ele>880</ele>
        <time>2005-10-02T11:35:44Z</time>
      </trkpt>
      <trkpt lat="44.32509" lon="2.87917">
        <ele>881</ele>
        <time>2005-10-02T11:35:49Z</time>
      </trkpt>
      <trkpt lat="44.32498" lon="2.87919">
        <ele>881</ele>
        <time>2005-10-02T11:35:51Z</time>
      </trkpt>
      <trkpt lat="44.32462" lon="2.87923">
        <ele>882</ele>
        <time>2005-10-02T11:35:59Z</time>
      </trkpt>
      <trkpt lat="44.324" lon="2.87895">
        <ele>879</ele>
        <time>2005-10-02T11:36:10Z</time>
      </trkpt>
      <trkpt lat="44.32357" lon="2.87848">
        <ele>878</ele>
        <time>2005-10-02T11:36:20Z</time>
      </trkpt>
      <trkpt lat="44.32305" lon="2.87799">
        <ele>877</ele>
        <time>2005-10-02T11:36:32Z</time>
      </trkpt>
      <trkpt lat="44.32286" lon="2.87812">
        <ele>875</ele>
        <time>2005-10-02T11:36:37Z</time>
      </trkpt>
      <trkpt lat="44.32239" lon="2.87891">
        <ele>874</ele>
        <time>2005-10-02T11:36:50Z</time>
      </trkpt>
      <trkpt lat="44.32196" lon="2.87898">
        <ele>871</ele>
        <time>2005-10-02T11:36:56Z</time>
      </trkpt>
      <trkpt lat="44.32189" lon="2.87893">
        <ele>870</ele>
        <time>2005-10-02T11:36:57Z</time>
      </trkpt>
      <trkpt lat="44.32106" lon="2.87838">
        <ele>867</ele>
        <time>2005-10-02T11:37:10Z</time>
      </trkpt>
      <trkpt lat="44.32059" lon="2.87814">
        <ele>866</ele>
        <time>2005-10-02T11:37:18Z</time>
      </trkpt>
      <trkpt lat="44.3205" lon="2.87807">
        <ele>866</ele>
        <time>2005-10-02T11:37:20Z</time>
      </trkpt>
      <trkpt lat="44.32037" lon="2.87754">
        <ele>865</ele>
        <time>2005-10-02T11:37:31Z</time>
      </trkpt>
      <trkpt lat="44.32026" lon="2.87694">
        <ele>866</ele>
        <time>2005-10-02T11:37:46Z</time>
      </trkpt>
      <trkpt lat="44.32005" lon="2.87657">
        <ele>866</ele>
        <time>2005-10-02T11:37:59Z</time>
      </trkpt>
      <trkpt lat="44.31986" lon="2.87621">
        <ele>868</ele>
        <time>2005-10-02T11:38:13Z</time>
      </trkpt>
      <trkpt lat="44.31968" lon="2.87582">
        <ele>871</ele>
        <time>2005-10-02T11:38:28Z</time>
      </trkpt>
      <trkpt lat="44.31947" lon="2.87526">
        <ele>871</ele>
        <time>2005-10-02T11:38:48Z</time>
      </trkpt>
      <trkpt lat="44.31898" lon="2.87468">
        <ele>871</ele>
        <time>2005-10-02T11:39:17Z</time>
      </trkpt>
      <trkpt lat="44.31883" lon="2.87464">
        <ele>872</ele>
        <time>2005-10-02T11:39:29Z</time>
      </trkpt>
      <trkpt lat="44.31872" lon="2.87447">
        <ele>872</ele>
        <time>2005-10-02T11:39:46Z</time>
      </trkpt>
      <trkpt lat="44.31861" lon="2.8741">
        <ele>874</ele>
        <time>2005-10-02T11:40:08Z</time>
      </trkpt>
      <trkpt lat="44.31833" lon="2.87359">
        <ele>911</ele>
        <time>2005-10-02T11:40:38Z</time>
      </trkpt>
      <trkpt lat="44.3181" lon="2.87329">
        <ele>912</ele>
        <time>2005-10-02T11:40:53Z</time>
      </trkpt>
      <trkpt lat="44.31773" lon="2.87284">
        <ele>914</ele>
        <time>2005-10-02T11:41:11Z</time>
      </trkpt>
      <trkpt lat="44.31747" lon="2.87258">
        <ele>916</ele>
        <time>2005-10-02T11:41:23Z</time>
      </trkpt>
      <trkpt lat="44.31735" lon="2.87239">
        <ele>915</ele>
        <time>2005-10-02T11:41:28Z</time>
      </trkpt>
      <trkpt lat="44.31687" lon="2.87237">
        <ele>912</ele>
        <time>2005-10-02T11:41:34Z</time>
      </trkpt>
      <trkpt lat="44.31672" lon="2.87245">
        <ele>911</ele>
        <time>2005-10-02T11:41:36Z</time>
      </trkpt>
      <trkpt lat="44.31638" lon="2.87267">
        <ele>910</ele>
        <time>2005-10-02T11:41:40Z</time>
      </trkpt>
      <trkpt lat="44.31612" lon="2.87256">
        <ele>908</ele>
        <time>2005-10-02T11:41:44Z</time>
      </trkpt>
      <trkpt lat="44.31595" lon="2.87213">
        <ele>910</ele>
        <time>2005-10-02T11:41:52Z</time>
      </trkpt>
      <trkpt lat="44.31589" lon="2.87179">
        <ele>913</ele>
        <time>2005-10-02T11:42:05Z</time>
      </trkpt>
      <trkpt lat="44.31578" lon="2.8714">
        <ele>919</ele>
        <time>2005-10-02T11:42:20Z</time>
      </trkpt>
      <trkpt lat="44.31565" lon="2.87114">
        <ele>921</ele>
        <time>2005-10-02T11:42:33Z</time>
      </trkpt>
      <trkpt lat="44.31541" lon="2.87097">
        <ele>930</ele>
        <time>2005-10-02T11:42:47Z</time>
      </trkpt>
      <trkpt lat="44.3152" lon="2.87082">
        <ele>934</ele>
        <time>2005-10-02T11:43:00Z</time>
      </trkpt>
      <trkpt lat="44.31496" lon="2.87067">
        <ele>933</ele>
        <time>2005-10-02T11:43:14Z</time>
      </trkpt>
      <trkpt lat="44.31471" lon="2.87056">
        <ele>932</ele>
        <time>2005-10-02T11:43:26Z</time>
      </trkpt>
      <trkpt lat="44.31428" lon="2.87029">
        <ele>933</ele>
        <time>2005-10-02T11:43:43Z</time>
      </trkpt>
      <trkpt lat="44.31393" lon="2.86992">
        <ele>933</ele>
        <time>2005-10-02T11:43:58Z</time>
      </trkpt>
      <trkpt lat="44.31363" lon="2.86971">
        <ele>933</ele>
        <time>2005-10-02T11:44:09Z</time>
      </trkpt>
      <trkpt lat="44.31331" lon="2.86951">
        <ele>933</ele>
        <time>2005-10-02T11:44:20Z</time>
      </trkpt>
      <trkpt lat="44.31278" lon="2.86921">
        <ele>932</ele>
        <time>2005-10-02T11:44:34Z</time>
      </trkpt>
      <trkpt lat="44.31252" lon="2.86908">
        <ele>932</ele>
        <time>2005-10-02T11:44:40Z</time>
      </trkpt>
      <trkpt lat="44.31237" lon="2.86891">
        <ele>932</ele>
        <time>2005-10-02T11:44:44Z</time>
      </trkpt>
      <trkpt lat="44.312" lon="2.8682">
        <ele>931</ele>
        <time>2005-10-02T11:44:56Z</time>
      </trkpt>
      <trkpt lat="44.31183" lon="2.86773">
        <ele>931</ele>
        <time>2005-10-02T11:45:03Z</time>
      </trkpt>
      <trkpt lat="44.31177" lon="2.86745">
        <ele>931</ele>
        <time>2005-10-02T11:45:07Z</time>
      </trkpt>
      <trkpt lat="44.31136" lon="2.86651">
        <ele>931</ele>
        <time>2005-10-02T11:45:21Z</time>
      </trkpt>
      <trkpt lat="44.31112" lon="2.86606">
        <ele>932</ele>
        <time>2005-10-02T11:45:29Z</time>
      </trkpt>
      <trkpt lat="44.3108" lon="2.86574">
        <ele>933</ele>
        <time>2005-10-02T11:45:39Z</time>
      </trkpt>
      <trkpt lat="44.31052" lon="2.86554">
        <ele>933</ele>
        <time>2005-10-02T11:45:47Z</time>
      </trkpt>
      <trkpt lat="44.31011" lon="2.86522">
        <ele>932</ele>
        <time>2005-10-02T11:45:58Z</time>
      </trkpt>
      <trkpt lat="44.30999" lon="2.86514">
        <ele>932</ele>
        <time>2005-10-02T11:46:01Z</time>
      </trkpt>
      <trkpt lat="44.3099" lon="2.86509">
        <ele>932</ele>
        <time>2005-10-02T11:46:03Z</time>
      </trkpt>
      <trkpt lat="44.3096" lon="2.86496">
        <ele>930</ele>
        <time>2005-10-02T11:46:08Z</time>
      </trkpt>
      <trkpt lat="44.30885" lon="2.86496">
        <ele>926</ele>
        <time>2005-10-02T11:46:16Z</time>
      </trkpt>
      <trkpt lat="44.30835" lon="2.86507">
        <ele>924</ele>
        <time>2005-10-02T11:46:21Z</time>
      </trkpt>
      <trkpt lat="44.30737" lon="2.8649">
        <ele>924</ele>
        <time>2005-10-02T11:46:30Z</time>
      </trkpt>
      <trkpt lat="44.30653" lon="2.86484">
        <ele>924</ele>
        <time>2005-10-02T11:46:39Z</time>
      </trkpt>
      <trkpt lat="44.30632" lon="2.86479">
        <ele>923</ele>
        <time>2005-10-02T11:46:42Z</time>
      </trkpt>
      <trkpt lat="44.30606" lon="2.86475">
        <ele>921</ele>
        <time>2005-10-02T11:46:49Z</time>
      </trkpt>
      <trkpt lat="44.30591" lon="2.8646">
        <ele>920</ele>
        <time>2005-10-02T11:46:53Z</time>
      </trkpt>
      <trkpt lat="44.30593" lon="2.86434">
        <ele>920</ele>
        <time>2005-10-02T11:46:57Z</time>
      </trkpt>
      <trkpt lat="44.30602" lon="2.86402">
        <ele>918</ele>
        <time>2005-10-02T11:47:02Z</time>
      </trkpt>
      <trkpt lat="44.30619" lon="2.86359">
        <ele>917</ele>
        <time>2005-10-02T11:47:12Z</time>
      </trkpt>
      <trkpt lat="44.30619" lon="2.8634">
        <ele>916</ele>
        <time>2005-10-02T11:47:15Z</time>
      </trkpt>
      <trkpt lat="44.30617" lon="2.86305">
        <ele>914</ele>
        <time>2005-10-02T11:47:20Z</time>
      </trkpt>
      <trkpt lat="44.30612" lon="2.86288">
        <ele>915</ele>
        <time>2005-10-02T11:47:22Z</time>
      </trkpt>
      <trkpt lat="44.30614" lon="2.8625">
        <ele>912</ele>
        <time>2005-10-02T11:47:26Z</time>
      </trkpt>
      <trkpt lat="44.30619" lon="2.86138">
        <ele>908</ele>
        <time>2005-10-02T11:47:38Z</time>
      </trkpt>
      <trkpt lat="44.3061" lon="2.86052">
        <ele>901</ele>
        <time>2005-10-02T11:47:45Z</time>
      </trkpt>
      <trkpt lat="44.30606" lon="2.8599">
        <ele>894</ele>
        <time>2005-10-02T11:47:49Z</time>
      </trkpt>
      <trkpt lat="44.30617" lon="2.85851">
        <ele>888</ele>
        <time>2005-10-02T11:47:57Z</time>
      </trkpt>
      <trkpt lat="44.30634" lon="2.85707">
        <ele>884</ele>
        <time>2005-10-02T11:48:07Z</time>
      </trkpt>
      <trkpt lat="44.30645" lon="2.85604">
        <ele>883</ele>
        <time>2005-10-02T11:48:15Z</time>
      </trkpt>
      <trkpt lat="44.3066" lon="2.85531">
        <ele>879</ele>
        <time>2005-10-02T11:48:23Z</time>
      </trkpt>
      <trkpt lat="44.30657" lon="2.85434">
        <ele>878</ele>
        <time>2005-10-02T11:48:36Z</time>
      </trkpt>
      <trkpt lat="44.30634" lon="2.85327">
        <ele>875</ele>
        <time>2005-10-02T11:48:51Z</time>
      </trkpt>
      <trkpt lat="44.30599" lon="2.85237">
        <ele>875</ele>
        <time>2005-10-02T11:49:03Z</time>
      </trkpt>
      <trkpt lat="44.30544" lon="2.85132">
        <ele>871</ele>
        <time>2005-10-02T11:49:17Z</time>
      </trkpt>
      <trkpt lat="44.30539" lon="2.8508">
        <ele>870</ele>
        <time>2005-10-02T11:49:23Z</time>
      </trkpt>
      <trkpt lat="44.30546" lon="2.85054">
        <ele>870</ele>
        <time>2005-10-02T11:49:26Z</time>
      </trkpt>
      <trkpt lat="44.30548" lon="2.84981">
        <ele>869</ele>
        <time>2005-10-02T11:49:36Z</time>
      </trkpt>
      <trkpt lat="44.30537" lon="2.84885">
        <ele>867</ele>
        <time>2005-10-02T11:49:51Z</time>
      </trkpt>
      <trkpt lat="44.30537" lon="2.84803">
        <ele>865</ele>
        <time>2005-10-02T11:50:03Z</time>
      </trkpt>
      <trkpt lat="44.30535" lon="2.8478">
        <ele>864</ele>
        <time>2005-10-02T11:50:06Z</time>
      </trkpt>
      <trkpt lat="44.30524" lon="2.84651">
        <ele>858</ele>
        <time>2005-10-02T11:50:22Z</time>
      </trkpt>
      <trkpt lat="44.30509" lon="2.84565">
        <ele>856</ele>
        <time>2005-10-02T11:50:33Z</time>
      </trkpt>
      <trkpt lat="44.30473" lon="2.84484">
        <ele>853</ele>
        <time>2005-10-02T11:50:45Z</time>
      </trkpt>
      <trkpt lat="44.30423" lon="2.84413">
        <ele>854</ele>
        <time>2005-10-02T11:50:57Z</time>
      </trkpt>
      <trkpt lat="44.30391" lon="2.84381">
        <ele>854</ele>
        <time>2005-10-02T11:51:04Z</time>
      </trkpt>
      <trkpt lat="44.30353" lon="2.84364">
        <ele>854</ele>
        <time>2005-10-02T11:51:11Z</time>
      </trkpt>
      <trkpt lat="44.30318" lon="2.84314">
        <ele>851</ele>
        <time>2005-10-02T11:51:18Z</time>
      </trkpt>
      <trkpt lat="44.30293" lon="2.84213">
        <ele>848</ele>
        <time>2005-10-02T11:51:29Z</time>
      </trkpt>
      <trkpt lat="44.30254" lon="2.84119">
        <ele>839</ele>
        <time>2005-10-02T11:51:38Z</time>
      </trkpt>
      <trkpt lat="44.302" lon="2.84009">
        <ele>828</ele>
        <time>2005-10-02T11:51:46Z</time>
      </trkpt>
      <trkpt lat="44.30147" lon="2.83932">
        <ele>824</ele>
        <time>2005-10-02T11:51:53Z</time>
      </trkpt>
      <trkpt lat="44.30102" lon="2.83879">
        <ele>815</ele>
        <time>2005-10-02T11:52:00Z</time>
      </trkpt>
      <trkpt lat="44.30054" lon="2.83793">
        <ele>806</ele>
        <time>2005-10-02T11:52:10Z</time>
      </trkpt>
      <trkpt lat="44.3005" lon="2.83784">
        <ele>806</ele>
        <time>2005-10-02T11:52:11Z</time>
      </trkpt>
      <trkpt lat="44.30046" lon="2.83726">
        <ele>805</ele>
        <time>2005-10-02T11:52:17Z</time>
      </trkpt>
      <trkpt lat="44.3005" lon="2.83722">
        <ele>801</ele>
        <time>2005-10-02T11:52:26Z</time>
      </trkpt>
      <trkpt lat="44.3005" lon="2.83728">
        <ele>800</ele>
        <time>2005-10-02T11:52:40Z</time>
      </trkpt>
      <trkpt lat="44.30054" lon="2.83733">
        <ele>802</ele>
        <time>2005-10-02T11:53:02Z</time>
      </trkpt>
      <trkpt lat="44.30065" lon="2.83741">
        <ele>798</ele>
        <time>2005-10-02T11:55:06Z</time>
      </trkpt>
      <trkpt lat="44.3005" lon="2.83726">
        <ele>798</ele>
        <time>2005-10-02T11:55:11Z</time>
      </trkpt>
      <trkpt lat="44.30007" lon="2.8372">
        <ele>798</ele>
        <time>2005-10-02T11:55:21Z</time>
      </trkpt>
      <trkpt lat="44.29971" lon="2.83741">
        <ele>793</ele>
        <time>2005-10-02T11:55:28Z</time>
      </trkpt>
      <trkpt lat="44.29911" lon="2.83784">
        <ele>786</ele>
        <time>2005-10-02T11:55:37Z</time>
      </trkpt>
      <trkpt lat="44.29904" lon="2.83788">
        <ele>784</ele>
        <time>2005-10-02T11:55:43Z</time>
      </trkpt>
      <trkpt lat="44.29906" lon="2.83793">
        <ele>783</ele>
        <time>2005-10-02T11:56:10Z</time>
      </trkpt>
      <trkpt lat="44.29898" lon="2.83795">
        <ele>778</ele>
        <time>2005-10-02T11:58:27Z</time>
      </trkpt>
      <trkpt lat="44.29874" lon="2.83793">
        <ele>775</ele>
        <time>2005-10-02T11:58:35Z</time>
      </trkpt>
      <trkpt lat="44.2984" lon="2.83778">
        <ele>772</ele>
        <time>2005-10-02T11:58:42Z</time>
      </trkpt>
      <trkpt lat="44.2981" lon="2.83726">
        <ele>767</ele>
        <time>2005-10-02T11:58:50Z</time>
      </trkpt>
      <trkpt lat="44.29829" lon="2.83643">
        <ele>765</ele>
        <time>2005-10-02T11:58:59Z</time>
      </trkpt>
      <trkpt lat="44.29883" lon="2.83507">
        <ele>763</ele>
        <time>2005-10-02T11:59:13Z</time>
      </trkpt>
      <trkpt lat="44.29891" lon="2.83488">
        <ele>762</ele>
        <time>2005-10-02T11:59:16Z</time>
      </trkpt>
      <trkpt lat="44.29883" lon="2.83484">
        <ele>762</ele>
        <time>2005-10-02T11:59:21Z</time>
      </trkpt>
      <trkpt lat="44.29878" lon="2.83488">
        <ele>762</ele>
        <time>2005-10-02T11:59:22Z</time>
      </trkpt>
      <trkpt lat="44.29818" lon="2.83531">
        <ele>757</ele>
        <time>2005-10-02T11:59:35Z</time>
      </trkpt>
      <trkpt lat="44.29726" lon="2.83597">
        <ele>756</ele>
        <time>2005-10-02T11:59:52Z</time>
      </trkpt>
      <trkpt lat="44.29709" lon="2.83608">
        <ele>756</ele>
        <time>2005-10-02T11:59:55Z</time>
      </trkpt>
      <trkpt lat="44.29679" lon="2.83589">
        <ele>754</ele>
        <time>2005-10-02T12:00:00Z</time>
      </trkpt>
      <trkpt lat="44.29623" lon="2.83531">
        <ele>751</ele>
        <time>2005-10-02T12:00:14Z</time>
      </trkpt>
      <trkpt lat="44.29606" lon="2.83516">
        <ele>751</ele>
        <time>2005-10-02T12:00:20Z</time>
      </trkpt>
      <trkpt lat="44.29597" lon="2.83527">
        <ele>750</ele>
        <time>2005-10-02T12:00:26Z</time>
      </trkpt>
      <trkpt lat="44.29593" lon="2.83533">
        <ele>748</ele>
        <time>2005-10-02T12:00:41Z</time>
      </trkpt>
      <trkpt lat="44.29591" lon="2.83535">
        <ele>751</ele>
        <time>2005-10-02T12:52:00Z</time>
      </trkpt>
      <trkpt lat="44.29591" lon="2.83537">
        <ele>751</ele>
        <time>2005-10-02T12:52:02Z</time>
      </trkpt>
      <trkpt lat="44.29597" lon="2.83537">
        <ele>751</ele>
        <time>2005-10-02T12:52:10Z</time>
      </trkpt>
      <trkpt lat="44.29593" lon="2.83542">
        <ele>751</ele>
        <time>2005-10-02T12:52:13Z</time>
      </trkpt>
      <trkpt lat="44.29576" lon="2.83546">
        <ele>754</ele>
        <time>2005-10-02T12:52:25Z</time>
      </trkpt>
      <trkpt lat="44.29557" lon="2.83552">
        <ele>758</ele>
        <time>2005-10-02T12:52:39Z</time>
      </trkpt>
      <trkpt lat="44.29542" lon="2.8358">
        <ele>760</ele>
        <time>2005-10-02T12:52:51Z</time>
      </trkpt>
      <trkpt lat="44.29529" lon="2.83634">
        <ele>763</ele>
        <time>2005-10-02T12:53:07Z</time>
      </trkpt>
      <trkpt lat="44.29516" lon="2.83711">
        <ele>764</ele>
        <time>2005-10-02T12:53:26Z</time>
      </trkpt>
      <trkpt lat="44.29518" lon="2.83758">
        <ele>765</ele>
        <time>2005-10-02T12:53:41Z</time>
      </trkpt>
      <trkpt lat="44.29531" lon="2.8381">
        <ele>769</ele>
        <time>2005-10-02T12:53:59Z</time>
      </trkpt>
      <trkpt lat="44.29539" lon="2.83855">
        <ele>771</ele>
        <time>2005-10-02T12:54:15Z</time>
      </trkpt>
      <trkpt lat="44.29546" lon="2.83904">
        <ele>771</ele>
        <time>2005-10-02T12:54:34Z</time>
      </trkpt>
      <trkpt lat="44.29554" lon="2.83945">
        <ele>770</ele>
        <time>2005-10-02T12:54:48Z</time>
      </trkpt>
      <trkpt lat="44.29576" lon="2.84003">
        <ele>769</ele>
        <time>2005-10-02T12:55:02Z</time>
      </trkpt>
      <trkpt lat="44.29569" lon="2.84031">
        <ele>769</ele>
        <time>2005-10-02T12:55:11Z</time>
      </trkpt>
      <trkpt lat="44.29563" lon="2.84039">
        <ele>768</ele>
        <time>2005-10-02T12:55:15Z</time>
      </trkpt>
      <trkpt lat="44.29535" lon="2.84048">
        <ele>770</ele>
        <time>2005-10-02T12:55:29Z</time>
      </trkpt>
      <trkpt lat="44.29512" lon="2.8405">
        <ele>773</ele>
        <time>2005-10-02T12:55:42Z</time>
      </trkpt>
      <trkpt lat="44.29479" lon="2.8405">
        <ele>778</ele>
        <time>2005-10-02T12:56:00Z</time>
      </trkpt>
      <trkpt lat="44.29462" lon="2.84048">
        <ele>781</ele>
        <time>2005-10-02T12:56:10Z</time>
      </trkpt>
      <trkpt lat="44.29441" lon="2.84048">
        <ele>786</ele>
        <time>2005-10-02T12:56:24Z</time>
      </trkpt>
      <trkpt lat="44.29419" lon="2.84052">
        <ele>788</ele>
        <time>2005-10-02T12:56:38Z</time>
      </trkpt>
      <trkpt lat="44.29398" lon="2.84059">
        <ele>793</ele>
        <time>2005-10-02T12:56:53Z</time>
      </trkpt>
      <trkpt lat="44.29374" lon="2.84065">
        <ele>796</ele>
        <time>2005-10-02T12:57:08Z</time>
      </trkpt>
      <trkpt lat="44.29351" lon="2.84076">
        <ele>799</ele>
        <time>2005-10-02T12:57:24Z</time>
      </trkpt>
      <trkpt lat="44.29327" lon="2.84082">
        <ele>802</ele>
        <time>2005-10-02T12:57:39Z</time>
      </trkpt>
      <trkpt lat="44.29299" lon="2.84089">
        <ele>806</ele>
        <time>2005-10-02T12:57:56Z</time>
      </trkpt>
      <trkpt lat="44.29271" lon="2.84085">
        <ele>809</ele>
        <time>2005-10-02T12:58:12Z</time>
      </trkpt>
      <trkpt lat="44.29245" lon="2.8408">
        <ele>811</ele>
        <time>2005-10-02T12:58:27Z</time>
      </trkpt>
      <trkpt lat="44.29215" lon="2.84089">
        <ele>813</ele>
        <time>2005-10-02T12:58:43Z</time>
      </trkpt>
      <trkpt lat="44.29179" lon="2.84102">
        <ele>817</ele>
        <time>2005-10-02T12:59:02Z</time>
      </trkpt>
      <trkpt lat="44.29149" lon="2.8411">
        <ele>817</ele>
        <time>2005-10-02T12:59:16Z</time>
      </trkpt>
      <trkpt lat="44.29117" lon="2.84121">
        <ele>824</ele>
        <time>2005-10-02T12:59:31Z</time>
      </trkpt>
      <trkpt lat="44.29087" lon="2.84132">
        <ele>822</ele>
        <time>2005-10-02T12:59:43Z</time>
      </trkpt>
      <trkpt lat="44.29037" lon="2.84149">
        <ele>816</ele>
        <time>2005-10-02T12:59:53Z</time>
      </trkpt>
      <trkpt lat="44.28984" lon="2.8417">
        <ele>811</ele>
        <time>2005-10-02T13:00:00Z</time>
      </trkpt>
      <trkpt lat="44.28853" lon="2.84185">
        <ele>809</ele>
        <time>2005-10-02T13:00:16Z</time>
      </trkpt>
      <trkpt lat="44.28814" lon="2.84192">
        <ele>808</ele>
        <time>2005-10-02T13:00:23Z</time>
      </trkpt>
      <trkpt lat="44.28769" lon="2.84196">
        <ele>807</ele>
        <time>2005-10-02T13:00:31Z</time>
      </trkpt>
      <trkpt lat="44.28713" lon="2.84188">
        <ele>807</ele>
        <time>2005-10-02T13:00:42Z</time>
      </trkpt>
      <trkpt lat="44.28673" lon="2.84175">
        <ele>808</ele>
        <time>2005-10-02T13:00:56Z</time>
      </trkpt>
      <trkpt lat="44.28632" lon="2.84185">
        <ele>809</ele>
        <time>2005-10-02T13:01:09Z</time>
      </trkpt>
      <trkpt lat="44.28572" lon="2.84218">
        <ele>811</ele>
        <time>2005-10-02T13:01:25Z</time>
      </trkpt>
      <trkpt lat="44.2855" lon="2.84282">
        <ele>811</ele>
        <time>2005-10-02T13:01:36Z</time>
      </trkpt>
      <trkpt lat="44.28537" lon="2.84344">
        <ele>810</ele>
        <time>2005-10-02T13:01:48Z</time>
      </trkpt>
      <trkpt lat="44.28535" lon="2.84348">
        <ele>810</ele>
        <time>2005-10-02T13:01:49Z</time>
      </trkpt>
      <trkpt lat="44.28524" lon="2.84364">
        <ele>811</ele>
        <time>2005-10-02T13:01:54Z</time>
      </trkpt>
      <trkpt lat="44.28507" lon="2.84379">
        <ele>813</ele>
        <time>2005-10-02T13:02:03Z</time>
      </trkpt>
      <trkpt lat="44.28501" lon="2.84374">
        <ele>813</ele>
        <time>2005-10-02T13:02:06Z</time>
      </trkpt>
      <trkpt lat="44.28475" lon="2.84338">
        <ele>817</ele>
        <time>2005-10-02T13:02:20Z</time>
      </trkpt>
      <trkpt lat="44.28456" lon="2.84284">
        <ele>821</ele>
        <time>2005-10-02T13:02:36Z</time>
      </trkpt>
      <trkpt lat="44.2843" lon="2.8423">
        <ele>822</ele>
        <time>2005-10-02T13:02:54Z</time>
      </trkpt>
      <trkpt lat="44.284" lon="2.84198">
        <ele>821</ele>
        <time>2005-10-02T13:03:09Z</time>
      </trkpt>
      <trkpt lat="44.28361" lon="2.84179">
        <ele>825</ele>
        <time>2005-10-02T13:03:25Z</time>
      </trkpt>
      <trkpt lat="44.28329" lon="2.84175">
        <ele>831</ele>
        <time>2005-10-02T13:03:39Z</time>
      </trkpt>
      <trkpt lat="44.28299" lon="2.84158">
        <ele>834</ele>
        <time>2005-10-02T13:03:52Z</time>
      </trkpt>
      <trkpt lat="44.28269" lon="2.84138">
        <ele>835</ele>
        <time>2005-10-02T13:04:08Z</time>
      </trkpt>
      <trkpt lat="44.28241" lon="2.84121">
        <ele>837</ele>
        <time>2005-10-02T13:04:23Z</time>
      </trkpt>
      <trkpt lat="44.28205" lon="2.84117">
        <ele>842</ele>
        <time>2005-10-02T13:04:42Z</time>
      </trkpt>
      <trkpt lat="44.28183" lon="2.84132">
        <ele>846</ele>
        <time>2005-10-02T13:04:54Z</time>
      </trkpt>
      <trkpt lat="44.28158" lon="2.84168">
        <ele>846</ele>
        <time>2005-10-02T13:05:11Z</time>
      </trkpt>
      <trkpt lat="44.28134" lon="2.84205">
        <ele>850</ele>
        <time>2005-10-02T13:05:28Z</time>
      </trkpt>
      <trkpt lat="44.28102" lon="2.84222">
        <ele>850</ele>
        <time>2005-10-02T13:05:42Z</time>
      </trkpt>
      <trkpt lat="44.28072" lon="2.84245">
        <ele>851</ele>
        <time>2005-10-02T13:05:56Z</time>
      </trkpt>
      <trkpt lat="44.28033" lon="2.84288">
        <ele>856</ele>
        <time>2005-10-02T13:06:13Z</time>
      </trkpt>
      <trkpt lat="44.27988" lon="2.84342">
        <ele>856</ele>
        <time>2005-10-02T13:06:31Z</time>
      </trkpt>
      <trkpt lat="44.27949" lon="2.84396">
        <ele>859</ele>
        <time>2005-10-02T13:06:50Z</time>
      </trkpt>
      <trkpt lat="44.27924" lon="2.84441">
        <ele>859</ele>
        <time>2005-10-02T13:07:03Z</time>
      </trkpt>
      <trkpt lat="44.27896" lon="2.84482">
        <ele>862</ele>
        <time>2005-10-02T13:07:17Z</time>
      </trkpt>
      <trkpt lat="44.27864" lon="2.84524">
        <ele>865</ele>
        <time>2005-10-02T13:07:34Z</time>
      </trkpt>
      <trkpt lat="44.27851" lon="2.84542">
        <ele>865</ele>
        <time>2005-10-02T13:07:42Z</time>
      </trkpt>
      <trkpt lat="44.27846" lon="2.84552">
        <ele>865</ele>
        <time>2005-10-02T13:07:45Z</time>
      </trkpt>
      <trkpt lat="44.27849" lon="2.84567">
        <ele>865</ele>
        <time>2005-10-02T13:07:48Z</time>
      </trkpt>
      <trkpt lat="44.2784" lon="2.84672">
        <ele>865</ele>
        <time>2005-10-02T13:08:08Z</time>
      </trkpt>
      <trkpt lat="44.2781" lon="2.84754">
        <ele>866</ele>
        <time>2005-10-02T13:08:26Z</time>
      </trkpt>
      <trkpt lat="44.27761" lon="2.84853">
        <ele>866</ele>
        <time>2005-10-02T13:08:48Z</time>
      </trkpt>
      <trkpt lat="44.27748" lon="2.84872">
        <ele>866</ele>
        <time>2005-10-02T13:08:52Z</time>
      </trkpt>
      <trkpt lat="44.27733" lon="2.84936">
        <ele>865</ele>
        <time>2005-10-02T13:09:00Z</time>
      </trkpt>
      <trkpt lat="44.27709" lon="2.84945">
        <ele>862</ele>
        <time>2005-10-02T13:09:06Z</time>
      </trkpt>
      <trkpt lat="44.27703" lon="2.84941">
        <ele>862</ele>
        <time>2005-10-02T13:09:07Z</time>
      </trkpt>
      <trkpt lat="44.27655" lon="2.84911">
        <ele>861</ele>
        <time>2005-10-02T13:09:16Z</time>
      </trkpt>
      <trkpt lat="44.27613" lon="2.84911">
        <ele>860</ele>
        <time>2005-10-02T13:09:23Z</time>
      </trkpt>
      <trkpt lat="44.27572" lon="2.84896">
        <ele>858</ele>
        <time>2005-10-02T13:09:32Z</time>
      </trkpt>
      <trkpt lat="44.27518" lon="2.84878">
        <ele>858</ele>
        <time>2005-10-02T13:09:44Z</time>
      </trkpt>
      <trkpt lat="44.27514" lon="2.84876">
        <ele>858</ele>
        <time>2005-10-02T13:09:45Z</time>
      </trkpt>
      <trkpt lat="44.27497" lon="2.84887">
        <ele>857</ele>
        <time>2005-10-02T13:09:49Z</time>
      </trkpt>
      <trkpt lat="44.27469" lon="2.84928">
        <ele>857</ele>
        <time>2005-10-02T13:09:56Z</time>
      </trkpt>
      <trkpt lat="44.27443" lon="2.84981">
        <ele>857</ele>
        <time>2005-10-02T13:10:04Z</time>
      </trkpt>
      <trkpt lat="44.27439" lon="2.84994">
        <ele>857</ele>
        <time>2005-10-02T13:10:06Z</time>
      </trkpt>
      <trkpt lat="44.27428" lon="2.85012">
        <ele>858</ele>
        <time>2005-10-02T13:10:09Z</time>
      </trkpt>
      <trkpt lat="44.27361" lon="2.85072">
        <ele>858</ele>
        <time>2005-10-02T13:10:24Z</time>
      </trkpt>
      <trkpt lat="44.27346" lon="2.85119">
        <ele>859</ele>
        <time>2005-10-02T13:10:37Z</time>
      </trkpt>
      <trkpt lat="44.2734" lon="2.85147">
        <ele>861</ele>
        <time>2005-10-02T13:10:46Z</time>
      </trkpt>
      <trkpt lat="44.27346" lon="2.85164">
        <ele>862</ele>
        <time>2005-10-02T13:10:49Z</time>
      </trkpt>
      <trkpt lat="44.27368" lon="2.85205">
        <ele>861</ele>
        <time>2005-10-02T13:10:55Z</time>
      </trkpt>
      <trkpt lat="44.27387" lon="2.8525">
        <ele>860</ele>
        <time>2005-10-02T13:11:01Z</time>
      </trkpt>
      <trkpt lat="44.27394" lon="2.85297">
        <ele>859</ele>
        <time>2005-10-02T13:11:05Z</time>
      </trkpt>
      <trkpt lat="44.2737" lon="2.85417">
        <ele>860</ele>
        <time>2005-10-02T13:11:15Z</time>
      </trkpt>
      <trkpt lat="44.27368" lon="2.85426">
        <ele>860</ele>
        <time>2005-10-02T13:11:16Z</time>
      </trkpt>
      <trkpt lat="44.27364" lon="2.85441">
        <ele>860</ele>
        <time>2005-10-02T13:11:18Z</time>
      </trkpt>
      <trkpt lat="44.27346" lon="2.85559">
        <ele>860</ele>
        <time>2005-10-02T13:11:33Z</time>
      </trkpt>
      <trkpt lat="44.27321" lon="2.85662">
        <ele>861</ele>
        <time>2005-10-02T13:11:48Z</time>
      </trkpt>
      <trkpt lat="44.27278" lon="2.85726">
        <ele>857</ele>
        <time>2005-10-02T13:11:59Z</time>
      </trkpt>
      <trkpt lat="44.27263" lon="2.85771">
        <ele>855</ele>
        <time>2005-10-02T13:12:03Z</time>
      </trkpt>
      <trkpt lat="44.27256" lon="2.85814">
        <ele>852</ele>
        <time>2005-10-02T13:12:06Z</time>
      </trkpt>
      <trkpt lat="44.27241" lon="2.85885">
        <ele>849</ele>
        <time>2005-10-02T13:12:11Z</time>
      </trkpt>
      <trkpt lat="44.27243" lon="2.85984">
        <ele>848</ele>
        <time>2005-10-02T13:12:17Z</time>
      </trkpt>
      <trkpt lat="44.27261" lon="2.86014">
        <ele>846</ele>
        <time>2005-10-02T13:12:22Z</time>
      </trkpt>
      <trkpt lat="44.27258" lon="2.8602">
        <ele>842</ele>
        <time>2005-10-02T13:12:27Z</time>
      </trkpt>
      <trkpt lat="44.27235" lon="2.86018">
        <ele>837</ele>
        <time>2005-10-02T13:12:40Z</time>
      </trkpt>
      <trkpt lat="44.27209" lon="2.86009">
        <ele>838</ele>
        <time>2005-10-02T13:12:55Z</time>
      </trkpt>
      <trkpt lat="44.2719" lon="2.86005">
        <ele>839</ele>
        <time>2005-10-02T13:13:08Z</time>
      </trkpt>
      <trkpt lat="44.27168" lon="2.86005">
        <ele>840</ele>
        <time>2005-10-02T13:13:21Z</time>
      </trkpt>
      <trkpt lat="44.27138" lon="2.86003">
        <ele>842</ele>
        <time>2005-10-02T13:13:38Z</time>
      </trkpt>
      <trkpt lat="44.27106" lon="2.86005">
        <ele>844</ele>
        <time>2005-10-02T13:13:55Z</time>
      </trkpt>
      <trkpt lat="44.27089" lon="2.86016">
        <ele>846</ele>
        <time>2005-10-02T13:14:06Z</time>
      </trkpt>
      <trkpt lat="44.27063" lon="2.86046">
        <ele>848</ele>
        <time>2005-10-02T13:14:25Z</time>
      </trkpt>
      <trkpt lat="44.27044" lon="2.86067">
        <ele>849</ele>
        <time>2005-10-02T13:14:37Z</time>
      </trkpt>
      <trkpt lat="44.2701" lon="2.86106">
        <ele>849</ele>
        <time>2005-10-02T13:14:56Z</time>
      </trkpt>
      <trkpt lat="44.26975" lon="2.86151">
        <ele>848</ele>
        <time>2005-10-02T13:15:11Z</time>
      </trkpt>
      <trkpt lat="44.2695" lon="2.862">
        <ele>845</ele>
        <time>2005-10-02T13:15:18Z</time>
      </trkpt>
      <trkpt lat="44.26907" lon="2.86275">
        <ele>846</ele>
        <time>2005-10-02T13:15:28Z</time>
      </trkpt>
      <trkpt lat="44.26887" lon="2.86303">
        <ele>847</ele>
        <time>2005-10-02T13:15:36Z</time>
      </trkpt>
      <trkpt lat="44.26864" lon="2.86325">
        <ele>848</ele>
        <time>2005-10-02T13:15:46Z</time>
      </trkpt>
      <trkpt lat="44.26814" lon="2.86333">
        <ele>853</ele>
        <time>2005-10-02T13:15:59Z</time>
      </trkpt>
      <trkpt lat="44.26754" lon="2.86327">
        <ele>851</ele>
        <time>2005-10-02T13:16:14Z</time>
      </trkpt>
      <trkpt lat="44.26744" lon="2.86327">
        <ele>851</ele>
        <time>2005-10-02T13:16:16Z</time>
      </trkpt>
      <trkpt lat="44.26703" lon="2.86359">
        <ele>851</ele>
        <time>2005-10-02T13:16:24Z</time>
      </trkpt>
      <trkpt lat="44.26679" lon="2.86385">
        <ele>850</ele>
        <time>2005-10-02T13:16:29Z</time>
      </trkpt>
      <trkpt lat="44.26671" lon="2.864">
        <ele>850</ele>
        <time>2005-10-02T13:16:31Z</time>
      </trkpt>
      <trkpt lat="44.26658" lon="2.86486">
        <ele>850</ele>
        <time>2005-10-02T13:16:42Z</time>
      </trkpt>
      <trkpt lat="44.26651" lon="2.86548">
        <ele>849</ele>
        <time>2005-10-02T13:16:54Z</time>
      </trkpt>
      <trkpt lat="44.26619" lon="2.86597">
        <ele>850</ele>
        <time>2005-10-02T13:17:09Z</time>
      </trkpt>
      <trkpt lat="44.26578" lon="2.86644">
        <ele>850</ele>
        <time>2005-10-02T13:17:25Z</time>
      </trkpt>
      <trkpt lat="44.26531" lon="2.86685">
        <ele>854</ele>
        <time>2005-10-02T13:17:41Z</time>
      </trkpt>
      <trkpt lat="44.2651" lon="2.86702">
        <ele>853</ele>
        <time>2005-10-02T13:17:50Z</time>
      </trkpt>
      <trkpt lat="44.26501" lon="2.86728">
        <ele>851</ele>
        <time>2005-10-02T13:17:57Z</time>
      </trkpt>
      <trkpt lat="44.26473" lon="2.86713">
        <ele>848</ele>
        <time>2005-10-02T13:18:04Z</time>
      </trkpt>
      <trkpt lat="44.2645" lon="2.86694">
        <ele>846</ele>
        <time>2005-10-02T13:18:09Z</time>
      </trkpt>
      <trkpt lat="44.26426" lon="2.86664">
        <ele>843</ele>
        <time>2005-10-02T13:18:14Z</time>
      </trkpt>
      <trkpt lat="44.26417" lon="2.86649">
        <ele>843</ele>
        <time>2005-10-02T13:18:16Z</time>
      </trkpt>
      <trkpt lat="44.26379" lon="2.86632">
        <ele>840</ele>
        <time>2005-10-02T13:18:22Z</time>
      </trkpt>
      <trkpt lat="44.26372" lon="2.86636">
        <ele>840</ele>
        <time>2005-10-02T13:18:23Z</time>
      </trkpt>
      <trkpt lat="44.26353" lon="2.86644">
        <ele>843</ele>
        <time>2005-10-02T13:18:26Z</time>
      </trkpt>
      <trkpt lat="44.2634" lon="2.86662">
        <ele>843</ele>
        <time>2005-10-02T13:18:30Z</time>
      </trkpt>
      <trkpt lat="44.26336" lon="2.86668">
        <ele>843</ele>
        <time>2005-10-02T13:18:32Z</time>
      </trkpt>
      <trkpt lat="44.26342" lon="2.86666">
        <ele>841</ele>
        <time>2005-10-02T13:18:38Z</time>
      </trkpt>
      <trkpt lat="44.2634" lon="2.86647">
        <ele>842</ele>
        <time>2005-10-02T13:18:43Z</time>
      </trkpt>
      <trkpt lat="44.26314" lon="2.86623">
        <ele>844</ele>
        <time>2005-10-02T13:18:55Z</time>
      </trkpt>
      <trkpt lat="44.26304" lon="2.86619">
        <ele>843</ele>
        <time>2005-10-02T13:18:59Z</time>
      </trkpt>
      <trkpt lat="44.26278" lon="2.86625">
        <ele>840</ele>
        <time>2005-10-02T13:19:04Z</time>
      </trkpt>
      <trkpt lat="44.26201" lon="2.86621">
        <ele>833</ele>
        <time>2005-10-02T13:19:13Z</time>
      </trkpt>
      <trkpt lat="44.26181" lon="2.86617">
        <ele>832</ele>
        <time>2005-10-02T13:19:15Z</time>
      </trkpt>
      <trkpt lat="44.26141" lon="2.86584">
        <ele>831</ele>
        <time>2005-10-02T13:19:20Z</time>
      </trkpt>
      <trkpt lat="44.26132" lon="2.86587">
        <ele>830</ele>
        <time>2005-10-02T13:19:21Z</time>
      </trkpt>
      <trkpt lat="44.26115" lon="2.86597">
        <ele>830</ele>
        <time>2005-10-02T13:19:24Z</time>
      </trkpt>
      <trkpt lat="44.26093" lon="2.86629">
        <ele>830</ele>
        <time>2005-10-02T13:19:30Z</time>
      </trkpt>
      <trkpt lat="44.26072" lon="2.86681">
        <ele>832</ele>
        <time>2005-10-02T13:19:41Z</time>
      </trkpt>
      <trkpt lat="44.26046" lon="2.86713">
        <ele>832</ele>
        <time>2005-10-02T13:19:57Z</time>
      </trkpt>
      <trkpt lat="44.26018" lon="2.86726">
        <ele>836</ele>
        <time>2005-10-02T13:20:15Z</time>
      </trkpt>
      <trkpt lat="44.25984" lon="2.86743">
        <ele>844</ele>
        <time>2005-10-02T13:20:40Z</time>
      </trkpt>
      <trkpt lat="44.25952" lon="2.86743">
        <ele>845</ele>
        <time>2005-10-02T13:21:04Z</time>
      </trkpt>
      <trkpt lat="44.2595" lon="2.86741">
        <ele>846</ele>
        <time>2005-10-02T13:21:15Z</time>
      </trkpt>
      <trkpt lat="44.25945" lon="2.86735">
        <ele>846</ele>
        <time>2005-10-02T13:21:20Z</time>
      </trkpt>
      <trkpt lat="44.25943" lon="2.86732">
        <ele>847</ele>
        <time>2005-10-02T13:21:34Z</time>
      </trkpt>
      <trkpt lat="44.2595" lon="2.8673">
        <ele>846</ele>
        <time>2005-10-02T13:22:25Z</time>
      </trkpt>
      <trkpt lat="44.2595" lon="2.86726">
        <ele>847</ele>
        <time>2005-10-02T13:22:54Z</time>
      </trkpt>
      <trkpt lat="44.25945" lon="2.86722">
        <ele>859</ele>
        <time>2005-10-02T13:23:51Z</time>
      </trkpt>
      <trkpt lat="44.25911" lon="2.86707">
        <ele>864</ele>
        <time>2005-10-02T13:24:10Z</time>
      </trkpt>
      <trkpt lat="44.25881" lon="2.86698">
        <ele>870</ele>
        <time>2005-10-02T13:24:26Z</time>
      </trkpt>
      <trkpt lat="44.25849" lon="2.86685">
        <ele>871</ele>
        <time>2005-10-02T13:24:44Z</time>
      </trkpt>
      <trkpt lat="44.25819" lon="2.86668">
        <ele>871</ele>
        <time>2005-10-02T13:25:06Z</time>
      </trkpt>
      <trkpt lat="44.25795" lon="2.86653">
        <ele>875</ele>
        <time>2005-10-02T13:25:24Z</time>
      </trkpt>
      <trkpt lat="44.25769" lon="2.8664">
        <ele>878</ele>
        <time>2005-10-02T13:25:41Z</time>
      </trkpt>
      <trkpt lat="44.25741" lon="2.8664">
        <ele>882</ele>
        <time>2005-10-02T13:25:55Z</time>
      </trkpt>
      <trkpt lat="44.25709" lon="2.86651">
        <ele>887</ele>
        <time>2005-10-02T13:26:12Z</time>
      </trkpt>
      <trkpt lat="44.25668" lon="2.86666">
        <ele>886</ele>
        <time>2005-10-02T13:26:34Z</time>
      </trkpt>
      <trkpt lat="44.25619" lon="2.86662">
        <ele>886</ele>
        <time>2005-10-02T13:26:56Z</time>
      </trkpt>
      <trkpt lat="44.25581" lon="2.86649">
        <ele>887</ele>
        <time>2005-10-02T13:27:15Z</time>
      </trkpt>
      <trkpt lat="44.25542" lon="2.86664">
        <ele>888</ele>
        <time>2005-10-02T13:27:33Z</time>
      </trkpt>
      <trkpt lat="44.2548" lon="2.86705">
        <ele>888</ele>
        <time>2005-10-02T13:28:01Z</time>
      </trkpt>
      <trkpt lat="44.25432" lon="2.86711">
        <ele>891</ele>
        <time>2005-10-02T13:28:18Z</time>
      </trkpt>
      <trkpt lat="44.25411" lon="2.86702">
        <ele>895</ele>
        <time>2005-10-02T13:28:29Z</time>
      </trkpt>
      <trkpt lat="44.25381" lon="2.86692">
        <ele>898</ele>
        <time>2005-10-02T13:28:48Z</time>
      </trkpt>
      <trkpt lat="44.25357" lon="2.8672">
        <ele>898</ele>
        <time>2005-10-02T13:29:04Z</time>
      </trkpt>
      <trkpt lat="44.25319" lon="2.86745">
        <ele>898</ele>
        <time>2005-10-02T13:29:22Z</time>
      </trkpt>
      <trkpt lat="44.25267" lon="2.86747">
        <ele>898</ele>
        <time>2005-10-02T13:29:49Z</time>
      </trkpt>
      <trkpt lat="44.25235" lon="2.86732">
        <ele>899</ele>
        <time>2005-10-02T13:30:08Z</time>
      </trkpt>
      <trkpt lat="44.25196" lon="2.86711">
        <ele>899</ele>
        <time>2005-10-02T13:30:33Z</time>
      </trkpt>
      <trkpt lat="44.25162" lon="2.86685">
        <ele>900</ele>
        <time>2005-10-02T13:30:55Z</time>
      </trkpt>
      <trkpt lat="44.25138" lon="2.86657">
        <ele>908</ele>
        <time>2005-10-02T13:31:12Z</time>
      </trkpt>
      <trkpt lat="44.25126" lon="2.86621">
        <ele>915</ele>
        <time>2005-10-02T13:31:34Z</time>
      </trkpt>
      <trkpt lat="44.25141" lon="2.86574">
        <ele>923</ele>
        <time>2005-10-02T13:31:56Z</time>
      </trkpt>
      <trkpt lat="44.25141" lon="2.86533">
        <ele>928</ele>
        <time>2005-10-02T13:32:14Z</time>
      </trkpt>
      <trkpt lat="44.25134" lon="2.86484">
        <ele>934</ele>
        <time>2005-10-02T13:32:36Z</time>
      </trkpt>
      <trkpt lat="44.25138" lon="2.86432">
        <ele>941</ele>
        <time>2005-10-02T13:32:47Z</time>
      </trkpt>
      <trkpt lat="44.25162" lon="2.86305">
        <ele>944</ele>
        <time>2005-10-02T13:33:11Z</time>
      </trkpt>
      <trkpt lat="44.25169" lon="2.86271">
        <ele>946</ele>
        <time>2005-10-02T13:33:19Z</time>
      </trkpt>
      <trkpt lat="44.25138" lon="2.8625">
        <ele>947</ele>
        <time>2005-10-02T13:33:33Z</time>
      </trkpt>
      <trkpt lat="44.25098" lon="2.86241">
        <ele>948</ele>
        <time>2005-10-02T13:33:49Z</time>
      </trkpt>
      <trkpt lat="44.25093" lon="2.86232">
        <ele>949</ele>
        <time>2005-10-02T13:33:53Z</time>
      </trkpt>
      <trkpt lat="44.25061" lon="2.86217">
        <ele>949</ele>
        <time>2005-10-02T13:34:05Z</time>
      </trkpt>
      <trkpt lat="44.25055" lon="2.86217">
        <ele>953</ele>
        <time>2005-10-02T13:34:13Z</time>
      </trkpt>
      <trkpt lat="44.25046" lon="2.86228">
        <ele>956</ele>
        <time>2005-10-02T13:35:51Z</time>
      </trkpt>
      <trkpt lat="44.25042" lon="2.86226">
        <ele>965</ele>
        <time>2005-10-02T13:36:22Z</time>
      </trkpt>
      <trkpt lat="44.25029" lon="2.86235">
        <ele>962</ele>
        <time>2005-10-02T13:36:27Z</time>
      </trkpt>
      <trkpt lat="44.24986" lon="2.86239">
        <ele>961</ele>
        <time>2005-10-02T13:36:40Z</time>
      </trkpt>
      <trkpt lat="44.24956" lon="2.86232">
        <ele>962</ele>
        <time>2005-10-02T13:36:48Z</time>
      </trkpt>
      <trkpt lat="44.24954" lon="2.86211">
        <ele>963</ele>
        <time>2005-10-02T13:36:57Z</time>
      </trkpt>
      <trkpt lat="44.24963" lon="2.86179">
        <ele>964</ele>
        <time>2005-10-02T13:37:12Z</time>
      </trkpt>
      <trkpt lat="44.24963" lon="2.86175">
        <ele>974</ele>
        <time>2005-10-02T13:37:41Z</time>
      </trkpt>
      <trkpt lat="44.24958" lon="2.8617">
        <ele>976</ele>
        <time>2005-10-02T13:40:03Z</time>
      </trkpt>
      <trkpt lat="44.24958" lon="2.86164">
        <ele>978</ele>
        <time>2005-10-02T13:40:17Z</time>
      </trkpt>
      <trkpt lat="44.2498" lon="2.86114">
        <ele>980</ele>
        <time>2005-10-02T13:40:42Z</time>
      </trkpt>
      <trkpt lat="44.25001" lon="2.86029">
        <ele>979</ele>
        <time>2005-10-02T13:41:05Z</time>
      </trkpt>
      <trkpt lat="44.25033" lon="2.85896">
        <ele>977</ele>
        <time>2005-10-02T13:41:29Z</time>
      </trkpt>
      <trkpt lat="44.25048" lon="2.85831">
        <ele>976</ele>
        <time>2005-10-02T13:41:47Z</time>
      </trkpt>
      <trkpt lat="44.25076" lon="2.85784">
        <ele>974</ele>
        <time>2005-10-02T13:41:57Z</time>
      </trkpt>
      <trkpt lat="44.25108" lon="2.85743">
        <ele>973</ele>
        <time>2005-10-02T13:42:07Z</time>
      </trkpt>
      <trkpt lat="44.25123" lon="2.85733">
        <ele>972</ele>
        <time>2005-10-02T13:42:10Z</time>
      </trkpt>
      <trkpt lat="44.2519" lon="2.85711">
        <ele>968</ele>
        <time>2005-10-02T13:42:20Z</time>
      </trkpt>
      <trkpt lat="44.25248" lon="2.85692">
        <ele>966</ele>
        <time>2005-10-02T13:42:29Z</time>
      </trkpt>
      <trkpt lat="44.25272" lon="2.85675">
        <ele>965</ele>
        <time>2005-10-02T13:42:33Z</time>
      </trkpt>
      <trkpt lat="44.25314" lon="2.85604">
        <ele>961</ele>
        <time>2005-10-02T13:42:42Z</time>
      </trkpt>
      <trkpt lat="44.25362" lon="2.85527">
        <ele>955</ele>
        <time>2005-10-02T13:42:52Z</time>
      </trkpt>
      <trkpt lat="44.25413" lon="2.85486">
        <ele>952</ele>
        <time>2005-10-02T13:42:59Z</time>
      </trkpt>
      <trkpt lat="44.25445" lon="2.85486">
        <ele>950</ele>
        <time>2005-10-02T13:43:03Z</time>
      </trkpt>
      <trkpt lat="44.25465" lon="2.85492">
        <ele>950</ele>
        <time>2005-10-02T13:43:06Z</time>
      </trkpt>
      <trkpt lat="44.25505" lon="2.85481">
        <ele>949</ele>
        <time>2005-10-02T13:43:14Z</time>
      </trkpt>
      <trkpt lat="44.2554" lon="2.85466">
        <ele>948</ele>
        <time>2005-10-02T13:43:19Z</time>
      </trkpt>
      <trkpt lat="44.25557" lon="2.85451">
        <ele>947</ele>
        <time>2005-10-02T13:43:22Z</time>
      </trkpt>
      <trkpt lat="44.25583" lon="2.85441">
        <ele>946</ele>
        <time>2005-10-02T13:43:26Z</time>
      </trkpt>
      <trkpt lat="44.25619" lon="2.85449">
        <ele>944</ele>
        <time>2005-10-02T13:43:32Z</time>
      </trkpt>
      <trkpt lat="44.25628" lon="2.85449">
        <ele>944</ele>
        <time>2005-10-02T13:43:34Z</time>
      </trkpt>
      <trkpt lat="44.25688" lon="2.85432">
        <ele>942</ele>
        <time>2005-10-02T13:43:48Z</time>
      </trkpt>
      <trkpt lat="44.25744" lon="2.85432">
        <ele>943</ele>
        <time>2005-10-02T13:44:06Z</time>
      </trkpt>
      <trkpt lat="44.25797" lon="2.85404">
        <ele>941</ele>
        <time>2005-10-02T13:44:26Z</time>
      </trkpt>
      <trkpt lat="44.25825" lon="2.85351">
        <ele>940</ele>
        <time>2005-10-02T13:44:40Z</time>
      </trkpt>
      <trkpt lat="44.25847" lon="2.85288">
        <ele>939</ele>
        <time>2005-10-02T13:44:52Z</time>
      </trkpt>
      <trkpt lat="44.25879" lon="2.85239">
        <ele>939</ele>
        <time>2005-10-02T13:45:04Z</time>
      </trkpt>
      <trkpt lat="44.25905" lon="2.85207">
        <ele>941</ele>
        <time>2005-10-02T13:45:17Z</time>
      </trkpt>
      <trkpt lat="44.25932" lon="2.85175">
        <ele>942</ele>
        <time>2005-10-02T13:45:33Z</time>
      </trkpt>
      <trkpt lat="44.25943" lon="2.85145">
        <ele>944</ele>
        <time>2005-10-02T13:45:44Z</time>
      </trkpt>
      <trkpt lat="44.25954" lon="2.851">
        <ele>945</ele>
        <time>2005-10-02T13:45:58Z</time>
      </trkpt>
      <trkpt lat="44.25982" lon="2.85031">
        <ele>945</ele>
        <time>2005-10-02T13:46:16Z</time>
      </trkpt>
      <trkpt lat="44.26005" lon="2.84977">
        <ele>943</ele>
        <time>2005-10-02T13:46:27Z</time>
      </trkpt>
      <trkpt lat="44.25992" lon="2.84947">
        <ele>942</ele>
        <time>2005-10-02T13:46:33Z</time>
      </trkpt>
      <trkpt lat="44.25922" lon="2.84924">
        <ele>941</ele>
        <time>2005-10-02T13:46:46Z</time>
      </trkpt>
      <trkpt lat="44.25874" lon="2.84913">
        <ele>944</ele>
        <time>2005-10-02T13:46:57Z</time>
      </trkpt>
      <trkpt lat="44.25834" lon="2.84921">
        <ele>948</ele>
        <time>2005-10-02T13:47:10Z</time>
      </trkpt>
      <trkpt lat="44.25789" lon="2.84926">
        <ele>950</ele>
        <time>2005-10-02T13:47:24Z</time>
      </trkpt>
      <trkpt lat="44.25722" lon="2.84932">
        <ele>951</ele>
        <time>2005-10-02T13:47:42Z</time>
      </trkpt>
      <trkpt lat="44.25664" lon="2.84941">
        <ele>955</ele>
        <time>2005-10-02T13:47:59Z</time>
      </trkpt>
      <trkpt lat="44.25611" lon="2.84949">
        <ele>956</ele>
        <time>2005-10-02T13:48:16Z</time>
      </trkpt>
      <trkpt lat="44.25557" lon="2.84962">
        <ele>956</ele>
        <time>2005-10-02T13:48:30Z</time>
      </trkpt>
      <trkpt lat="44.25553" lon="2.84962">
        <ele>956</ele>
        <time>2005-10-02T13:48:31Z</time>
      </trkpt>
      <trkpt lat="44.25486" lon="2.84981">
        <ele>960</ele>
        <time>2005-10-02T13:48:47Z</time>
      </trkpt>
      <trkpt lat="44.25456" lon="2.84973">
        <ele>962</ele>
        <time>2005-10-02T13:48:59Z</time>
      </trkpt>
      <trkpt lat="44.25428" lon="2.84956">
        <ele>965</ele>
        <time>2005-10-02T13:49:13Z</time>
      </trkpt>
      <trkpt lat="44.254" lon="2.84934">
        <ele>970</ele>
        <time>2005-10-02T13:49:28Z</time>
      </trkpt>
      <trkpt lat="44.25364" lon="2.84909">
        <ele>973</ele>
        <time>2005-10-02T13:49:44Z</time>
      </trkpt>
      <trkpt lat="44.25321" lon="2.84876">
        <ele>974</ele>
        <time>2005-10-02T13:49:59Z</time>
      </trkpt>
      <trkpt lat="44.25274" lon="2.8484">
        <ele>970</ele>
        <time>2005-10-02T13:50:08Z</time>
      </trkpt>
      <trkpt lat="44.25222" lon="2.84806">
        <ele>972</ele>
        <time>2005-10-02T13:50:18Z</time>
      </trkpt>
      <trkpt lat="44.25194" lon="2.84786">
        <ele>973</ele>
        <time>2005-10-02T13:50:30Z</time>
      </trkpt>
      <trkpt lat="44.25156" lon="2.84758">
        <ele>976</ele>
        <time>2005-10-02T13:50:45Z</time>
      </trkpt>
      <trkpt lat="44.25121" lon="2.84737">
        <ele>974</ele>
        <time>2005-10-02T13:50:55Z</time>
      </trkpt>
      <trkpt lat="44.25066" lon="2.84698">
        <ele>968</ele>
        <time>2005-10-02T13:51:04Z</time>
      </trkpt>
      <trkpt lat="44.25012" lon="2.8466">
        <ele>963</ele>
        <time>2005-10-02T13:51:12Z</time>
      </trkpt>
      <trkpt lat="44.24973" lon="2.8461">
        <ele>959</ele>
        <time>2005-10-02T13:51:18Z</time>
      </trkpt>
      <trkpt lat="44.2493" lon="2.84516">
        <ele>960</ele>
        <time>2005-10-02T13:51:28Z</time>
      </trkpt>
      <trkpt lat="44.24913" lon="2.84473">
        <ele>961</ele>
        <time>2005-10-02T13:51:37Z</time>
      </trkpt>
      <trkpt lat="44.24892" lon="2.84419">
        <ele>965</ele>
        <time>2005-10-02T13:51:51Z</time>
      </trkpt>
      <trkpt lat="44.2487" lon="2.84376">
        <ele>966</ele>
        <time>2005-10-02T13:52:04Z</time>
      </trkpt>
      <trkpt lat="44.24832" lon="2.84336">
        <ele>968</ele>
        <time>2005-10-02T13:52:19Z</time>
      </trkpt>
      <trkpt lat="44.24784" lon="2.84297">
        <ele>967</ele>
        <time>2005-10-02T13:52:32Z</time>
      </trkpt>
      <trkpt lat="44.24729" lon="2.8425">
        <ele>970</ele>
        <time>2005-10-02T13:52:47Z</time>
      </trkpt>
      <trkpt lat="44.24679" lon="2.84209">
        <ele>971</ele>
        <time>2005-10-02T13:53:04Z</time>
      </trkpt>
      <trkpt lat="44.24623" lon="2.84162">
        <ele>972</ele>
        <time>2005-10-02T13:53:21Z</time>
      </trkpt>
      <trkpt lat="44.24572" lon="2.84123">
        <ele>973</ele>
        <time>2005-10-02T13:53:34Z</time>
      </trkpt>
      <trkpt lat="44.24536" lon="2.84097">
        <ele>977</ele>
        <time>2005-10-02T13:53:47Z</time>
      </trkpt>
      <trkpt lat="44.24512" lon="2.84095">
        <ele>979</ele>
        <time>2005-10-02T13:53:58Z</time>
      </trkpt>
      <trkpt lat="44.24499" lon="2.8414">
        <ele>981</ele>
        <time>2005-10-02T13:54:12Z</time>
      </trkpt>
      <trkpt lat="44.2449" lon="2.84203">
        <ele>983</ele>
        <time>2005-10-02T13:54:27Z</time>
      </trkpt>
      <trkpt lat="44.2448" lon="2.84282">
        <ele>983</ele>
        <time>2005-10-02T13:54:42Z</time>
      </trkpt>
      <trkpt lat="44.24475" lon="2.84316">
        <ele>982</ele>
        <time>2005-10-02T13:54:47Z</time>
      </trkpt>
      <trkpt lat="44.24463" lon="2.8437">
        <ele>980</ele>
        <time>2005-10-02T13:54:53Z</time>
      </trkpt>
      <trkpt lat="44.24428" lon="2.84482">
        <ele>975</ele>
        <time>2005-10-02T13:55:02Z</time>
      </trkpt>
      <trkpt lat="44.24394" lon="2.8458">
        <ele>975</ele>
        <time>2005-10-02T13:55:10Z</time>
      </trkpt>
      <trkpt lat="44.24387" lon="2.84625">
        <ele>975</ele>
        <time>2005-10-02T13:55:15Z</time>
      </trkpt>
      <trkpt lat="44.24366" lon="2.84647">
        <ele>975</ele>
        <time>2005-10-02T13:55:21Z</time>
      </trkpt>
      <trkpt lat="44.24364" lon="2.84645">
        <ele>975</ele>
        <time>2005-10-02T13:55:22Z</time>
      </trkpt>
      <trkpt lat="44.24336" lon="2.84619">
        <ele>973</ele>
        <time>2005-10-02T13:55:32Z</time>
      </trkpt>
      <trkpt lat="44.24293" lon="2.84587">
        <ele>968</ele>
        <time>2005-10-02T13:55:41Z</time>
      </trkpt>
      <trkpt lat="44.2425" lon="2.84544">
        <ele>968</ele>
        <time>2005-10-02T13:55:50Z</time>
      </trkpt>
      <trkpt lat="44.24222" lon="2.84501">
        <ele>971</ele>
        <time>2005-10-02T13:56:01Z</time>
      </trkpt>
      <trkpt lat="44.24201" lon="2.84456">
        <ele>972</ele>
        <time>2005-10-02T13:56:14Z</time>
      </trkpt>
      <trkpt lat="44.24186" lon="2.8443">
        <ele>973</ele>
        <time>2005-10-02T13:56:23Z</time>
      </trkpt>
      <trkpt lat="44.24164" lon="2.84406">
        <ele>972</ele>
        <time>2005-10-02T13:56:31Z</time>
      </trkpt>
      <trkpt lat="44.24115" lon="2.84379">
        <ele>970</ele>
        <time>2005-10-02T13:56:40Z</time>
      </trkpt>
      <trkpt lat="44.24033" lon="2.84325">
        <ele>966</ele>
        <time>2005-10-02T13:56:51Z</time>
      </trkpt>
      <trkpt lat="44.23941" lon="2.84267">
        <ele>966</ele>
        <time>2005-10-02T13:57:02Z</time>
      </trkpt>
      <trkpt lat="44.23896" lon="2.84237">
        <ele>969</ele>
        <time>2005-10-02T13:57:10Z</time>
      </trkpt>
      <trkpt lat="44.23872" lon="2.8422">
        <ele>970</ele>
        <time>2005-10-02T13:57:19Z</time>
      </trkpt>
      <trkpt lat="44.2384" lon="2.84194">
        <ele>973</ele>
        <time>2005-10-02T13:57:34Z</time>
      </trkpt>
      <trkpt lat="44.23817" lon="2.84168">
        <ele>975</ele>
        <time>2005-10-02T13:57:46Z</time>
      </trkpt>
      <trkpt lat="44.23789" lon="2.84119">
        <ele>978</ele>
        <time>2005-10-02T13:58:00Z</time>
      </trkpt>
      <trkpt lat="44.23744" lon="2.84046">
        <ele>979</ele>
        <time>2005-10-02T13:58:16Z</time>
      </trkpt>
      <trkpt lat="44.23714" lon="2.83992">
        <ele>978</ele>
        <time>2005-10-02T13:58:28Z</time>
      </trkpt>
      <trkpt lat="44.23707" lon="2.83977">
        <ele>978</ele>
        <time>2005-10-02T13:58:31Z</time>
      </trkpt>
      <trkpt lat="44.23699" lon="2.83943">
        <ele>977</ele>
        <time>2005-10-02T13:58:37Z</time>
      </trkpt>
      <trkpt lat="44.23699" lon="2.83913">
        <ele>977</ele>
        <time>2005-10-02T13:58:42Z</time>
      </trkpt>
      <trkpt lat="44.23709" lon="2.83855">
        <ele>976</ele>
        <time>2005-10-02T13:58:52Z</time>
      </trkpt>
      <trkpt lat="44.23714" lon="2.83829">
        <ele>975</ele>
        <time>2005-10-02T13:58:56Z</time>
      </trkpt>
      <trkpt lat="44.23724" lon="2.83773">
        <ele>973</ele>
        <time>2005-10-02T13:59:05Z</time>
      </trkpt>
      <trkpt lat="44.23739" lon="2.83722">
        <ele>969</ele>
        <time>2005-10-02T13:59:13Z</time>
      </trkpt>
      <trkpt lat="44.23746" lon="2.8369">
        <ele>967</ele>
        <time>2005-10-02T13:59:17Z</time>
      </trkpt>
      <trkpt lat="44.23742" lon="2.83655">
        <ele>965</ele>
        <time>2005-10-02T13:59:21Z</time>
      </trkpt>
      <trkpt lat="44.23722" lon="2.83591">
        <ele>963</ele>
        <time>2005-10-02T13:59:28Z</time>
      </trkpt>
      <trkpt lat="44.23703" lon="2.83563">
        <ele>962</ele>
        <time>2005-10-02T13:59:32Z</time>
      </trkpt>
      <trkpt lat="44.2369" lon="2.83552">
        <ele>961</ele>
        <time>2005-10-02T13:59:34Z</time>
      </trkpt>
      <trkpt lat="44.23621" lon="2.83522">
        <ele>958</ele>
        <time>2005-10-02T13:59:43Z</time>
      </trkpt>
      <trkpt lat="44.23518" lon="2.83428">
        <ele>956</ele>
        <time>2005-10-02T13:59:58Z</time>
      </trkpt>
      <trkpt lat="44.23426" lon="2.83334">
        <ele>956</ele>
        <time>2005-10-02T14:00:12Z</time>
      </trkpt>
      <trkpt lat="44.23396" lon="2.8331">
        <ele>955</ele>
        <time>2005-10-02T14:00:17Z</time>
      </trkpt>
      <trkpt lat="44.23377" lon="2.83306">
        <ele>954</ele>
        <time>2005-10-02T14:00:21Z</time>
      </trkpt>
      <trkpt lat="44.2331" lon="2.83256">
        <ele>954</ele>
        <time>2005-10-02T14:00:35Z</time>
      </trkpt>
      <trkpt lat="44.23302" lon="2.83246">
        <ele>954</ele>
        <time>2005-10-02T14:00:37Z</time>
      </trkpt>
      <trkpt lat="44.23285" lon="2.83239">
        <ele>954</ele>
        <time>2005-10-02T14:00:41Z</time>
      </trkpt>
      <trkpt lat="44.23276" lon="2.83241">
        <ele>954</ele>
        <time>2005-10-02T14:00:43Z</time>
      </trkpt>
      <trkpt lat="44.23244" lon="2.8325">
        <ele>953</ele>
        <time>2005-10-02T14:00:51Z</time>
      </trkpt>
      <trkpt lat="44.23167" lon="2.8328">
        <ele>953</ele>
        <time>2005-10-02T14:01:06Z</time>
      </trkpt>
      <trkpt lat="44.23147" lon="2.83301">
        <ele>952</ele>
        <time>2005-10-02T14:01:10Z</time>
      </trkpt>
      <trkpt lat="44.23074" lon="2.83379">
        <ele>950</ele>
        <time>2005-10-02T14:01:25Z</time>
      </trkpt>
      <trkpt lat="44.23068" lon="2.83383">
        <ele>950</ele>
        <time>2005-10-02T14:01:26Z</time>
      </trkpt>
      <trkpt lat="44.23057" lon="2.83391">
        <ele>950</ele>
        <time>2005-10-02T14:01:28Z</time>
      </trkpt>
      <trkpt lat="44.22986" lon="2.83404">
        <ele>946</ele>
        <time>2005-10-02T14:01:38Z</time>
      </trkpt>
      <trkpt lat="44.22898" lon="2.83424">
        <ele>946</ele>
        <time>2005-10-02T14:01:51Z</time>
      </trkpt>
      <trkpt lat="44.22866" lon="2.83424">
        <ele>945</ele>
        <time>2005-10-02T14:01:56Z</time>
      </trkpt>
      <trkpt lat="44.22815" lon="2.83368">
        <ele>942</ele>
        <time>2005-10-02T14:02:04Z</time>
      </trkpt>
      <trkpt lat="44.22797" lon="2.8334">
        <ele>940</ele>
        <time>2005-10-02T14:02:07Z</time>
      </trkpt>
      <trkpt lat="44.22774" lon="2.83306">
        <ele>940</ele>
        <time>2005-10-02T14:02:12Z</time>
      </trkpt>
      <trkpt lat="44.2275" lon="2.83291">
        <ele>937</ele>
        <time>2005-10-02T14:02:16Z</time>
      </trkpt>
      <trkpt lat="44.22722" lon="2.83271">
        <ele>935</ele>
        <time>2005-10-02T14:02:21Z</time>
      </trkpt>
      <trkpt lat="44.22707" lon="2.8325">
        <ele>935</ele>
        <time>2005-10-02T14:02:25Z</time>
      </trkpt>
      <trkpt lat="44.22679" lon="2.83194">
        <ele>930</ele>
        <time>2005-10-02T14:02:34Z</time>
      </trkpt>
      <trkpt lat="44.22656" lon="2.83183">
        <ele>929</ele>
        <time>2005-10-02T14:02:39Z</time>
      </trkpt>
      <trkpt lat="44.22596" lon="2.83158">
        <ele>929</ele>
        <time>2005-10-02T14:02:50Z</time>
      </trkpt>
      <trkpt lat="44.22589" lon="2.83151">
        <ele>929</ele>
        <time>2005-10-02T14:02:52Z</time>
      </trkpt>
      <trkpt lat="44.22568" lon="2.83123">
        <ele>927</ele>
        <time>2005-10-02T14:03:00Z</time>
      </trkpt>
      <trkpt lat="44.22549" lon="2.83113">
        <ele>927</ele>
        <time>2005-10-02T14:03:05Z</time>
      </trkpt>
      <trkpt lat="44.22523" lon="2.83108">
        <ele>926</ele>
        <time>2005-10-02T14:03:09Z</time>
      </trkpt>
      <trkpt lat="44.22467" lon="2.83121">
        <ele>928</ele>
        <time>2005-10-02T14:03:18Z</time>
      </trkpt>
      <trkpt lat="44.22411" lon="2.83143">
        <ele>928</ele>
        <time>2005-10-02T14:03:28Z</time>
      </trkpt>
      <trkpt lat="44.22385" lon="2.83201">
        <ele>928</ele>
        <time>2005-10-02T14:03:35Z</time>
      </trkpt>
      <trkpt lat="44.22343" lon="2.83291">
        <ele>928</ele>
        <time>2005-10-02T14:03:45Z</time>
      </trkpt>
      <trkpt lat="44.22321" lon="2.83327">
        <ele>928</ele>
        <time>2005-10-02T14:03:49Z</time>
      </trkpt>
      <trkpt lat="44.22349" lon="2.83413">
        <ele>926</ele>
        <time>2005-10-02T14:03:53Z</time>
      </trkpt>
      <trkpt lat="44.22282" lon="2.83445">
        <ele>926</ele>
        <time>2005-10-02T14:04:04Z</time>
      </trkpt>
      <trkpt lat="44.22225" lon="2.83512">
        <ele>926</ele>
        <time>2005-10-02T14:04:13Z</time>
      </trkpt>
      <trkpt lat="44.22182" lon="2.83509">
        <ele>927</ele>
        <time>2005-10-02T14:04:20Z</time>
      </trkpt>
      <trkpt lat="44.22098" lon="2.83505">
        <ele>927</ele>
        <time>2005-10-02T14:04:32Z</time>
      </trkpt>
      <trkpt lat="44.22019" lon="2.83488">
        <ele>923</ele>
        <time>2005-10-02T14:04:49Z</time>
      </trkpt>
      <trkpt lat="44.21973" lon="2.83503">
        <ele>917</ele>
        <time>2005-10-02T14:05:04Z</time>
      </trkpt>
      <trkpt lat="44.21967" lon="2.83548">
        <ele>907</ele>
        <time>2005-10-02T14:05:19Z</time>
      </trkpt>
      <trkpt lat="44.21928" lon="2.83555">
        <ele>899</ele>
        <time>2005-10-02T14:05:34Z</time>
      </trkpt>
      <trkpt lat="44.21888" lon="2.83576">
        <ele>894</ele>
        <time>2005-10-02T14:05:51Z</time>
      </trkpt>
      <trkpt lat="44.21853" lon="2.83602">
        <ele>891</ele>
        <time>2005-10-02T14:06:02Z</time>
      </trkpt>
      <trkpt lat="44.21815" lon="2.836">
        <ele>886</ele>
        <time>2005-10-02T14:06:13Z</time>
      </trkpt>
      <trkpt lat="44.21791" lon="2.83597">
        <ele>885</ele>
        <time>2005-10-02T14:06:19Z</time>
      </trkpt>
      <trkpt lat="44.2178" lon="2.83608">
        <ele>885</ele>
        <time>2005-10-02T14:06:23Z</time>
      </trkpt>
      <trkpt lat="44.21774" lon="2.83675">
        <ele>885</ele>
        <time>2005-10-02T14:06:39Z</time>
      </trkpt>
      <trkpt lat="44.21778" lon="2.83707">
        <ele>882</ele>
        <time>2005-10-02T14:06:46Z</time>
      </trkpt>
      <trkpt lat="44.21813" lon="2.83763">
        <ele>880</ele>
        <time>2005-10-02T14:06:56Z</time>
      </trkpt>
      <trkpt lat="44.21817" lon="2.83808">
        <ele>879</ele>
        <time>2005-10-02T14:07:01Z</time>
      </trkpt>
      <trkpt lat="44.21804" lon="2.83823">
        <ele>877</ele>
        <time>2005-10-02T14:07:03Z</time>
      </trkpt>
      <trkpt lat="44.2174" lon="2.83857">
        <ele>874</ele>
        <time>2005-10-02T14:07:13Z</time>
      </trkpt>
      <trkpt lat="44.21675" lon="2.83866">
        <ele>872</ele>
        <time>2005-10-02T14:07:24Z</time>
      </trkpt>
      <trkpt lat="44.21656" lon="2.83883">
        <ele>871</ele>
        <time>2005-10-02T14:07:28Z</time>
      </trkpt>
      <trkpt lat="44.21645" lon="2.83898">
        <ele>871</ele>
        <time>2005-10-02T14:07:31Z</time>
      </trkpt>
      <trkpt lat="44.21637" lon="2.83921">
        <ele>871</ele>
        <time>2005-10-02T14:07:35Z</time>
      </trkpt>
      <trkpt lat="44.2163" lon="2.84001">
        <ele>869</ele>
        <time>2005-10-02T14:07:46Z</time>
      </trkpt>
      <trkpt lat="44.21654" lon="2.84074">
        <ele>866</ele>
        <time>2005-10-02T14:07:56Z</time>
      </trkpt>
      <trkpt lat="44.21658" lon="2.8408">
        <ele>866</ele>
        <time>2005-10-02T14:07:57Z</time>
      </trkpt>
      <trkpt lat="44.21669" lon="2.84145">
        <ele>864</ele>
        <time>2005-10-02T14:08:03Z</time>
      </trkpt>
      <trkpt lat="44.21667" lon="2.84155">
        <ele>863</ele>
        <time>2005-10-02T14:08:04Z</time>
      </trkpt>
      <trkpt lat="44.21662" lon="2.84179">
        <ele>863</ele>
        <time>2005-10-02T14:08:06Z</time>
      </trkpt>
      <trkpt lat="44.21643" lon="2.84237">
        <ele>863</ele>
        <time>2005-10-02T14:08:11Z</time>
      </trkpt>
      <trkpt lat="44.21624" lon="2.84278">
        <ele>863</ele>
        <time>2005-10-02T14:08:15Z</time>
      </trkpt>
      <trkpt lat="44.21613" lon="2.84288">
        <ele>862</ele>
        <time>2005-10-02T14:08:17Z</time>
      </trkpt>
      <trkpt lat="44.21592" lon="2.84291">
        <ele>860</ele>
        <time>2005-10-02T14:08:20Z</time>
      </trkpt>
      <trkpt lat="44.21557" lon="2.84276">
        <ele>857</ele>
        <time>2005-10-02T14:08:25Z</time>
      </trkpt>
      <trkpt lat="44.21544" lon="2.84267">
        <ele>856</ele>
        <time>2005-10-02T14:08:27Z</time>
      </trkpt>
      <trkpt lat="44.21521" lon="2.84211">
        <ele>853</ele>
        <time>2005-10-02T14:08:34Z</time>
      </trkpt>
      <trkpt lat="44.21519" lon="2.84175">
        <ele>852</ele>
        <time>2005-10-02T14:08:38Z</time>
      </trkpt>
      <trkpt lat="44.2154" lon="2.84132">
        <ele>850</ele>
        <time>2005-10-02T14:08:46Z</time>
      </trkpt>
      <trkpt lat="44.21544" lon="2.8413">
        <ele>848</ele>
        <time>2005-10-02T14:09:00Z</time>
      </trkpt>
      <trkpt lat="44.21544" lon="2.84132">
        <ele>849</ele>
        <time>2005-10-02T14:09:08Z</time>
      </trkpt>
      <trkpt lat="44.21559" lon="2.84158">
        <ele>848</ele>
        <time>2005-10-02T14:09:15Z</time>
      </trkpt>
      <trkpt lat="44.21585" lon="2.84136">
        <ele>847</ele>
        <time>2005-10-02T14:09:25Z</time>
      </trkpt>
      <trkpt lat="44.21583" lon="2.84117">
        <ele>848</ele>
        <time>2005-10-02T14:09:35Z</time>
      </trkpt>
      <trkpt lat="44.21585" lon="2.84127">
        <ele>841</ele>
        <time>2005-10-02T14:12:10Z</time>
      </trkpt>
      <trkpt lat="44.21585" lon="2.84134">
        <ele>842</ele>
        <time>2005-10-02T14:12:35Z</time>
      </trkpt>
      <trkpt lat="44.21576" lon="2.84145">
        <ele>842</ele>
        <time>2005-10-02T14:12:50Z</time>
      </trkpt>
      <trkpt lat="44.21572" lon="2.84147">
        <ele>842</ele>
        <time>2005-10-02T14:12:55Z</time>
      </trkpt>
      <trkpt lat="44.21557" lon="2.8413">
        <ele>843</ele>
        <time>2005-10-02T14:13:14Z</time>
      </trkpt>
      <trkpt lat="44.21551" lon="2.8411">
        <ele>844</ele>
        <time>2005-10-02T14:13:31Z</time>
      </trkpt>
      <trkpt lat="44.21544" lon="2.84093">
        <ele>843</ele>
        <time>2005-10-02T14:13:46Z</time>
      </trkpt>
      <trkpt lat="44.21536" lon="2.84072">
        <ele>843</ele>
        <time>2005-10-02T14:14:01Z</time>
      </trkpt>
      <trkpt lat="44.21495" lon="2.84018">
        <ele>844</ele>
        <time>2005-10-02T14:14:21Z</time>
      </trkpt>
      <trkpt lat="44.21493" lon="2.84016">
        <ele>845</ele>
        <time>2005-10-02T14:14:22Z</time>
      </trkpt>
      <trkpt lat="44.21476" lon="2.84027">
        <ele>846</ele>
        <time>2005-10-02T14:14:31Z</time>
      </trkpt>
      <trkpt lat="44.21476" lon="2.84031">
        <ele>846</ele>
        <time>2005-10-02T14:14:33Z</time>
      </trkpt>
      <trkpt lat="44.21476" lon="2.84078">
        <ele>850</ele>
        <time>2005-10-02T14:14:52Z</time>
      </trkpt>
      <trkpt lat="44.21474" lon="2.84106">
        <ele>853</ele>
        <time>2005-10-02T14:15:05Z</time>
      </trkpt>
      <trkpt lat="44.21471" lon="2.84136">
        <ele>854</ele>
        <time>2005-10-02T14:15:20Z</time>
      </trkpt>
      <trkpt lat="44.21454" lon="2.84179">
        <ele>858</ele>
        <time>2005-10-02T14:15:39Z</time>
      </trkpt>
      <trkpt lat="44.21435" lon="2.84205">
        <ele>858</ele>
        <time>2005-10-02T14:15:58Z</time>
      </trkpt>
      <trkpt lat="44.21405" lon="2.84237">
        <ele>858</ele>
        <time>2005-10-02T14:16:20Z</time>
      </trkpt>
      <trkpt lat="44.21373" lon="2.84301">
        <ele>858</ele>
        <time>2005-10-02T14:16:48Z</time>
      </trkpt>
      <trkpt lat="44.21364" lon="2.84458">
        <ele>860</ele>
        <time>2005-10-02T14:17:12Z</time>
      </trkpt>
      <trkpt lat="44.21358" lon="2.84505">
        <ele>861</ele>
        <time>2005-10-02T14:17:27Z</time>
      </trkpt>
      <trkpt lat="44.21358" lon="2.84501">
        <ele>866</ele>
        <time>2005-10-02T14:17:49Z</time>
      </trkpt>
      <trkpt lat="44.21355" lon="2.84501">
        <ele>869</ele>
        <time>2005-10-02T14:21:22Z</time>
      </trkpt>
      <trkpt lat="44.21338" lon="2.84535">
        <ele>869</ele>
        <time>2005-10-02T14:21:34Z</time>
      </trkpt>
      <trkpt lat="44.21308" lon="2.84595">
        <ele>869</ele>
        <time>2005-10-02T14:21:46Z</time>
      </trkpt>
      <trkpt lat="44.21287" lon="2.84642">
        <ele>869</ele>
        <time>2005-10-02T14:21:59Z</time>
      </trkpt>
      <trkpt lat="44.21285" lon="2.84645">
        <ele>872</ele>
        <time>2005-10-02T14:22:21Z</time>
      </trkpt>
      <trkpt lat="44.21287" lon="2.8464">
        <ele>869</ele>
        <time>2005-10-02T14:23:10Z</time>
      </trkpt>
      <trkpt lat="44.2128" lon="2.84653">
        <ele>865</ele>
        <time>2005-10-02T14:27:57Z</time>
      </trkpt>
      <trkpt lat="44.21257" lon="2.84683">
        <ele>872</ele>
        <time>2005-10-02T14:28:19Z</time>
      </trkpt>
      <trkpt lat="44.21248" lon="2.84696">
        <ele>871</ele>
        <time>2005-10-02T14:28:44Z</time>
      </trkpt>
      <trkpt lat="44.2124" lon="2.84713">
        <ele>871</ele>
        <time>2005-10-02T14:29:06Z</time>
      </trkpt>
      <trkpt lat="44.21227" lon="2.84728">
        <ele>869</ele>
        <time>2005-10-02T14:29:26Z</time>
      </trkpt>
      <trkpt lat="44.2122" lon="2.84752">
        <ele>868</ele>
        <time>2005-10-02T14:29:39Z</time>
      </trkpt>
      <trkpt lat="44.2122" lon="2.84793">
        <ele>866</ele>
        <time>2005-10-02T14:29:51Z</time>
      </trkpt>
      <trkpt lat="44.2121" lon="2.84853">
        <ele>867</ele>
        <time>2005-10-02T14:30:06Z</time>
      </trkpt>
      <trkpt lat="44.21207" lon="2.84861">
        <ele>866</ele>
        <time>2005-10-02T14:30:12Z</time>
      </trkpt>
      <trkpt lat="44.21203" lon="2.84874">
        <ele>865</ele>
        <time>2005-10-02T14:30:22Z</time>
      </trkpt>
      <trkpt lat="44.21188" lon="2.84917">
        <ele>866</ele>
        <time>2005-10-02T14:30:37Z</time>
      </trkpt>
      <trkpt lat="44.21156" lon="2.84999">
        <ele>866</ele>
        <time>2005-10-02T14:30:57Z</time>
      </trkpt>
      <trkpt lat="44.21115" lon="2.85072">
        <ele>865</ele>
        <time>2005-10-02T14:31:13Z</time>
      </trkpt>
      <trkpt lat="44.21059" lon="2.85138">
        <ele>864</ele>
        <time>2005-10-02T14:31:30Z</time>
      </trkpt>
      <trkpt lat="44.20984" lon="2.85179">
        <ele>864</ele>
        <time>2005-10-02T14:31:52Z</time>
      </trkpt>
      <trkpt lat="44.20939" lon="2.85168">
        <ele>867</ele>
        <time>2005-10-02T14:32:05Z</time>
      </trkpt>
      <trkpt lat="44.20877" lon="2.85151">
        <ele>870</ele>
        <time>2005-10-02T14:32:25Z</time>
      </trkpt>
      <trkpt lat="44.20832" lon="2.85121">
        <ele>869</ele>
        <time>2005-10-02T14:32:43Z</time>
      </trkpt>
      <trkpt lat="44.20793" lon="2.85097">
        <ele>874</ele>
        <time>2005-10-02T14:33:00Z</time>
      </trkpt>
      <trkpt lat="44.20738" lon="2.85076">
        <ele>879</ele>
        <time>2005-10-02T14:33:27Z</time>
      </trkpt>
      <trkpt lat="44.20703" lon="2.85048">
        <ele>877</ele>
        <time>2005-10-02T14:33:50Z</time>
      </trkpt>
      <trkpt lat="44.2068" lon="2.85007">
        <ele>883</ele>
        <time>2005-10-02T14:34:06Z</time>
      </trkpt>
      <trkpt lat="44.2068" lon="2.84964">
        <ele>886</ele>
        <time>2005-10-02T14:34:17Z</time>
      </trkpt>
      <trkpt lat="44.20701" lon="2.84911">
        <ele>890</ele>
        <time>2005-10-02T14:34:32Z</time>
      </trkpt>
      <trkpt lat="44.20727" lon="2.84851">
        <ele>895</ele>
        <time>2005-10-02T14:34:50Z</time>
      </trkpt>
      <trkpt lat="44.20727" lon="2.84812">
        <ele>895</ele>
        <time>2005-10-02T14:35:00Z</time>
      </trkpt>
      <trkpt lat="44.20714" lon="2.84801">
        <ele>895</ele>
        <time>2005-10-02T14:35:05Z</time>
      </trkpt>
      <trkpt lat="44.20671" lon="2.84799">
        <ele>900</ele>
        <time>2005-10-02T14:35:20Z</time>
      </trkpt>
      <trkpt lat="44.20639" lon="2.84782">
        <ele>903</ele>
        <time>2005-10-02T14:35:36Z</time>
      </trkpt>
      <trkpt lat="44.20602" lon="2.84771">
        <ele>905</ele>
        <time>2005-10-02T14:35:51Z</time>
      </trkpt>
      <trkpt lat="44.20598" lon="2.84769">
        <ele>905</ele>
        <time>2005-10-02T14:35:52Z</time>
      </trkpt>
      <trkpt lat="44.20566" lon="2.84752">
        <ele>908</ele>
        <time>2005-10-02T14:36:05Z</time>
      </trkpt>
      <trkpt lat="44.2054" lon="2.8472">
        <ele>911</ele>
        <time>2005-10-02T14:36:20Z</time>
      </trkpt>
      <trkpt lat="44.20514" lon="2.84655">
        <ele>914</ele>
        <time>2005-10-02T14:36:45Z</time>
      </trkpt>
      <trkpt lat="44.20497" lon="2.84606">
        <ele>920</ele>
        <time>2005-10-02T14:36:59Z</time>
      </trkpt>
      <trkpt lat="44.20469" lon="2.84587">
        <ele>921</ele>
        <time>2005-10-02T14:37:09Z</time>
      </trkpt>
      <trkpt lat="44.20433" lon="2.84589">
        <ele>922</ele>
        <time>2005-10-02T14:37:21Z</time>
      </trkpt>
      <trkpt lat="44.20383" lon="2.84619">
        <ele>920</ele>
        <time>2005-10-02T14:37:32Z</time>
      </trkpt>
      <trkpt lat="44.20358" lon="2.84632">
        <ele>919</ele>
        <time>2005-10-02T14:37:37Z</time>
      </trkpt>
      <trkpt lat="44.20291" lon="2.84627">
        <ele>918</ele>
        <time>2005-10-02T14:37:46Z</time>
      </trkpt>
      <trkpt lat="44.20283" lon="2.84627">
        <ele>918</ele>
        <time>2005-10-02T14:37:47Z</time>
      </trkpt>
      <trkpt lat="44.20261" lon="2.84606">
        <ele>915</ele>
        <time>2005-10-02T14:37:51Z</time>
      </trkpt>
      <trkpt lat="44.20231" lon="2.84604">
        <ele>912</ele>
        <time>2005-10-02T14:37:57Z</time>
      </trkpt>
      <trkpt lat="44.2022" lon="2.84615">
        <ele>912</ele>
        <time>2005-10-02T14:37:59Z</time>
      </trkpt>
      <trkpt lat="44.20192" lon="2.84615">
        <ele>911</ele>
        <time>2005-10-02T14:38:03Z</time>
      </trkpt>
      <trkpt lat="44.20177" lon="2.84617">
        <ele>911</ele>
        <time>2005-10-02T14:38:05Z</time>
      </trkpt>
      <trkpt lat="44.2016" lon="2.84651">
        <ele>911</ele>
        <time>2005-10-02T14:38:10Z</time>
      </trkpt>
      <trkpt lat="44.20167" lon="2.84692">
        <ele>911</ele>
        <time>2005-10-02T14:38:16Z</time>
      </trkpt>
      <trkpt lat="44.20171" lon="2.8472">
        <ele>910</ele>
        <time>2005-10-02T14:38:24Z</time>
      </trkpt>
      <trkpt lat="44.20158" lon="2.84778">
        <ele>910</ele>
        <time>2005-10-02T14:38:43Z</time>
      </trkpt>
      <trkpt lat="44.20145" lon="2.84836">
        <ele>914</ele>
        <time>2005-10-02T14:39:03Z</time>
      </trkpt>
      <trkpt lat="44.20126" lon="2.84898">
        <ele>919</ele>
        <time>2005-10-02T14:39:27Z</time>
      </trkpt>
      <trkpt lat="44.20128" lon="2.84947">
        <ele>919</ele>
        <time>2005-10-02T14:39:44Z</time>
      </trkpt>
      <trkpt lat="44.20147" lon="2.8502">
        <ele>919</ele>
        <time>2005-10-02T14:40:10Z</time>
      </trkpt>
      <trkpt lat="44.20162" lon="2.85078">
        <ele>925</ele>
        <time>2005-10-02T14:40:37Z</time>
      </trkpt>
      <trkpt lat="44.20171" lon="2.85123">
        <ele>929</ele>
        <time>2005-10-02T14:41:00Z</time>
      </trkpt>
      <trkpt lat="44.20141" lon="2.85222">
        <ele>929</ele>
        <time>2005-10-02T14:41:40Z</time>
      </trkpt>
      <trkpt lat="44.20124" lon="2.85256">
        <ele>932</ele>
        <time>2005-10-02T14:41:57Z</time>
      </trkpt>
      <trkpt lat="44.20115" lon="2.85288">
        <ele>957</ele>
        <time>2005-10-02T14:42:10Z</time>
      </trkpt>
      <trkpt lat="44.20117" lon="2.85293">
        <ele>957</ele>
        <time>2005-10-02T14:42:14Z</time>
      </trkpt>
      <trkpt lat="44.20109" lon="2.85325">
        <ele>957</ele>
        <time>2005-10-02T14:42:26Z</time>
      </trkpt>
      <trkpt lat="44.20085" lon="2.85393">
        <ele>958</ele>
        <time>2005-10-02T14:42:52Z</time>
      </trkpt>
      <trkpt lat="44.20092" lon="2.85411">
        <ele>961</ele>
        <time>2005-10-02T14:43:07Z</time>
      </trkpt>
      <trkpt lat="44.20066" lon="2.85434">
        <ele>961</ele>
        <time>2005-10-02T14:43:22Z</time>
      </trkpt>
      <trkpt lat="44.20044" lon="2.85447">
        <ele>962</ele>
        <time>2005-10-02T14:43:35Z</time>
      </trkpt>
      <trkpt lat="44.20008" lon="2.85464">
        <ele>961</ele>
        <time>2005-10-02T14:43:50Z</time>
      </trkpt>
      <trkpt lat="44.19993" lon="2.85475">
        <ele>961</ele>
        <time>2005-10-02T14:44:03Z</time>
      </trkpt>
      <trkpt lat="44.20017" lon="2.85475">
        <ele>966</ele>
        <time>2005-10-02T14:44:40Z</time>
      </trkpt>
      <trkpt lat="44.20014" lon="2.85499">
        <ele>965</ele>
        <time>2005-10-02T14:44:49Z</time>
      </trkpt>
      <trkpt lat="44.20014" lon="2.85507">
        <ele>965</ele>
        <time>2005-10-02T14:44:53Z</time>
      </trkpt>
      <trkpt lat="44.20002" lon="2.85518">
        <ele>965</ele>
        <time>2005-10-02T14:44:59Z</time>
      </trkpt>
      <trkpt lat="44.19997" lon="2.85518">
        <ele>965</ele>
        <time>2005-10-02T14:45:00Z</time>
      </trkpt>
      <trkpt lat="44.19984" lon="2.85494">
        <ele>962</ele>
        <time>2005-10-02T14:45:09Z</time>
      </trkpt>
      <trkpt lat="44.19967" lon="2.85473">
        <ele>960</ele>
        <time>2005-10-02T14:45:19Z</time>
      </trkpt>
      <trkpt lat="44.19959" lon="2.85458">
        <ele>960</ele>
        <time>2005-10-02T14:45:22Z</time>
      </trkpt>
      <trkpt lat="44.19946" lon="2.85436">
        <ele>960</ele>
        <time>2005-10-02T14:45:26Z</time>
      </trkpt>
      <trkpt lat="44.19939" lon="2.85419">
        <ele>960</ele>
        <time>2005-10-02T14:45:29Z</time>
      </trkpt>
      <trkpt lat="44.19924" lon="2.85428">
        <ele>959</ele>
        <time>2005-10-02T14:45:37Z</time>
      </trkpt>
      <trkpt lat="44.19924" lon="2.85451">
        <ele>956</ele>
        <time>2005-10-02T14:45:45Z</time>
      </trkpt>
      <trkpt lat="44.19924" lon="2.85449">
        <ele>956</ele>
        <time>2005-10-02T14:45:58Z</time>
      </trkpt>
      <trkpt lat="44.19922" lon="2.85447">
        <ele>956</ele>
        <time>2005-10-02T14:46:01Z</time>
      </trkpt>
      <trkpt lat="44.19907" lon="2.85434">
        <ele>953</ele>
        <time>2005-10-02T14:46:11Z</time>
      </trkpt>
      <trkpt lat="44.19875" lon="2.85432">
        <ele>954</ele>
        <time>2005-10-02T14:46:21Z</time>
      </trkpt>
      <trkpt lat="44.19826" lon="2.85449">
        <ele>954</ele>
        <time>2005-10-02T14:46:37Z</time>
      </trkpt>
      <trkpt lat="44.19802" lon="2.85499">
        <ele>955</ele>
        <time>2005-10-02T14:46:49Z</time>
      </trkpt>
      <trkpt lat="44.19774" lon="2.85582">
        <ele>957</ele>
        <time>2005-10-02T14:47:09Z</time>
      </trkpt>
      <trkpt lat="44.19746" lon="2.85649">
        <ele>962</ele>
        <time>2005-10-02T14:47:28Z</time>
      </trkpt>
      <trkpt lat="44.1971" lon="2.85709">
        <ele>965</ele>
        <time>2005-10-02T14:47:45Z</time>
      </trkpt>
      <trkpt lat="44.19677" lon="2.85754">
        <ele>968</ele>
        <time>2005-10-02T14:48:00Z</time>
      </trkpt>
      <trkpt lat="44.19632" lon="2.85801">
        <ele>970</ele>
        <time>2005-10-02T14:48:17Z</time>
      </trkpt>
      <trkpt lat="44.19587" lon="2.85846">
        <ele>973</ele>
        <time>2005-10-02T14:48:32Z</time>
      </trkpt>
      <trkpt lat="44.19532" lon="2.85902">
        <ele>974</ele>
        <time>2005-10-02T14:48:50Z</time>
      </trkpt>
      <trkpt lat="44.19491" lon="2.85936">
        <ele>976</ele>
        <time>2005-10-02T14:49:02Z</time>
      </trkpt>
      <trkpt lat="44.19461" lon="2.86003">
        <ele>977</ele>
        <time>2005-10-02T14:49:16Z</time>
      </trkpt>
      <trkpt lat="44.19439" lon="2.8608">
        <ele>975</ele>
        <time>2005-10-02T14:49:27Z</time>
      </trkpt>
      <trkpt lat="44.19403" lon="2.86196">
        <ele>973</ele>
        <time>2005-10-02T14:49:40Z</time>
      </trkpt>
      <trkpt lat="44.19401" lon="2.86202">
        <ele>973</ele>
        <time>2005-10-02T14:49:41Z</time>
      </trkpt>
      <trkpt lat="44.19394" lon="2.8622">
        <ele>972</ele>
        <time>2005-10-02T14:49:48Z</time>
      </trkpt>
      <trkpt lat="44.1939" lon="2.86224">
        <ele>973</ele>
        <time>2005-10-02T14:50:03Z</time>
      </trkpt>
      <trkpt lat="44.19388" lon="2.86232">
        <ele>973</ele>
        <time>2005-10-02T14:50:06Z</time>
      </trkpt>
      <trkpt lat="44.19364" lon="2.86299">
        <ele>973</ele>
        <time>2005-10-02T14:50:18Z</time>
      </trkpt>
      <trkpt lat="44.19334" lon="2.86368">
        <ele>973</ele>
        <time>2005-10-02T14:50:29Z</time>
      </trkpt>
      <trkpt lat="44.19272" lon="2.86449">
        <ele>971</ele>
        <time>2005-10-02T14:50:45Z</time>
      </trkpt>
      <trkpt lat="44.19193" lon="2.86556">
        <ele>972</ele>
        <time>2005-10-02T14:51:05Z</time>
      </trkpt>
      <trkpt lat="44.19128" lon="2.86636">
        <ele>971</ele>
        <time>2005-10-02T14:51:20Z</time>
      </trkpt>
      <trkpt lat="44.19066" lon="2.86713">
        <ele>971</ele>
        <time>2005-10-02T14:51:36Z</time>
      </trkpt>
      <trkpt lat="44.1901" lon="2.8678">
        <ele>969</ele>
        <time>2005-10-02T14:51:51Z</time>
      </trkpt>
      <trkpt lat="44.18967" lon="2.86823">
        <ele>970</ele>
        <time>2005-10-02T14:52:05Z</time>
      </trkpt>
      <trkpt lat="44.18946" lon="2.86829">
        <ele>971</ele>
        <time>2005-10-02T14:52:12Z</time>
      </trkpt>
      <trkpt lat="44.18877" lon="2.86808">
        <ele>971</ele>
        <time>2005-10-02T14:52:27Z</time>
      </trkpt>
      <trkpt lat="44.18783" lon="2.86752">
        <ele>971</ele>
        <time>2005-10-02T14:52:47Z</time>
      </trkpt>
      <trkpt lat="44.1872" lon="2.86711">
        <ele>971</ele>
        <time>2005-10-02T14:53:03Z</time>
      </trkpt>
      <trkpt lat="44.18675" lon="2.86696">
        <ele>971</ele>
        <time>2005-10-02T14:53:16Z</time>
      </trkpt>
      <trkpt lat="44.1857" lon="2.86692">
        <ele>971</ele>
        <time>2005-10-02T14:53:47Z</time>
      </trkpt>
      <trkpt lat="44.18519" lon="2.86687">
        <ele>972</ele>
        <time>2005-10-02T14:54:01Z</time>
      </trkpt>
      <trkpt lat="44.18461" lon="2.86681">
        <ele>973</ele>
        <time>2005-10-02T14:54:19Z</time>
      </trkpt>
      <trkpt lat="44.18461" lon="2.86685">
        <ele>973</ele>
        <time>2005-10-02T14:54:23Z</time>
      </trkpt>
      <trkpt lat="44.18459" lon="2.86679">
        <ele>973</ele>
        <time>2005-10-02T14:54:34Z</time>
      </trkpt>
      <trkpt lat="44.18454" lon="2.86677">
        <ele>974</ele>
        <time>2005-10-02T14:54:55Z</time>
      </trkpt>
      <trkpt lat="44.18448" lon="2.86681">
        <ele>974</ele>
        <time>2005-10-02T14:55:01Z</time>
      </trkpt>
      <trkpt lat="44.18446" lon="2.86683">
        <ele>974</ele>
        <time>2005-10-02T14:55:03Z</time>
      </trkpt>
      <trkpt lat="44.18439" lon="2.8669">
        <ele>974</ele>
        <time>2005-10-02T14:55:07Z</time>
      </trkpt>
      <trkpt lat="44.18399" lon="2.86722">
        <ele>973</ele>
        <time>2005-10-02T14:55:21Z</time>
      </trkpt>
      <trkpt lat="44.18369" lon="2.86754">
        <ele>973</ele>
        <time>2005-10-02T14:55:31Z</time>
      </trkpt>
      <trkpt lat="44.18315" lon="2.86773">
        <ele>971</ele>
        <time>2005-10-02T14:55:43Z</time>
      </trkpt>
      <trkpt lat="44.18255" lon="2.86793">
        <ele>967</ele>
        <time>2005-10-02T14:55:53Z</time>
      </trkpt>
      <trkpt lat="44.18158" lon="2.86827">
        <ele>961</ele>
        <time>2005-10-02T14:56:07Z</time>
      </trkpt>
      <trkpt lat="44.18133" lon="2.8682">
        <ele>960</ele>
        <time>2005-10-02T14:56:12Z</time>
      </trkpt>
      <trkpt lat="44.18133" lon="2.8682">
        <ele>959</ele>
        <time>2005-10-02T14:56:25Z</time>
      </trkpt>
      <trkpt lat="44.18135" lon="2.86818">
        <ele>960</ele>
        <time>2005-10-02T14:56:44Z</time>
      </trkpt>
      <trkpt lat="44.18122" lon="2.86825">
        <ele>960</ele>
        <time>2005-10-02T14:56:49Z</time>
      </trkpt>
      <trkpt lat="44.18081" lon="2.86855">
        <ele>957</ele>
        <time>2005-10-02T14:57:02Z</time>
      </trkpt>
      <trkpt lat="44.18045" lon="2.86868">
        <ele>956</ele>
        <time>2005-10-02T14:57:13Z</time>
      </trkpt>
      <trkpt lat="44.18034" lon="2.86874">
        <ele>956</ele>
        <time>2005-10-02T14:57:16Z</time>
      </trkpt>
      <trkpt lat="44.18012" lon="2.86883">
        <ele>955</ele>
        <time>2005-10-02T14:57:21Z</time>
      </trkpt>
      <trkpt lat="44.18002" lon="2.86893">
        <ele>955</ele>
        <time>2005-10-02T14:57:24Z</time>
      </trkpt>
      <trkpt lat="44.17974" lon="2.86934">
        <ele>956</ele>
        <time>2005-10-02T14:57:35Z</time>
      </trkpt>
      <trkpt lat="44.17933" lon="2.86962">
        <ele>954</ele>
        <time>2005-10-02T14:57:47Z</time>
      </trkpt>
      <trkpt lat="44.17847" lon="2.8702">
        <ele>952</ele>
        <time>2005-10-02T14:58:08Z</time>
      </trkpt>
      <trkpt lat="44.17783" lon="2.87065">
        <ele>949</ele>
        <time>2005-10-02T14:58:20Z</time>
      </trkpt>
      <trkpt lat="44.17776" lon="2.87069">
        <ele>949</ele>
        <time>2005-10-02T14:58:21Z</time>
      </trkpt>
      <trkpt lat="44.17695" lon="2.87095">
        <ele>948</ele>
        <time>2005-10-02T14:58:34Z</time>
      </trkpt>
      <trkpt lat="44.17684" lon="2.87067">
        <ele>948</ele>
        <time>2005-10-02T14:58:40Z</time>
      </trkpt>
      <trkpt lat="44.17684" lon="2.87063">
        <ele>948</ele>
        <time>2005-10-02T14:58:41Z</time>
      </trkpt>
      <trkpt lat="44.17701" lon="2.8699">
        <ele>948</ele>
        <time>2005-10-02T14:58:58Z</time>
      </trkpt>
      <trkpt lat="44.17708" lon="2.86908">
        <ele>947</ele>
        <time>2005-10-02T14:59:15Z</time>
      </trkpt>
      <trkpt lat="44.17693" lon="2.86793">
        <ele>947</ele>
        <time>2005-10-02T14:59:43Z</time>
      </trkpt>
      <trkpt lat="44.17682" lon="2.86709">
        <ele>947</ele>
        <time>2005-10-02T15:00:07Z</time>
      </trkpt>
      <trkpt lat="44.1765" lon="2.86649">
        <ele>947</ele>
        <time>2005-10-02T15:00:30Z</time>
      </trkpt>
      <trkpt lat="44.17371" lon="2.86614">
        <ele>947</ele>
        <time>2005-10-02T15:01:26Z</time>
      </trkpt>
      <trkpt lat="44.17218" lon="2.86552">
        <ele>947</ele>
        <time>2005-10-02T15:01:40Z</time>
      </trkpt>
      <trkpt lat="44.17184" lon="2.86539">
        <ele>947</ele>
        <time>2005-10-02T15:01:54Z</time>
      </trkpt>
      <trkpt lat="44.17075" lon="2.86456">
        <ele>947</ele>
        <time>2005-10-02T15:02:19Z</time>
      </trkpt>
      <trkpt lat="44.16976" lon="2.86411">
        <ele>943</ele>
        <time>2005-10-02T15:02:37Z</time>
      </trkpt>
      <trkpt lat="44.16888" lon="2.86404">
        <ele>941</ele>
        <time>2005-10-02T15:02:54Z</time>
      </trkpt>
      <trkpt lat="44.16809" lon="2.864">
        <ele>941</ele>
        <time>2005-10-02T15:03:11Z</time>
      </trkpt>
      <trkpt lat="44.16787" lon="2.86398">
        <ele>941</ele>
        <time>2005-10-02T15:03:16Z</time>
      </trkpt>
      <trkpt lat="44.1674" lon="2.86372">
        <ele>942</ele>
        <time>2005-10-02T15:03:29Z</time>
      </trkpt>
      <trkpt lat="44.16691" lon="2.86335">
        <ele>942</ele>
        <time>2005-10-02T15:03:42Z</time>
      </trkpt>
      <trkpt lat="44.16628" lon="2.86288">
        <ele>944</ele>
        <time>2005-10-02T15:03:57Z</time>
      </trkpt>
      <trkpt lat="44.16566" lon="2.86252">
        <ele>947</ele>
        <time>2005-10-02T15:04:13Z</time>
      </trkpt>
      <trkpt lat="44.1653" lon="2.86237">
        <ele>948</ele>
        <time>2005-10-02T15:04:24Z</time>
      </trkpt>
      <trkpt lat="44.16487" lon="2.86209">
        <ele>950</ele>
        <time>2005-10-02T15:04:38Z</time>
      </trkpt>
      <trkpt lat="44.16452" lon="2.86181">
        <ele>949</ele>
        <time>2005-10-02T15:04:51Z</time>
      </trkpt>
      <trkpt lat="44.16414" lon="2.86153">
        <ele>949</ele>
        <time>2005-10-02T15:05:03Z</time>
      </trkpt>
      <trkpt lat="44.16375" lon="2.86134">
        <ele>949</ele>
        <time>2005-10-02T15:05:15Z</time>
      </trkpt>
      <trkpt lat="44.16315" lon="2.86138">
        <ele>951</ele>
        <time>2005-10-02T15:05:29Z</time>
      </trkpt>
      <trkpt lat="44.1627" lon="2.86142">
        <ele>952</ele>
        <time>2005-10-02T15:05:40Z</time>
      </trkpt>
      <trkpt lat="44.16184" lon="2.86149">
        <ele>955</ele>
        <time>2005-10-02T15:05:59Z</time>
      </trkpt>
      <trkpt lat="44.16113" lon="2.86155">
        <ele>956</ele>
        <time>2005-10-02T15:06:15Z</time>
      </trkpt>
      <trkpt lat="44.16032" lon="2.86172">
        <ele>955</ele>
        <time>2005-10-02T15:06:31Z</time>
      </trkpt>
      <trkpt lat="44.1595" lon="2.86213">
        <ele>956</ele>
        <time>2005-10-02T15:06:47Z</time>
      </trkpt>
      <trkpt lat="44.15877" lon="2.86254">
        <ele>958</ele>
        <time>2005-10-02T15:07:02Z</time>
      </trkpt>
      <trkpt lat="44.15858" lon="2.86263">
        <ele>958</ele>
        <time>2005-10-02T15:07:06Z</time>
      </trkpt>
      <trkpt lat="44.15792" lon="2.86299">
        <ele>958</ele>
        <time>2005-10-02T15:07:20Z</time>
      </trkpt>
      <trkpt lat="44.1574" lon="2.86327">
        <ele>958</ele>
        <time>2005-10-02T15:07:30Z</time>
      </trkpt>
      <trkpt lat="44.15729" lon="2.86331">
        <ele>958</ele>
        <time>2005-10-02T15:07:32Z</time>
      </trkpt>
      <trkpt lat="44.15693" lon="2.86355">
        <ele>958</ele>
        <time>2005-10-02T15:07:40Z</time>
      </trkpt>
      <trkpt lat="44.15616" lon="2.86421">
        <ele>956</ele>
        <time>2005-10-02T15:07:56Z</time>
      </trkpt>
      <trkpt lat="44.15551" lon="2.86477">
        <ele>955</ele>
        <time>2005-10-02T15:08:10Z</time>
      </trkpt>
      <trkpt lat="44.15452" lon="2.86533">
        <ele>956</ele>
        <time>2005-10-02T15:08:30Z</time>
      </trkpt>
      <trkpt lat="44.15373" lon="2.8658">
        <ele>955</ele>
        <time>2005-10-02T15:08:48Z</time>
      </trkpt>
      <trkpt lat="44.15311" lon="2.86614">
        <ele>956</ele>
        <time>2005-10-02T15:09:05Z</time>
      </trkpt>
      <trkpt lat="44.15294" lon="2.86621">
        <ele>957</ele>
        <time>2005-10-02T15:09:11Z</time>
      </trkpt>
      <trkpt lat="44.15257" lon="2.86636">
        <ele>976</ele>
        <time>2005-10-02T15:27:02Z</time>
      </trkpt>
      <trkpt lat="44.15208" lon="2.86642">
        <ele>975</ele>
        <time>2005-10-02T15:27:26Z</time>
      </trkpt>
      <trkpt lat="44.15201" lon="2.86677">
        <ele>975</ele>
        <time>2005-10-02T15:29:25Z</time>
      </trkpt>
      <trkpt lat="44.15182" lon="2.86677">
        <ele>960</ele>
        <time>2005-10-02T15:29:29Z</time>
      </trkpt>
      <trkpt lat="44.15128" lon="2.86696">
        <ele>967</ele>
        <time>2005-10-02T15:29:44Z</time>
      </trkpt>
      <trkpt lat="44.15088" lon="2.86715">
        <ele>968</ele>
        <time>2005-10-02T15:29:57Z</time>
      </trkpt>
      <trkpt lat="44.15083" lon="2.86726">
        <ele>969</ele>
        <time>2005-10-02T15:30:07Z</time>
      </trkpt>
      <trkpt lat="44.15088" lon="2.86728">
        <ele>969</ele>
        <time>2005-10-02T15:30:16Z</time>
      </trkpt>
      <trkpt lat="44.15083" lon="2.86726">
        <ele>970</ele>
        <time>2005-10-02T15:32:03Z</time>
      </trkpt>
      <trkpt lat="44.15086" lon="2.86728">
        <ele>970</ele>
        <time>2005-10-02T15:32:09Z</time>
      </trkpt>
      <trkpt lat="44.15094" lon="2.86754">
        <ele>971</ele>
        <time>2005-10-02T15:32:21Z</time>
      </trkpt>
      <trkpt lat="44.15105" lon="2.86793">
        <ele>974</ele>
        <time>2005-10-02T15:32:36Z</time>
      </trkpt>
      <trkpt lat="44.15103" lon="2.86803">
        <ele>974</ele>
        <time>2005-10-02T15:32:40Z</time>
      </trkpt>
      <trkpt lat="44.1509" lon="2.86808">
        <ele>974</ele>
        <time>2005-10-02T15:32:46Z</time>
      </trkpt>
      <trkpt lat="44.15071" lon="2.86814">
        <ele>976</ele>
        <time>2005-10-02T15:33:00Z</time>
      </trkpt>
      <trkpt lat="44.15038" lon="2.86823">
        <ele>975</ele>
        <time>2005-10-02T15:33:23Z</time>
      </trkpt>
      <trkpt lat="44.14974" lon="2.86825">
        <ele>981</ele>
        <time>2005-10-02T15:33:56Z</time>
      </trkpt>
      <trkpt lat="44.14935" lon="2.86827">
        <ele>982</ele>
        <time>2005-10-02T15:34:16Z</time>
      </trkpt>
      <trkpt lat="44.14892" lon="2.8682">
        <ele>983</ele>
        <time>2005-10-02T15:34:39Z</time>
      </trkpt>
      <trkpt lat="44.14862" lon="2.86808">
        <ele>985</ele>
        <time>2005-10-02T15:34:58Z</time>
      </trkpt>
      <trkpt lat="44.14852" lon="2.86795">
        <ele>985</ele>
        <time>2005-10-02T15:35:27Z</time>
      </trkpt>
      <trkpt lat="44.14817" lon="2.86762">
        <ele>984</ele>
        <time>2005-10-02T15:35:44Z</time>
      </trkpt>
      <trkpt lat="44.14751" lon="2.86707">
        <ele>984</ele>
        <time>2005-10-02T15:36:18Z</time>
      </trkpt>
      <trkpt lat="44.14665" lon="2.86636">
        <ele>990</ele>
        <time>2005-10-02T15:36:57Z</time>
      </trkpt>
      <trkpt lat="44.14616" lon="2.86595">
        <ele>998</ele>
        <time>2005-10-02T15:37:17Z</time>
      </trkpt>
      <trkpt lat="44.14573" lon="2.86565">
        <ele>1009</ele>
        <time>2005-10-02T15:37:32Z</time>
      </trkpt>
      <trkpt lat="44.1453" lon="2.86539">
        <ele>1013</ele>
        <time>2005-10-02T15:37:47Z</time>
      </trkpt>
      <trkpt lat="44.14483" lon="2.86511">
        <ele>1014</ele>
        <time>2005-10-02T15:38:01Z</time>
      </trkpt>
      <trkpt lat="44.1442" lon="2.86496">
        <ele>1015</ele>
        <time>2005-10-02T15:38:18Z</time>
      </trkpt>
      <trkpt lat="44.14377" lon="2.86518">
        <ele>1018</ele>
        <time>2005-10-02T15:38:31Z</time>
      </trkpt>
      <trkpt lat="44.14332" lon="2.86556">
        <ele>1018</ele>
        <time>2005-10-02T15:38:46Z</time>
      </trkpt>
      <trkpt lat="44.14289" lon="2.86614">
        <ele>1018</ele>
        <time>2005-10-02T15:39:03Z</time>
      </trkpt>
      <trkpt lat="44.14251" lon="2.86674">
        <ele>1017</ele>
        <time>2005-10-02T15:39:18Z</time>
      </trkpt>
      <trkpt lat="44.14197" lon="2.86713">
        <ele>1018</ele>
        <time>2005-10-02T15:39:31Z</time>
      </trkpt>
      <trkpt lat="44.14156" lon="2.86743">
        <ele>1017</ele>
        <time>2005-10-02T15:39:42Z</time>
      </trkpt>
      <trkpt lat="44.14171" lon="2.86773">
        <ele>1021</ele>
        <time>2005-10-02T15:39:53Z</time>
      </trkpt>
      <trkpt lat="44.14197" lon="2.86812">
        <ele>1027</ele>
        <time>2005-10-02T15:40:10Z</time>
      </trkpt>
      <trkpt lat="44.14212" lon="2.86844">
        <ele>1031</ele>
        <time>2005-10-02T15:40:24Z</time>
      </trkpt>
      <trkpt lat="44.14244" lon="2.86887">
        <ele>1035</ele>
        <time>2005-10-02T15:40:46Z</time>
      </trkpt>
      <trkpt lat="44.14262" lon="2.86917">
        <ele>1039</ele>
        <time>2005-10-02T15:41:00Z</time>
      </trkpt>
      <trkpt lat="44.14277" lon="2.86938">
        <ele>1040</ele>
        <time>2005-10-02T15:41:12Z</time>
      </trkpt>
      <trkpt lat="44.14292" lon="2.86975">
        <ele>1043</ele>
        <time>2005-10-02T15:41:26Z</time>
      </trkpt>
      <trkpt lat="44.14311" lon="2.87009">
        <ele>1044</ele>
        <time>2005-10-02T15:41:40Z</time>
      </trkpt>
      <trkpt lat="44.1433" lon="2.87046">
        <ele>1047</ele>
        <time>2005-10-02T15:41:54Z</time>
      </trkpt>
      <trkpt lat="44.14347" lon="2.87076">
        <ele>1049</ele>
        <time>2005-10-02T15:42:06Z</time>
      </trkpt>
      <trkpt lat="44.14371" lon="2.87121">
        <ele>1052</ele>
        <time>2005-10-02T15:42:24Z</time>
      </trkpt>
      <trkpt lat="44.14388" lon="2.87159">
        <ele>1055</ele>
        <time>2005-10-02T15:42:38Z</time>
      </trkpt>
      <trkpt lat="44.14401" lon="2.87181">
        <ele>1056</ele>
        <time>2005-10-02T15:42:48Z</time>
      </trkpt>
      <trkpt lat="44.1442" lon="2.87159">
        <ele>1053</ele>
        <time>2005-10-02T15:42:58Z</time>
      </trkpt>
      <trkpt lat="44.14433" lon="2.87136">
        <ele>1053</ele>
        <time>2005-10-02T15:43:02Z</time>
      </trkpt>
      <trkpt lat="44.14474" lon="2.87071">
        <ele>1051</ele>
        <time>2005-10-02T15:43:16Z</time>
      </trkpt>
      <trkpt lat="44.14489" lon="2.87048">
        <ele>1052</ele>
        <time>2005-10-02T15:43:27Z</time>
      </trkpt>
      <trkpt lat="44.14508" lon="2.87018">
        <ele>1055</ele>
        <time>2005-10-02T15:43:41Z</time>
      </trkpt>
      <trkpt lat="44.14534" lon="2.87011">
        <ele>1058</ele>
        <time>2005-10-02T15:43:54Z</time>
      </trkpt>
      <trkpt lat="44.14571" lon="2.87018">
        <ele>1060</ele>
        <time>2005-10-02T15:44:08Z</time>
      </trkpt>
      <trkpt lat="44.14607" lon="2.87044">
        <ele>1063</ele>
        <time>2005-10-02T15:44:26Z</time>
      </trkpt>
      <trkpt lat="44.14635" lon="2.87086">
        <ele>1066</ele>
        <time>2005-10-02T15:44:43Z</time>
      </trkpt>
      <trkpt lat="44.14663" lon="2.87142">
        <ele>1066</ele>
        <time>2005-10-02T15:45:01Z</time>
      </trkpt>
      <trkpt lat="44.14697" lon="2.87209">
        <ele>1068</ele>
        <time>2005-10-02T15:45:23Z</time>
      </trkpt>
      <trkpt lat="44.14736" lon="2.87297">
        <ele>1068</ele>
        <time>2005-10-02T15:45:48Z</time>
      </trkpt>
      <trkpt lat="44.14764" lon="2.87346">
        <ele>1067</ele>
        <time>2005-10-02T15:46:05Z</time>
      </trkpt>
      <trkpt lat="44.14781" lon="2.87387">
        <ele>1068</ele>
        <time>2005-10-02T15:46:25Z</time>
      </trkpt>
      <trkpt lat="44.14792" lon="2.87423">
        <ele>1067</ele>
        <time>2005-10-02T15:46:40Z</time>
      </trkpt>
      <trkpt lat="44.14792" lon="2.87451">
        <ele>1068</ele>
        <time>2005-10-02T15:46:49Z</time>
      </trkpt>
      <trkpt lat="44.1477" lon="2.87479">
        <ele>1072</ele>
        <time>2005-10-02T15:47:00Z</time>
      </trkpt>
      <trkpt lat="44.14757" lon="2.87492">
        <ele>1073</ele>
        <time>2005-10-02T15:47:06Z</time>
      </trkpt>
      <trkpt lat="44.14768" lon="2.87526">
        <ele>1074</ele>
        <time>2005-10-02T15:47:18Z</time>
      </trkpt>
      <trkpt lat="44.14781" lon="2.87567">
        <ele>1074</ele>
        <time>2005-10-02T15:47:29Z</time>
      </trkpt>
      <trkpt lat="44.148" lon="2.87612">
        <ele>1074</ele>
        <time>2005-10-02T15:47:41Z</time>
      </trkpt>
      <trkpt lat="44.14826" lon="2.87683">
        <ele>1075</ele>
        <time>2005-10-02T15:47:57Z</time>
      </trkpt>
      <trkpt lat="44.14858" lon="2.87762">
        <ele>1075</ele>
        <time>2005-10-02T15:48:14Z</time>
      </trkpt>
      <trkpt lat="44.1489" lon="2.87831">
        <ele>1080</ele>
        <time>2005-10-02T15:48:28Z</time>
      </trkpt>
      <trkpt lat="44.14918" lon="2.87891">
        <ele>1086</ele>
        <time>2005-10-02T15:48:43Z</time>
      </trkpt>
      <trkpt lat="44.14942" lon="2.87936">
        <ele>1091</ele>
        <time>2005-10-02T15:48:57Z</time>
      </trkpt>
      <trkpt lat="44.14959" lon="2.87975">
        <ele>1094</ele>
        <time>2005-10-02T15:49:09Z</time>
      </trkpt>
      <trkpt lat="44.14983" lon="2.88011">
        <ele>1096</ele>
        <time>2005-10-02T15:49:22Z</time>
      </trkpt>
      <trkpt lat="44.15013" lon="2.8805">
        <ele>1097</ele>
        <time>2005-10-02T15:49:35Z</time>
      </trkpt>
      <trkpt lat="44.15049" lon="2.88101">
        <ele>1095</ele>
        <time>2005-10-02T15:49:50Z</time>
      </trkpt>
      <trkpt lat="44.15096" lon="2.88153">
        <ele>1095</ele>
        <time>2005-10-02T15:50:05Z</time>
      </trkpt>
      <trkpt lat="44.15152" lon="2.88213">
        <ele>1095</ele>
        <time>2005-10-02T15:50:22Z</time>
      </trkpt>
      <trkpt lat="44.15197" lon="2.88277">
        <ele>1096</ele>
        <time>2005-10-02T15:50:38Z</time>
      </trkpt>
      <trkpt lat="44.15227" lon="2.88333">
        <ele>1096</ele>
        <time>2005-10-02T15:50:52Z</time>
      </trkpt>
      <trkpt lat="44.15244" lon="2.88372">
        <ele>1096</ele>
        <time>2005-10-02T15:51:04Z</time>
      </trkpt>
      <trkpt lat="44.15264" lon="2.88425">
        <ele>1097</ele>
        <time>2005-10-02T15:51:18Z</time>
      </trkpt>
      <trkpt lat="44.15285" lon="2.88494">
        <ele>1101</ele>
        <time>2005-10-02T15:51:35Z</time>
      </trkpt>
      <trkpt lat="44.15302" lon="2.88558">
        <ele>1101</ele>
        <time>2005-10-02T15:51:50Z</time>
      </trkpt>
      <trkpt lat="44.15315" lon="2.88604">
        <ele>1100</ele>
        <time>2005-10-02T15:52:02Z</time>
      </trkpt>
      <trkpt lat="44.15328" lon="2.8864">
        <ele>1099</ele>
        <time>2005-10-02T15:52:12Z</time>
      </trkpt>
      <trkpt lat="44.1533" lon="2.88646">
        <ele>1099</ele>
        <time>2005-10-02T15:52:20Z</time>
      </trkpt>
      <trkpt lat="44.15332" lon="2.88646">
        <ele>1100</ele>
        <time>2005-10-02T15:53:28Z</time>
      </trkpt>
      <trkpt lat="44.15332" lon="2.88655">
        <ele>1099</ele>
        <time>2005-10-02T15:53:31Z</time>
      </trkpt>
      <trkpt lat="44.15334" lon="2.88666">
        <ele>1098</ele>
        <time>2005-10-02T15:53:33Z</time>
      </trkpt>
      <trkpt lat="44.15347" lon="2.88739">
        <ele>1091</ele>
        <time>2005-10-02T15:53:43Z</time>
      </trkpt>
      <trkpt lat="44.15371" lon="2.88861">
        <ele>1088</ele>
        <time>2005-10-02T15:53:55Z</time>
      </trkpt>
      <trkpt lat="44.15395" lon="2.88945">
        <ele>1084</ele>
        <time>2005-10-02T15:54:05Z</time>
      </trkpt>
      <trkpt lat="44.15401" lon="2.88949">
        <ele>1083</ele>
        <time>2005-10-02T15:54:12Z</time>
      </trkpt>
      <trkpt lat="44.15416" lon="2.88964">
        <ele>1080</ele>
        <time>2005-10-02T15:55:17Z</time>
      </trkpt>
      <trkpt lat="44.15433" lon="2.88988">
        <ele>1077</ele>
        <time>2005-10-02T15:55:22Z</time>
      </trkpt>
      <trkpt lat="44.15452" lon="2.89022">
        <ele>1073</ele>
        <time>2005-10-02T15:55:28Z</time>
      </trkpt>
      <trkpt lat="44.15504" lon="2.89091">
        <ele>1068</ele>
        <time>2005-10-02T15:55:38Z</time>
      </trkpt>
      <trkpt lat="44.15568" lon="2.89179">
        <ele>1066</ele>
        <time>2005-10-02T15:55:54Z</time>
      </trkpt>
      <trkpt lat="44.15628" lon="2.89267">
        <ele>1061</ele>
        <time>2005-10-02T15:56:09Z</time>
      </trkpt>
      <trkpt lat="44.15654" lon="2.89305">
        <ele>1060</ele>
        <time>2005-10-02T15:56:16Z</time>
      </trkpt>
      <trkpt lat="44.15665" lon="2.89312">
        <ele>1060</ele>
        <time>2005-10-02T15:56:18Z</time>
      </trkpt>
      <trkpt lat="44.15676" lon="2.89325">
        <ele>1059</ele>
        <time>2005-10-02T15:56:21Z</time>
      </trkpt>
      <trkpt lat="44.15686" lon="2.89342">
        <ele>1059</ele>
        <time>2005-10-02T15:56:25Z</time>
      </trkpt>
      <trkpt lat="44.15697" lon="2.89355">
        <ele>1059</ele>
        <time>2005-10-02T15:56:28Z</time>
      </trkpt>
      <trkpt lat="44.15714" lon="2.89365">
        <ele>1058</ele>
        <time>2005-10-02T15:56:32Z</time>
      </trkpt>
      <trkpt lat="44.15774" lon="2.89378">
        <ele>1060</ele>
        <time>2005-10-02T15:56:47Z</time>
      </trkpt>
      <trkpt lat="44.15856" lon="2.89387">
        <ele>1061</ele>
        <time>2005-10-02T15:57:08Z</time>
      </trkpt>
      <trkpt lat="44.15899" lon="2.89393">
        <ele>1063</ele>
        <time>2005-10-02T15:57:25Z</time>
      </trkpt>
      <trkpt lat="44.15922" lon="2.89408">
        <ele>1067</ele>
        <time>2005-10-02T15:57:39Z</time>
      </trkpt>
      <trkpt lat="44.15937" lon="2.89423">
        <ele>1069</ele>
        <time>2005-10-02T15:57:49Z</time>
      </trkpt>
      <trkpt lat="44.15952" lon="2.89438">
        <ele>1069</ele>
        <time>2005-10-02T15:57:59Z</time>
      </trkpt>
      <trkpt lat="44.15967" lon="2.89453">
        <ele>1072</ele>
        <time>2005-10-02T15:58:11Z</time>
      </trkpt>
      <trkpt lat="44.15989" lon="2.89468">
        <ele>1075</ele>
        <time>2005-10-02T15:58:25Z</time>
      </trkpt>
      <trkpt lat="44.1601" lon="2.89488">
        <ele>1077</ele>
        <time>2005-10-02T15:58:41Z</time>
      </trkpt>
      <trkpt lat="44.1603" lon="2.89505">
        <ele>1078</ele>
        <time>2005-10-02T15:58:53Z</time>
      </trkpt>
      <trkpt lat="44.16051" lon="2.89524">
        <ele>1082</ele>
        <time>2005-10-02T15:59:08Z</time>
      </trkpt>
      <trkpt lat="44.16075" lon="2.89546">
        <ele>1084</ele>
        <time>2005-10-02T15:59:25Z</time>
      </trkpt>
      <trkpt lat="44.16092" lon="2.89554">
        <ele>1086</ele>
        <time>2005-10-02T15:59:37Z</time>
      </trkpt>
      <trkpt lat="44.16105" lon="2.89558">
        <ele>1088</ele>
        <time>2005-10-02T15:59:47Z</time>
      </trkpt>
      <trkpt lat="44.16126" lon="2.89565">
        <ele>1091</ele>
        <time>2005-10-02T16:00:01Z</time>
      </trkpt>
      <trkpt lat="44.16158" lon="2.89582">
        <ele>1094</ele>
        <time>2005-10-02T16:00:17Z</time>
      </trkpt>
      <trkpt lat="44.16188" lon="2.89603">
        <ele>1097</ele>
        <time>2005-10-02T16:00:31Z</time>
      </trkpt>
      <trkpt lat="44.16212" lon="2.89623">
        <ele>1098</ele>
        <time>2005-10-02T16:00:43Z</time>
      </trkpt>
      <trkpt lat="44.16249" lon="2.89657">
        <ele>1099</ele>
        <time>2005-10-02T16:00:58Z</time>
      </trkpt>
      <trkpt lat="44.16283" lon="2.89709">
        <ele>1100</ele>
        <time>2005-10-02T16:01:11Z</time>
      </trkpt>
      <trkpt lat="44.16322" lon="2.89773">
        <ele>1097</ele>
        <time>2005-10-02T16:01:23Z</time>
      </trkpt>
      <trkpt lat="44.16373" lon="2.89842">
        <ele>1096</ele>
        <time>2005-10-02T16:01:35Z</time>
      </trkpt>
      <trkpt lat="44.16427" lon="2.89908">
        <ele>1098</ele>
        <time>2005-10-02T16:01:49Z</time>
      </trkpt>
      <trkpt lat="44.16491" lon="2.89996">
        <ele>1098</ele>
        <time>2005-10-02T16:02:06Z</time>
      </trkpt>
      <trkpt lat="44.16551" lon="2.9008">
        <ele>1097</ele>
        <time>2005-10-02T16:02:21Z</time>
      </trkpt>
      <trkpt lat="44.16562" lon="2.90097">
        <ele>1096</ele>
        <time>2005-10-02T16:02:24Z</time>
      </trkpt>
      <trkpt lat="44.16588" lon="2.90123">
        <ele>1094</ele>
        <time>2005-10-02T16:02:32Z</time>
      </trkpt>
      <trkpt lat="44.16605" lon="2.90144">
        <ele>1094</ele>
        <time>2005-10-02T16:02:46Z</time>
      </trkpt>
      <trkpt lat="44.16607" lon="2.90151">
        <ele>1094</ele>
        <time>2005-10-02T16:03:08Z</time>
      </trkpt>
      <trkpt lat="44.1662" lon="2.90166">
        <ele>1094</ele>
        <time>2005-10-02T16:03:16Z</time>
      </trkpt>
      <trkpt lat="44.16628" lon="2.90174">
        <ele>1094</ele>
        <time>2005-10-02T16:03:18Z</time>
      </trkpt>
      <trkpt lat="44.16667" lon="2.90226">
        <ele>1091</ele>
        <time>2005-10-02T16:03:28Z</time>
      </trkpt>
      <trkpt lat="44.16712" lon="2.90309">
        <ele>1091</ele>
        <time>2005-10-02T16:03:45Z</time>
      </trkpt>
      <trkpt lat="44.16776" lon="2.90404">
        <ele>1091</ele>
        <time>2005-10-02T16:04:07Z</time>
      </trkpt>
      <trkpt lat="44.16785" lon="2.90415">
        <ele>1091</ele>
        <time>2005-10-02T16:04:10Z</time>
      </trkpt>
      <trkpt lat="44.16809" lon="2.90438">
        <ele>1091</ele>
        <time>2005-10-02T16:04:16Z</time>
      </trkpt>
      <trkpt lat="44.16839" lon="2.90464">
        <ele>1090</ele>
        <time>2005-10-02T16:04:22Z</time>
      </trkpt>
      <trkpt lat="44.17002" lon="2.90651">
        <ele>1090</ele>
        <time>2005-10-02T16:04:49Z</time>
      </trkpt>
      <trkpt lat="44.17143" lon="2.90816">
        <ele>1090</ele>
        <time>2005-10-02T16:05:13Z</time>
      </trkpt>
      <trkpt lat="44.17257" lon="2.90921">
        <ele>1085</ele>
        <time>2005-10-02T16:05:36Z</time>
      </trkpt>
      <trkpt lat="44.17343" lon="2.90992">
        <ele>1084</ele>
        <time>2005-10-02T16:05:53Z</time>
      </trkpt>
      <trkpt lat="44.17487" lon="2.91086">
        <ele>1078</ele>
        <time>2005-10-02T16:06:15Z</time>
      </trkpt>
      <trkpt lat="44.17564" lon="2.91121">
        <ele>1075</ele>
        <time>2005-10-02T16:06:29Z</time>
      </trkpt>
      <trkpt lat="44.17635" lon="2.91142">
        <ele>1075</ele>
        <time>2005-10-02T16:06:46Z</time>
      </trkpt>
      <trkpt lat="44.17693" lon="2.91159">
        <ele>1076</ele>
        <time>2005-10-02T16:07:05Z</time>
      </trkpt>
      <trkpt lat="44.17751" lon="2.9117">
        <ele>1072</ele>
        <time>2005-10-02T16:07:24Z</time>
      </trkpt>
      <trkpt lat="44.17828" lon="2.912">
        <ele>1071</ele>
        <time>2005-10-02T16:07:49Z</time>
      </trkpt>
      <trkpt lat="44.17879" lon="2.91241">
        <ele>1069</ele>
        <time>2005-10-02T16:08:07Z</time>
      </trkpt>
      <trkpt lat="44.17901" lon="2.9129">
        <ele>1068</ele>
        <time>2005-10-02T16:08:20Z</time>
      </trkpt>
      <trkpt lat="44.17927" lon="2.91346">
        <ele>1066</ele>
        <time>2005-10-02T16:08:31Z</time>
      </trkpt>
      <trkpt lat="44.17952" lon="2.91414">
        <ele>1066</ele>
        <time>2005-10-02T16:08:42Z</time>
      </trkpt>
      <trkpt lat="44.17946" lon="2.91483">
        <ele>1063</ele>
        <time>2005-10-02T16:08:53Z</time>
      </trkpt>
      <trkpt lat="44.17937" lon="2.91505">
        <ele>1062</ele>
        <time>2005-10-02T16:08:57Z</time>
      </trkpt>
      <trkpt lat="44.1795" lon="2.91535">
        <ele>1060</ele>
        <time>2005-10-02T16:09:03Z</time>
      </trkpt>
      <trkpt lat="44.17974" lon="2.91567">
        <ele>1057</ele>
        <time>2005-10-02T16:09:15Z</time>
      </trkpt>
      <trkpt lat="44.17965" lon="2.91563">
        <ele>1054</ele>
        <time>2005-10-02T16:09:32Z</time>
      </trkpt>
      <trkpt lat="44.17954" lon="2.91563">
        <ele>1056</ele>
        <time>2005-10-02T16:15:09Z</time>
      </trkpt>
      <trkpt lat="44.17952" lon="2.91563">
        <ele>1059</ele>
        <time>2005-10-02T16:15:54Z</time>
      </trkpt>
      <trkpt lat="44.17959" lon="2.91569">
        <ele>1058</ele>
        <time>2005-10-02T16:16:35Z</time>
      </trkpt>
      <trkpt lat="44.17982" lon="2.91599">
        <ele>1055</ele>
        <time>2005-10-02T16:16:49Z</time>
      </trkpt>
      <trkpt lat="44.18019" lon="2.91651">
        <ele>1055</ele>
        <time>2005-10-02T16:17:08Z</time>
      </trkpt>
      <trkpt lat="44.18081" lon="2.91775">
        <ele>1054</ele>
        <time>2005-10-02T16:17:38Z</time>
      </trkpt>
      <trkpt lat="44.18186" lon="2.92">
        <ele>1057</ele>
        <time>2005-10-02T16:18:11Z</time>
      </trkpt>
      <trkpt lat="44.18242" lon="2.92073">
        <ele>1055</ele>
        <time>2005-10-02T16:18:26Z</time>
      </trkpt>
      <trkpt lat="44.18274" lon="2.92099">
        <ele>1054</ele>
        <time>2005-10-02T16:18:36Z</time>
      </trkpt>
      <trkpt lat="44.18332" lon="2.92086">
        <ele>1053</ele>
        <time>2005-10-02T16:18:54Z</time>
      </trkpt>
      <trkpt lat="44.18334" lon="2.92084">
        <ele>1054</ele>
        <time>2005-10-02T16:18:59Z</time>
      </trkpt>
      <trkpt lat="44.18334" lon="2.9209">
        <ele>1054</ele>
        <time>2005-10-02T16:19:03Z</time>
      </trkpt>
      <trkpt lat="44.18377" lon="2.9214">
        <ele>1054</ele>
        <time>2005-10-02T16:19:21Z</time>
      </trkpt>
      <trkpt lat="44.18442" lon="2.92198">
        <ele>1051</ele>
        <time>2005-10-02T16:19:37Z</time>
      </trkpt>
      <trkpt lat="44.18519" lon="2.92271">
        <ele>1048</ele>
        <time>2005-10-02T16:19:55Z</time>
      </trkpt>
      <trkpt lat="44.18581" lon="2.92376">
        <ele>1047</ele>
        <time>2005-10-02T16:20:13Z</time>
      </trkpt>
      <trkpt lat="44.18712" lon="2.92618">
        <ele>1047</ele>
        <time>2005-10-02T16:20:54Z</time>
      </trkpt>
      <trkpt lat="44.18753" lon="2.92618">
        <ele>1043</ele>
        <time>2005-10-02T16:20:59Z</time>
      </trkpt>
      <trkpt lat="44.18866" lon="2.92562">
        <ele>1040</ele>
        <time>2005-10-02T16:21:13Z</time>
      </trkpt>
      <trkpt lat="44.18907" lon="2.92511">
        <ele>1030</ele>
        <time>2005-10-02T16:21:26Z</time>
      </trkpt>
      <trkpt lat="44.1895" lon="2.92475">
        <ele>1023</ele>
        <time>2005-10-02T16:21:38Z</time>
      </trkpt>
      <trkpt lat="44.18959" lon="2.92468">
        <ele>1022</ele>
        <time>2005-10-02T16:21:41Z</time>
      </trkpt>
      <trkpt lat="44.18967" lon="2.9249">
        <ele>1020</ele>
        <time>2005-10-02T16:21:47Z</time>
      </trkpt>
      <trkpt lat="44.18967" lon="2.92494">
        <ele>1020</ele>
        <time>2005-10-02T16:21:48Z</time>
      </trkpt>
      <trkpt lat="44.18954" lon="2.92535">
        <ele>1020</ele>
        <time>2005-10-02T16:21:58Z</time>
      </trkpt>
      <trkpt lat="44.18922" lon="2.92573">
        <ele>1020</ele>
        <time>2005-10-02T16:22:11Z</time>
      </trkpt>
      <trkpt lat="44.1892" lon="2.92578">
        <ele>1020</ele>
        <time>2005-10-02T16:22:12Z</time>
      </trkpt>
      <trkpt lat="44.18926" lon="2.92584">
        <ele>1019</ele>
        <time>2005-10-02T16:22:17Z</time>
      </trkpt>
      <trkpt lat="44.18967" lon="2.92558">
        <ele>1017</ele>
        <time>2005-10-02T16:22:30Z</time>
      </trkpt>
      <trkpt lat="44.18997" lon="2.92545">
        <ele>1015</ele>
        <time>2005-10-02T16:22:38Z</time>
      </trkpt>
      <trkpt lat="44.19047" lon="2.92532">
        <ele>1015</ele>
        <time>2005-10-02T16:22:51Z</time>
      </trkpt>
      <trkpt lat="44.19094" lon="2.92528">
        <ele>1015</ele>
        <time>2005-10-02T16:23:05Z</time>
      </trkpt>
      <trkpt lat="44.1913" lon="2.9252">
        <ele>1016</ele>
        <time>2005-10-02T16:23:16Z</time>
      </trkpt>
      <trkpt lat="44.19178" lon="2.92494">
        <ele>1017</ele>
        <time>2005-10-02T16:23:29Z</time>
      </trkpt>
      <trkpt lat="44.1921" lon="2.92487">
        <ele>1018</ele>
        <time>2005-10-02T16:23:40Z</time>
      </trkpt>
      <trkpt lat="44.19235" lon="2.92492">
        <ele>1017</ele>
        <time>2005-10-02T16:23:48Z</time>
      </trkpt>
      <trkpt lat="44.19293" lon="2.9252">
        <ele>1015</ele>
        <time>2005-10-02T16:24:01Z</time>
      </trkpt>
      <trkpt lat="44.19323" lon="2.92541">
        <ele>1015</ele>
        <time>2005-10-02T16:24:09Z</time>
      </trkpt>
      <trkpt lat="44.19364" lon="2.92578">
        <ele>1017</ele>
        <time>2005-10-02T16:24:21Z</time>
      </trkpt>
      <trkpt lat="44.19409" lon="2.92638">
        <ele>1017</ele>
        <time>2005-10-02T16:24:35Z</time>
      </trkpt>
      <trkpt lat="44.19426" lon="2.92668">
        <ele>1014</ele>
        <time>2005-10-02T16:24:41Z</time>
      </trkpt>
      <trkpt lat="44.1945" lon="2.92706">
        <ele>1013</ele>
        <time>2005-10-02T16:24:48Z</time>
      </trkpt>
      <trkpt lat="44.1948" lon="2.92781">
        <ele>1008</ele>
        <time>2005-10-02T16:24:58Z</time>
      </trkpt>
      <trkpt lat="44.19487" lon="2.92799">
        <ele>1007</ele>
        <time>2005-10-02T16:25:00Z</time>
      </trkpt>
      <trkpt lat="44.19517" lon="2.92854">
        <ele>1003</ele>
        <time>2005-10-02T16:25:06Z</time>
      </trkpt>
      <trkpt lat="44.19538" lon="2.92968">
        <ele>996</ele>
        <time>2005-10-02T16:25:15Z</time>
      </trkpt>
      <trkpt lat="44.19566" lon="2.9308">
        <ele>992</ele>
        <time>2005-10-02T16:25:25Z</time>
      </trkpt>
      <trkpt lat="44.19594" lon="2.93133">
        <ele>993</ele>
        <time>2005-10-02T16:25:33Z</time>
      </trkpt>
      <trkpt lat="44.19626" lon="2.93163">
        <ele>996</ele>
        <time>2005-10-02T16:25:43Z</time>
      </trkpt>
      <trkpt lat="44.1966" lon="2.93178">
        <ele>998</ele>
        <time>2005-10-02T16:25:55Z</time>
      </trkpt>
      <trkpt lat="44.19703" lon="2.9318">
        <ele>999</ele>
        <time>2005-10-02T16:26:09Z</time>
      </trkpt>
      <trkpt lat="44.19746" lon="2.93168">
        <ele>1000</ele>
        <time>2005-10-02T16:26:22Z</time>
      </trkpt>
      <trkpt lat="44.19787" lon="2.93155">
        <ele>1000</ele>
        <time>2005-10-02T16:26:36Z</time>
      </trkpt>
      <trkpt lat="44.19843" lon="2.93138">
        <ele>998</ele>
        <time>2005-10-02T16:26:55Z</time>
      </trkpt>
      <trkpt lat="44.19888" lon="2.93123">
        <ele>997</ele>
        <time>2005-10-02T16:27:10Z</time>
      </trkpt>
      <trkpt lat="44.19937" lon="2.93099">
        <ele>997</ele>
        <time>2005-10-02T16:27:25Z</time>
      </trkpt>
      <trkpt lat="44.19971" lon="2.9309">
        <ele>997</ele>
        <time>2005-10-02T16:27:34Z</time>
      </trkpt>
      <trkpt lat="44.19984" lon="2.93095">
        <ele>996</ele>
        <time>2005-10-02T16:27:37Z</time>
      </trkpt>
      <trkpt lat="44.19999" lon="2.9311">
        <ele>996</ele>
        <time>2005-10-02T16:27:41Z</time>
      </trkpt>
      <trkpt lat="44.20042" lon="2.93204">
        <ele>999</ele>
        <time>2005-10-02T16:28:00Z</time>
      </trkpt>
      <trkpt lat="44.20055" lon="2.93228">
        <ele>1000</ele>
        <time>2005-10-02T16:28:05Z</time>
      </trkpt>
      <trkpt lat="44.20083" lon="2.93268">
        <ele>1004</ele>
        <time>2005-10-02T16:28:16Z</time>
      </trkpt>
      <trkpt lat="44.20105" lon="2.93307">
        <ele>1007</ele>
        <time>2005-10-02T16:28:29Z</time>
      </trkpt>
      <trkpt lat="44.20124" lon="2.93352">
        <ele>1011</ele>
        <time>2005-10-02T16:28:45Z</time>
      </trkpt>
      <trkpt lat="44.20139" lon="2.93384">
        <ele>1016</ele>
        <time>2005-10-02T16:29:00Z</time>
      </trkpt>
      <trkpt lat="44.20143" lon="2.93391">
        <ele>1017</ele>
        <time>2005-10-02T16:29:03Z</time>
      </trkpt>
      <trkpt lat="44.2015" lon="2.93397">
        <ele>1018</ele>
        <time>2005-10-02T16:29:08Z</time>
      </trkpt>
      <trkpt lat="44.20171" lon="2.93414">
        <ele>1021</ele>
        <time>2005-10-02T16:29:22Z</time>
      </trkpt>
      <trkpt lat="44.20192" lon="2.93421">
        <ele>1022</ele>
        <time>2005-10-02T16:29:35Z</time>
      </trkpt>
      <trkpt lat="44.20216" lon="2.93423">
        <ele>1024</ele>
        <time>2005-10-02T16:29:48Z</time>
      </trkpt>
      <trkpt lat="44.20235" lon="2.93417">
        <ele>1026</ele>
        <time>2005-10-02T16:30:00Z</time>
      </trkpt>
      <trkpt lat="44.20259" lon="2.93406">
        <ele>1029</ele>
        <time>2005-10-02T16:30:15Z</time>
      </trkpt>
      <trkpt lat="44.20285" lon="2.93382">
        <ele>1032</ele>
        <time>2005-10-02T16:30:33Z</time>
      </trkpt>
      <trkpt lat="44.20306" lon="2.9335">
        <ele>1037</ele>
        <time>2005-10-02T16:30:50Z</time>
      </trkpt>
      <trkpt lat="44.20321" lon="2.93314">
        <ele>1041</ele>
        <time>2005-10-02T16:31:06Z</time>
      </trkpt>
      <trkpt lat="44.20332" lon="2.93273">
        <ele>1042</ele>
        <time>2005-10-02T16:31:22Z</time>
      </trkpt>
      <trkpt lat="44.20338" lon="2.93234">
        <ele>1043</ele>
        <time>2005-10-02T16:31:36Z</time>
      </trkpt>
      <trkpt lat="44.20347" lon="2.93198">
        <ele>1041</ele>
        <time>2005-10-02T16:31:48Z</time>
      </trkpt>
      <trkpt lat="44.20373" lon="2.93153">
        <ele>1038</ele>
        <time>2005-10-02T16:31:57Z</time>
      </trkpt>
      <trkpt lat="44.20435" lon="2.93086">
        <ele>1034</ele>
        <time>2005-10-02T16:32:10Z</time>
      </trkpt>
      <trkpt lat="44.20467" lon="2.93088">
        <ele>1033</ele>
        <time>2005-10-02T16:32:16Z</time>
      </trkpt>
      <trkpt lat="44.20482" lon="2.93101">
        <ele>1033</ele>
        <time>2005-10-02T16:32:20Z</time>
      </trkpt>
      <trkpt lat="44.20501" lon="2.93114">
        <ele>1035</ele>
        <time>2005-10-02T16:32:25Z</time>
      </trkpt>
      <trkpt lat="44.20538" lon="2.93131">
        <ele>1036</ele>
        <time>2005-10-02T16:32:37Z</time>
      </trkpt>
      <trkpt lat="44.20579" lon="2.93146">
        <ele>1039</ele>
        <time>2005-10-02T16:32:52Z</time>
      </trkpt>
      <trkpt lat="44.20615" lon="2.93161">
        <ele>1042</ele>
        <time>2005-10-02T16:33:07Z</time>
      </trkpt>
      <trkpt lat="44.20652" lon="2.93176">
        <ele>1045</ele>
        <time>2005-10-02T16:33:24Z</time>
      </trkpt>
      <trkpt lat="44.2068" lon="2.93187">
        <ele>1047</ele>
        <time>2005-10-02T16:33:39Z</time>
      </trkpt>
      <trkpt lat="44.2071" lon="2.932">
        <ele>1050</ele>
        <time>2005-10-02T16:33:53Z</time>
      </trkpt>
      <trkpt lat="44.20731" lon="2.93208">
        <ele>1052</ele>
        <time>2005-10-02T16:34:05Z</time>
      </trkpt>
      <trkpt lat="44.20761" lon="2.93221">
        <ele>1056</ele>
        <time>2005-10-02T16:34:21Z</time>
      </trkpt>
      <trkpt lat="44.2078" lon="2.93238">
        <ele>1058</ele>
        <time>2005-10-02T16:34:33Z</time>
      </trkpt>
      <trkpt lat="44.20806" lon="2.93275">
        <ele>1060</ele>
        <time>2005-10-02T16:34:50Z</time>
      </trkpt>
      <trkpt lat="44.20832" lon="2.93316">
        <ele>1059</ele>
        <time>2005-10-02T16:35:01Z</time>
      </trkpt>
      <trkpt lat="44.20871" lon="2.93348">
        <ele>1060</ele>
        <time>2005-10-02T16:35:12Z</time>
      </trkpt>
      <trkpt lat="44.20896" lon="2.93365">
        <ele>1062</ele>
        <time>2005-10-02T16:35:24Z</time>
      </trkpt>
      <trkpt lat="44.20918" lon="2.93382">
        <ele>1065</ele>
        <time>2005-10-02T16:35:37Z</time>
      </trkpt>
      <trkpt lat="44.20948" lon="2.93401">
        <ele>1069</ele>
        <time>2005-10-02T16:35:55Z</time>
      </trkpt>
      <trkpt lat="44.20969" lon="2.93417">
        <ele>1072</ele>
        <time>2005-10-02T16:36:08Z</time>
      </trkpt>
      <trkpt lat="44.20997" lon="2.93434">
        <ele>1074</ele>
        <time>2005-10-02T16:36:24Z</time>
      </trkpt>
      <trkpt lat="44.21016" lon="2.9344">
        <ele>1075</ele>
        <time>2005-10-02T16:36:36Z</time>
      </trkpt>
      <trkpt lat="44.21029" lon="2.9344">
        <ele>1074</ele>
        <time>2005-10-02T16:36:49Z</time>
      </trkpt>
      <trkpt lat="44.21036" lon="2.9344">
        <ele>1070</ele>
        <time>2005-10-02T16:47:13Z</time>
      </trkpt>
      <trkpt lat="44.21031" lon="2.93438">
        <ele>1070</ele>
        <time>2005-10-02T16:47:49Z</time>
      </trkpt>
      <trkpt lat="44.21036" lon="2.93436">
        <ele>1071</ele>
        <time>2005-10-02T16:48:10Z</time>
      </trkpt>
      <trkpt lat="44.21064" lon="2.93434">
        <ele>1072</ele>
        <time>2005-10-02T16:48:24Z</time>
      </trkpt>
      <trkpt lat="44.21107" lon="2.93429">
        <ele>1072</ele>
        <time>2005-10-02T16:48:40Z</time>
      </trkpt>
      <trkpt lat="44.21147" lon="2.93417">
        <ele>1075</ele>
        <time>2005-10-02T16:48:56Z</time>
      </trkpt>
      <trkpt lat="44.21149" lon="2.93414">
        <ele>1075</ele>
        <time>2005-10-02T16:48:57Z</time>
      </trkpt>
      <trkpt lat="44.2118" lon="2.93419">
        <ele>1078</ele>
        <time>2005-10-02T16:49:09Z</time>
      </trkpt>
      <trkpt lat="44.21216" lon="2.93438">
        <ele>1082</ele>
        <time>2005-10-02T16:49:24Z</time>
      </trkpt>
      <trkpt lat="44.2125" lon="2.93453">
        <ele>1084</ele>
        <time>2005-10-02T16:49:38Z</time>
      </trkpt>
      <trkpt lat="44.21261" lon="2.93462">
        <ele>1084</ele>
        <time>2005-10-02T16:49:44Z</time>
      </trkpt>
      <trkpt lat="44.21259" lon="2.93498">
        <ele>1079</ele>
        <time>2005-10-02T16:49:56Z</time>
      </trkpt>
      <trkpt lat="44.2127" lon="2.93552">
        <ele>1074</ele>
        <time>2005-10-02T16:50:06Z</time>
      </trkpt>
      <trkpt lat="44.21265" lon="2.93584">
        <ele>1072</ele>
        <time>2005-10-02T16:50:11Z</time>
      </trkpt>
      <trkpt lat="44.21235" lon="2.9367">
        <ele>1063</ele>
        <time>2005-10-02T16:50:23Z</time>
      </trkpt>
      <trkpt lat="44.21225" lon="2.93695">
        <ele>1060</ele>
        <time>2005-10-02T16:50:27Z</time>
      </trkpt>
      <trkpt lat="44.2121" lon="2.93719">
        <ele>1058</ele>
        <time>2005-10-02T16:50:32Z</time>
      </trkpt>
      <trkpt lat="44.21171" lon="2.93745">
        <ele>1053</ele>
        <time>2005-10-02T16:50:39Z</time>
      </trkpt>
      <trkpt lat="44.21149" lon="2.93749">
        <ele>1052</ele>
        <time>2005-10-02T16:50:43Z</time>
      </trkpt>
      <trkpt lat="44.21137" lon="2.93762">
        <ele>1050</ele>
        <time>2005-10-02T16:50:49Z</time>
      </trkpt>
      <trkpt lat="44.21143" lon="2.93766">
        <ele>1049</ele>
        <time>2005-10-02T16:50:55Z</time>
      </trkpt>
      <trkpt lat="44.21171" lon="2.9379">
        <ele>1043</ele>
        <time>2005-10-02T16:51:04Z</time>
      </trkpt>
      <trkpt lat="44.21173" lon="2.93807">
        <ele>1041</ele>
        <time>2005-10-02T16:51:07Z</time>
      </trkpt>
      <trkpt lat="44.21152" lon="2.93856">
        <ele>1034</ele>
        <time>2005-10-02T16:51:15Z</time>
      </trkpt>
      <trkpt lat="44.21115" lon="2.93934">
        <ele>1029</ele>
        <time>2005-10-02T16:51:23Z</time>
      </trkpt>
      <trkpt lat="44.2107" lon="2.94028">
        <ele>1026</ele>
        <time>2005-10-02T16:51:33Z</time>
      </trkpt>
      <trkpt lat="44.21068" lon="2.94037">
        <ele>1026</ele>
        <time>2005-10-02T16:51:34Z</time>
      </trkpt>
      <trkpt lat="44.21044" lon="2.94095">
        <ele>1022</ele>
        <time>2005-10-02T16:51:41Z</time>
      </trkpt>
      <trkpt lat="44.21006" lon="2.94155">
        <ele>1016</ele>
        <time>2005-10-02T16:51:51Z</time>
      </trkpt>
      <trkpt lat="44.20997" lon="2.94168">
        <ele>1015</ele>
        <time>2005-10-02T16:51:54Z</time>
      </trkpt>
      <trkpt lat="44.20974" lon="2.94202">
        <ele>1012</ele>
        <time>2005-10-02T16:52:02Z</time>
      </trkpt>
      <trkpt lat="44.20959" lon="2.94221">
        <ele>1010</ele>
        <time>2005-10-02T16:52:06Z</time>
      </trkpt>
      <trkpt lat="44.20948" lon="2.9423">
        <ele>1008</ele>
        <time>2005-10-02T16:52:08Z</time>
      </trkpt>
      <trkpt lat="44.20931" lon="2.94251">
        <ele>1006</ele>
        <time>2005-10-02T16:52:12Z</time>
      </trkpt>
      <trkpt lat="44.20909" lon="2.94296">
        <ele>1001</ele>
        <time>2005-10-02T16:52:18Z</time>
      </trkpt>
      <trkpt lat="44.2089" lon="2.94331">
        <ele>998</ele>
        <time>2005-10-02T16:52:24Z</time>
      </trkpt>
      <trkpt lat="44.20871" lon="2.94365">
        <ele>994</ele>
        <time>2005-10-02T16:52:29Z</time>
      </trkpt>
      <trkpt lat="44.20856" lon="2.94386">
        <ele>991</ele>
        <time>2005-10-02T16:52:34Z</time>
      </trkpt>
      <trkpt lat="44.2083" lon="2.94416">
        <ele>986</ele>
        <time>2005-10-02T16:52:41Z</time>
      </trkpt>
      <trkpt lat="44.2078" lon="2.94464">
        <ele>978</ele>
        <time>2005-10-02T16:52:52Z</time>
      </trkpt>
      <trkpt lat="44.2077" lon="2.94477">
        <ele>977</ele>
        <time>2005-10-02T16:52:55Z</time>
      </trkpt>
      <trkpt lat="44.20761" lon="2.94498">
        <ele>975</ele>
        <time>2005-10-02T16:52:58Z</time>
      </trkpt>
      <trkpt lat="44.20742" lon="2.94554">
        <ele>967</ele>
        <time>2005-10-02T16:53:05Z</time>
      </trkpt>
      <trkpt lat="44.2074" lon="2.94588">
        <ele>964</ele>
        <time>2005-10-02T16:53:10Z</time>
      </trkpt>
      <trkpt lat="44.20722" lon="2.94659">
        <ele>964</ele>
        <time>2005-10-02T16:53:19Z</time>
      </trkpt>
      <trkpt lat="44.20725" lon="2.94762">
        <ele>956</ele>
        <time>2005-10-02T16:53:28Z</time>
      </trkpt>
      <trkpt lat="44.20718" lon="2.94803">
        <ele>952</ele>
        <time>2005-10-02T16:53:33Z</time>
      </trkpt>
      <trkpt lat="44.20714" lon="2.94843">
        <ele>946</ele>
        <time>2005-10-02T16:53:43Z</time>
      </trkpt>
      <trkpt lat="44.20712" lon="2.94843">
        <ele>944</ele>
        <time>2005-10-02T16:53:55Z</time>
      </trkpt>
      <trkpt lat="44.2071" lon="2.94865">
        <ele>939</ele>
        <time>2005-10-02T16:54:10Z</time>
      </trkpt>
      <trkpt lat="44.2071" lon="2.94878">
        <ele>937</ele>
        <time>2005-10-02T16:54:17Z</time>
      </trkpt>
      <trkpt lat="44.2071" lon="2.94878">
        <ele>934</ele>
        <time>2005-10-02T16:55:06Z</time>
      </trkpt>
      <trkpt lat="44.20707" lon="2.9488">
        <ele>936</ele>
        <time>2005-10-02T16:56:12Z</time>
      </trkpt>
      <trkpt lat="44.20703" lon="2.94906">
        <ele>932</ele>
        <time>2005-10-02T16:56:18Z</time>
      </trkpt>
      <trkpt lat="44.20692" lon="2.94985">
        <ele>922</ele>
        <time>2005-10-02T16:56:27Z</time>
      </trkpt>
      <trkpt lat="44.20662" lon="2.95082">
        <ele>911</ele>
        <time>2005-10-02T16:56:37Z</time>
      </trkpt>
      <trkpt lat="44.2065" lon="2.95107">
        <ele>908</ele>
        <time>2005-10-02T16:56:40Z</time>
      </trkpt>
      <trkpt lat="44.20609" lon="2.95148">
        <ele>902</ele>
        <time>2005-10-02T16:56:46Z</time>
      </trkpt>
      <trkpt lat="44.20564" lon="2.95228">
        <ele>896</ele>
        <time>2005-10-02T16:56:55Z</time>
      </trkpt>
      <trkpt lat="44.20555" lon="2.95247">
        <ele>895</ele>
        <time>2005-10-02T16:56:57Z</time>
      </trkpt>
      <trkpt lat="44.20536" lon="2.95268">
        <ele>891</ele>
        <time>2005-10-02T16:57:00Z</time>
      </trkpt>
      <trkpt lat="44.20476" lon="2.95358">
        <ele>885</ele>
        <time>2005-10-02T16:57:09Z</time>
      </trkpt>
      <trkpt lat="44.20433" lon="2.95408">
        <ele>881</ele>
        <time>2005-10-02T16:57:14Z</time>
      </trkpt>
      <trkpt lat="44.20366" lon="2.9544">
        <ele>873</ele>
        <time>2005-10-02T16:57:22Z</time>
      </trkpt>
      <trkpt lat="44.20302" lon="2.95453">
        <ele>868</ele>
        <time>2005-10-02T16:57:29Z</time>
      </trkpt>
      <trkpt lat="44.20285" lon="2.95476">
        <ele>863</ele>
        <time>2005-10-02T16:57:35Z</time>
      </trkpt>
      <trkpt lat="44.20302" lon="2.95491">
        <ele>860</ele>
        <time>2005-10-02T16:57:39Z</time>
      </trkpt>
      <trkpt lat="44.20343" lon="2.95534">
        <ele>853</ele>
        <time>2005-10-02T16:57:49Z</time>
      </trkpt>
      <trkpt lat="44.20377" lon="2.95564">
        <ele>848</ele>
        <time>2005-10-02T16:57:56Z</time>
      </trkpt>
      <trkpt lat="44.20398" lon="2.95573">
        <ele>847</ele>
        <time>2005-10-02T16:58:00Z</time>
      </trkpt>
      <trkpt lat="44.2042" lon="2.95575">
        <ele>846</ele>
        <time>2005-10-02T16:58:04Z</time>
      </trkpt>
      <trkpt lat="44.20461" lon="2.95552">
        <ele>845</ele>
        <time>2005-10-02T16:58:15Z</time>
      </trkpt>
      <trkpt lat="44.20469" lon="2.95547">
        <ele>845</ele>
        <time>2005-10-02T16:58:17Z</time>
      </trkpt>
      <trkpt lat="44.20519" lon="2.95541">
        <ele>841</ele>
        <time>2005-10-02T16:58:27Z</time>
      </trkpt>
      <trkpt lat="44.20551" lon="2.95556">
        <ele>840</ele>
        <time>2005-10-02T16:58:33Z</time>
      </trkpt>
      <trkpt lat="44.20577" lon="2.95592">
        <ele>839</ele>
        <time>2005-10-02T16:58:41Z</time>
      </trkpt>
      <trkpt lat="44.20607" lon="2.95622">
        <ele>836</ele>
        <time>2005-10-02T16:58:48Z</time>
      </trkpt>
      <trkpt lat="44.20654" lon="2.95646">
        <ele>833</ele>
        <time>2005-10-02T16:58:57Z</time>
      </trkpt>
      <trkpt lat="44.20675" lon="2.95655">
        <ele>831</ele>
        <time>2005-10-02T16:59:00Z</time>
      </trkpt>
      <trkpt lat="44.20772" lon="2.95678">
        <ele>829</ele>
        <time>2005-10-02T16:59:14Z</time>
      </trkpt>
      <trkpt lat="44.20776" lon="2.9568">
        <ele>829</ele>
        <time>2005-10-02T16:59:15Z</time>
      </trkpt>
      <trkpt lat="44.20789" lon="2.95695">
        <ele>828</ele>
        <time>2005-10-02T16:59:18Z</time>
      </trkpt>
      <trkpt lat="44.20815" lon="2.95745">
        <ele>825</ele>
        <time>2005-10-02T16:59:26Z</time>
      </trkpt>
      <trkpt lat="44.20843" lon="2.95779">
        <ele>824</ele>
        <time>2005-10-02T16:59:35Z</time>
      </trkpt>
      <trkpt lat="44.20851" lon="2.95809">
        <ele>823</ele>
        <time>2005-10-02T16:59:43Z</time>
      </trkpt>
      <trkpt lat="44.20864" lon="2.9585">
        <ele>821</ele>
        <time>2005-10-02T16:59:52Z</time>
      </trkpt>
      <trkpt lat="44.20883" lon="2.95861">
        <ele>821</ele>
        <time>2005-10-02T16:59:58Z</time>
      </trkpt>
      <trkpt lat="44.20894" lon="2.9585">
        <ele>822</ele>
        <time>2005-10-02T17:00:03Z</time>
      </trkpt>
      <trkpt lat="44.20898" lon="2.95826">
        <ele>820</ele>
        <time>2005-10-02T17:00:09Z</time>
      </trkpt>
      <trkpt lat="44.20918" lon="2.9582">
        <ele>821</ele>
        <time>2005-10-02T17:00:18Z</time>
      </trkpt>
      <trkpt lat="44.20948" lon="2.95813">
        <ele>819</ele>
        <time>2005-10-02T17:00:28Z</time>
      </trkpt>
      <trkpt lat="44.20986" lon="2.95828">
        <ele>815</ele>
        <time>2005-10-02T17:00:38Z</time>
      </trkpt>
      <trkpt lat="44.21029" lon="2.95848">
        <ele>812</ele>
        <time>2005-10-02T17:00:54Z</time>
      </trkpt>
      <trkpt lat="44.21072" lon="2.95867">
        <ele>808</ele>
        <time>2005-10-02T17:01:10Z</time>
      </trkpt>
      <trkpt lat="44.21117" lon="2.95882">
        <ele>803</ele>
        <time>2005-10-02T17:01:27Z</time>
      </trkpt>
      <trkpt lat="44.21154" lon="2.95893">
        <ele>802</ele>
        <time>2005-10-02T17:01:43Z</time>
      </trkpt>
      <trkpt lat="44.21192" lon="2.95918">
        <ele>798</ele>
        <time>2005-10-02T17:01:59Z</time>
      </trkpt>
      <trkpt lat="44.2121" lon="2.95949">
        <ele>793</ele>
        <time>2005-10-02T17:02:06Z</time>
      </trkpt>
      <trkpt lat="44.21218" lon="2.95964">
        <ele>792</ele>
        <time>2005-10-02T17:02:10Z</time>
      </trkpt>
      <trkpt lat="44.21222" lon="2.95957">
        <ele>788</ele>
        <time>2005-10-02T17:02:14Z</time>
      </trkpt>
      <trkpt lat="44.2122" lon="2.95916">
        <ele>781</ele>
        <time>2005-10-02T17:02:22Z</time>
      </trkpt>
      <trkpt lat="44.21242" lon="2.95895">
        <ele>774</ele>
        <time>2005-10-02T17:02:29Z</time>
      </trkpt>
      <trkpt lat="44.21272" lon="2.95901">
        <ele>771</ele>
        <time>2005-10-02T17:02:34Z</time>
      </trkpt>
      <trkpt lat="44.21295" lon="2.95923">
        <ele>771</ele>
        <time>2005-10-02T17:02:40Z</time>
      </trkpt>
      <trkpt lat="44.21321" lon="2.95979">
        <ele>770</ele>
        <time>2005-10-02T17:02:53Z</time>
      </trkpt>
      <trkpt lat="44.2133" lon="2.95989">
        <ele>770</ele>
        <time>2005-10-02T17:02:56Z</time>
      </trkpt>
      <trkpt lat="44.21351" lon="2.96004">
        <ele>770</ele>
        <time>2005-10-02T17:03:01Z</time>
      </trkpt>
      <trkpt lat="44.21364" lon="2.96019">
        <ele>769</ele>
        <time>2005-10-02T17:03:04Z</time>
      </trkpt>
      <trkpt lat="44.21411" lon="2.96086">
        <ele>769</ele>
        <time>2005-10-02T17:03:19Z</time>
      </trkpt>
      <trkpt lat="44.21461" lon="2.96131">
        <ele>769</ele>
        <time>2005-10-02T17:03:33Z</time>
      </trkpt>
      <trkpt lat="44.21512" lon="2.96202">
        <ele>767</ele>
        <time>2005-10-02T17:03:49Z</time>
      </trkpt>
      <trkpt lat="44.21561" lon="2.96281">
        <ele>764</ele>
        <time>2005-10-02T17:04:03Z</time>
      </trkpt>
      <trkpt lat="44.21622" lon="2.96369">
        <ele>761</ele>
        <time>2005-10-02T17:04:19Z</time>
      </trkpt>
      <trkpt lat="44.21686" lon="2.9644">
        <ele>759</ele>
        <time>2005-10-02T17:04:31Z</time>
      </trkpt>
      <trkpt lat="44.21767" lon="2.96509">
        <ele>759</ele>
        <time>2005-10-02T17:04:45Z</time>
      </trkpt>
      <trkpt lat="44.21798" lon="2.96524">
        <ele>758</ele>
        <time>2005-10-02T17:04:50Z</time>
      </trkpt>
      <trkpt lat="44.21828" lon="2.96521">
        <ele>759</ele>
        <time>2005-10-02T17:04:55Z</time>
      </trkpt>
      <trkpt lat="44.21898" lon="2.96481">
        <ele>762</ele>
        <time>2005-10-02T17:05:10Z</time>
      </trkpt>
      <trkpt lat="44.21931" lon="2.96448">
        <ele>763</ele>
        <time>2005-10-02T17:05:20Z</time>
      </trkpt>
      <trkpt lat="44.2195" lon="2.9644">
        <ele>764</ele>
        <time>2005-10-02T17:05:25Z</time>
      </trkpt>
      <trkpt lat="44.21986" lon="2.96429">
        <ele>768</ele>
        <time>2005-10-02T17:05:36Z</time>
      </trkpt>
      <trkpt lat="44.22014" lon="2.96388">
        <ele>773</ele>
        <time>2005-10-02T17:05:51Z</time>
      </trkpt>
      <trkpt lat="44.22046" lon="2.9633">
        <ele>776</ele>
        <time>2005-10-02T17:06:11Z</time>
      </trkpt>
      <trkpt lat="44.22072" lon="2.96288">
        <ele>779</ele>
        <time>2005-10-02T17:06:26Z</time>
      </trkpt>
      <trkpt lat="44.22076" lon="2.96285">
        <ele>779</ele>
        <time>2005-10-02T17:06:28Z</time>
      </trkpt>
      <trkpt lat="44.22083" lon="2.96298">
        <ele>781</ele>
        <time>2005-10-02T17:06:34Z</time>
      </trkpt>
      <trkpt lat="44.22081" lon="2.963">
        <ele>781</ele>
        <time>2005-10-02T17:06:35Z</time>
      </trkpt>
      <trkpt lat="44.22046" lon="2.96376">
        <ele>779</ele>
        <time>2005-10-02T17:06:53Z</time>
      </trkpt>
      <trkpt lat="44.22021" lon="2.96448">
        <ele>783</ele>
        <time>2005-10-02T17:07:11Z</time>
      </trkpt>
      <trkpt lat="44.22001" lon="2.96511">
        <ele>789</ele>
        <time>2005-10-02T17:07:29Z</time>
      </trkpt>
      <trkpt lat="44.2198" lon="2.96586">
        <ele>793</ele>
        <time>2005-10-02T17:07:49Z</time>
      </trkpt>
      <trkpt lat="44.21976" lon="2.96629">
        <ele>795</ele>
        <time>2005-10-02T17:08:00Z</time>
      </trkpt>
      <trkpt lat="44.21986" lon="2.96676">
        <ele>798</ele>
        <time>2005-10-02T17:08:12Z</time>
      </trkpt>
      <trkpt lat="44.22016" lon="2.96738">
        <ele>799</ele>
        <time>2005-10-02T17:08:31Z</time>
      </trkpt>
      <trkpt lat="44.22044" lon="2.96768">
        <ele>802</ele>
        <time>2005-10-02T17:08:44Z</time>
      </trkpt>
      <trkpt lat="44.22089" lon="2.96792">
        <ele>806</ele>
        <time>2005-10-02T17:09:02Z</time>
      </trkpt>
      <trkpt lat="44.221" lon="2.96824">
        <ele>809</ele>
        <time>2005-10-02T17:09:12Z</time>
      </trkpt>
      <trkpt lat="44.22098" lon="2.96875">
        <ele>812</ele>
        <time>2005-10-02T17:09:27Z</time>
      </trkpt>
      <trkpt lat="44.22111" lon="2.96908">
        <ele>815</ele>
        <time>2005-10-02T17:09:39Z</time>
      </trkpt>
      <trkpt lat="44.22119" lon="2.96923">
        <ele>816</ele>
        <time>2005-10-02T17:09:50Z</time>
      </trkpt>
      <trkpt lat="44.22124" lon="2.96925">
        <ele>816</ele>
        <time>2005-10-02T17:10:04Z</time>
      </trkpt>
      <trkpt lat="44.22124" lon="2.96925">
        <ele>816</ele>
        <time>2005-10-02T17:10:06Z</time>
      </trkpt>
      <trkpt lat="44.22137" lon="2.96908">
        <ele>817</ele>
        <time>2005-10-02T17:10:16Z</time>
      </trkpt>
      <trkpt lat="44.22139" lon="2.96906">
        <ele>819</ele>
        <time>2005-10-02T17:10:21Z</time>
      </trkpt>
      <trkpt lat="44.22139" lon="2.96908">
        <ele>819</ele>
        <time>2005-10-02T17:10:32Z</time>
      </trkpt>
      <trkpt lat="44.22134" lon="2.96906">
        <ele>820</ele>
        <time>2005-10-02T17:12:29Z</time>
      </trkpt>
      <trkpt lat="44.22132" lon="2.96906">
        <ele>819</ele>
        <time>2005-10-02T17:12:48Z</time>
      </trkpt>
      <trkpt lat="44.22132" lon="2.96908">
        <ele>819</ele>
        <time>2005-10-02T17:12:55Z</time>
      </trkpt>
      <trkpt lat="44.22119" lon="2.96929">
        <ele>820</ele>
        <time>2005-10-02T17:13:07Z</time>
      </trkpt>
      <trkpt lat="44.22115" lon="2.9694">
        <ele>821</ele>
        <time>2005-10-02T17:13:16Z</time>
      </trkpt>
      <trkpt lat="44.22117" lon="2.96944">
        <ele>819</ele>
        <time>2005-10-02T17:14:00Z</time>
      </trkpt>
      <trkpt lat="44.22117" lon="2.96944">
        <ele>820</ele>
        <time>2005-10-02T17:14:16Z</time>
      </trkpt>
      <trkpt lat="44.22119" lon="2.96936">
        <ele>820</ele>
        <time>2005-10-02T17:14:20Z</time>
      </trkpt>
      <trkpt lat="44.22128" lon="2.96953">
        <ele>819</ele>
        <time>2005-10-02T17:14:26Z</time>
      </trkpt>
      <trkpt lat="44.22134" lon="2.97004">
        <ele>816</ele>
        <time>2005-10-02T17:14:33Z</time>
      </trkpt>
      <trkpt lat="44.22134" lon="2.97036">
        <ele>815</ele>
        <time>2005-10-02T17:14:36Z</time>
      </trkpt>
      <trkpt lat="44.2216" lon="2.97206">
        <ele>808</ele>
        <time>2005-10-02T17:14:50Z</time>
      </trkpt>
      <trkpt lat="44.22164" lon="2.97335">
        <ele>802</ele>
        <time>2005-10-02T17:15:00Z</time>
      </trkpt>
      <trkpt lat="44.22162" lon="2.9735">
        <ele>801</ele>
        <time>2005-10-02T17:15:01Z</time>
      </trkpt>
      <trkpt lat="44.22141" lon="2.97442">
        <ele>800</ele>
        <time>2005-10-02T17:15:09Z</time>
      </trkpt>
      <trkpt lat="44.22126" lon="2.97618">
        <ele>794</ele>
        <time>2005-10-02T17:15:22Z</time>
      </trkpt>
      <trkpt lat="44.221" lon="2.97702">
        <ele>793</ele>
        <time>2005-10-02T17:15:29Z</time>
      </trkpt>
      <trkpt lat="44.22083" lon="2.97736">
        <ele>792</ele>
        <time>2005-10-02T17:15:33Z</time>
      </trkpt>
      <trkpt lat="44.22089" lon="2.97766">
        <ele>791</ele>
        <time>2005-10-02T17:15:39Z</time>
      </trkpt>
      <trkpt lat="44.22104" lon="2.9779">
        <ele>791</ele>
        <time>2005-10-02T17:15:45Z</time>
      </trkpt>
      <trkpt lat="44.22122" lon="2.97768">
        <ele>791</ele>
        <time>2005-10-02T17:15:49Z</time>
      </trkpt>
      <trkpt lat="44.22141" lon="2.97736">
        <ele>790</ele>
        <time>2005-10-02T17:15:53Z</time>
      </trkpt>
      <trkpt lat="44.22154" lon="2.97706">
        <ele>790</ele>
        <time>2005-10-02T17:15:56Z</time>
      </trkpt>
      <trkpt lat="44.22201" lon="2.97549">
        <ele>789</ele>
        <time>2005-10-02T17:16:11Z</time>
      </trkpt>
      <trkpt lat="44.22214" lon="2.975">
        <ele>789</ele>
        <time>2005-10-02T17:16:16Z</time>
      </trkpt>
      <trkpt lat="44.22244" lon="2.97455">
        <ele>789</ele>
        <time>2005-10-02T17:16:21Z</time>
      </trkpt>
      <trkpt lat="44.2231" lon="2.97436">
        <ele>783</ele>
        <time>2005-10-02T17:16:30Z</time>
      </trkpt>
      <trkpt lat="44.22317" lon="2.97433">
        <ele>782</ele>
        <time>2005-10-02T17:16:31Z</time>
      </trkpt>
      <trkpt lat="44.22347" lon="2.97395">
        <ele>780</ele>
        <time>2005-10-02T17:16:35Z</time>
      </trkpt>
      <trkpt lat="44.22377" lon="2.97315">
        <ele>770</ele>
        <time>2005-10-02T17:16:50Z</time>
      </trkpt>
      <trkpt lat="44.22381" lon="2.97305">
        <ele>769</ele>
        <time>2005-10-02T17:16:52Z</time>
      </trkpt>
      <trkpt lat="44.22433" lon="2.97238">
        <ele>765</ele>
        <time>2005-10-02T17:17:10Z</time>
      </trkpt>
      <trkpt lat="44.22488" lon="2.97193">
        <ele>763</ele>
        <time>2005-10-02T17:17:28Z</time>
      </trkpt>
      <trkpt lat="44.22531" lon="2.97148">
        <ele>761</ele>
        <time>2005-10-02T17:17:42Z</time>
      </trkpt>
      <trkpt lat="44.22566" lon="2.97099">
        <ele>763</ele>
        <time>2005-10-02T17:17:58Z</time>
      </trkpt>
      <trkpt lat="44.226" lon="2.97062">
        <ele>766</ele>
        <time>2005-10-02T17:18:16Z</time>
      </trkpt>
      <trkpt lat="44.22641" lon="2.97026">
        <ele>768</ele>
        <time>2005-10-02T17:18:35Z</time>
      </trkpt>
      <trkpt lat="44.22671" lon="2.96985">
        <ele>771</ele>
        <time>2005-10-02T17:18:53Z</time>
      </trkpt>
      <trkpt lat="44.22699" lon="2.96944">
        <ele>773</ele>
        <time>2005-10-02T17:19:10Z</time>
      </trkpt>
      <trkpt lat="44.22735" lon="2.96921">
        <ele>774</ele>
        <time>2005-10-02T17:19:27Z</time>
      </trkpt>
      <trkpt lat="44.22772" lon="2.96912">
        <ele>779</ele>
        <time>2005-10-02T17:19:44Z</time>
      </trkpt>
      <trkpt lat="44.2281" lon="2.96897">
        <ele>783</ele>
        <time>2005-10-02T17:20:00Z</time>
      </trkpt>
      <trkpt lat="44.22849" lon="2.96871">
        <ele>787</ele>
        <time>2005-10-02T17:20:18Z</time>
      </trkpt>
      <trkpt lat="44.22892" lon="2.96843">
        <ele>788</ele>
        <time>2005-10-02T17:20:37Z</time>
      </trkpt>
      <trkpt lat="44.22935" lon="2.96813">
        <ele>792</ele>
        <time>2005-10-02T17:20:56Z</time>
      </trkpt>
      <trkpt lat="44.2298" lon="2.96783">
        <ele>796</ele>
        <time>2005-10-02T17:21:15Z</time>
      </trkpt>
      <trkpt lat="44.23008" lon="2.96749">
        <ele>796</ele>
        <time>2005-10-02T17:21:30Z</time>
      </trkpt>
      <trkpt lat="44.23046" lon="2.96721">
        <ele>800</ele>
        <time>2005-10-02T17:21:47Z</time>
      </trkpt>
      <trkpt lat="44.23085" lon="2.96704">
        <ele>804</ele>
        <time>2005-10-02T17:22:04Z</time>
      </trkpt>
      <trkpt lat="44.23115" lon="2.96682">
        <ele>808</ele>
        <time>2005-10-02T17:22:19Z</time>
      </trkpt>
      <trkpt lat="44.23139" lon="2.96665">
        <ele>811</ele>
        <time>2005-10-02T17:22:33Z</time>
      </trkpt>
      <trkpt lat="44.23141" lon="2.96665">
        <ele>811</ele>
        <time>2005-10-02T17:22:51Z</time>
      </trkpt>
      <trkpt lat="44.23141" lon="2.96665">
        <ele>813</ele>
        <time>2005-10-02T17:23:24Z</time>
      </trkpt>
      <trkpt lat="44.23141" lon="2.96665">
        <ele>813</ele>
        <time>2005-10-02T17:23:33Z</time>
      </trkpt>
      <trkpt lat="44.23141" lon="2.96665">
        <ele>814</ele>
        <time>2005-10-02T17:23:52Z</time>
      </trkpt>
      <trkpt lat="44.23145" lon="2.96659">
        <ele>815</ele>
        <time>2005-10-02T17:24:11Z</time>
      </trkpt>
      <trkpt lat="44.23173" lon="2.96635">
        <ele>815</ele>
        <time>2005-10-02T17:24:23Z</time>
      </trkpt>
      <trkpt lat="44.23214" lon="2.96612">
        <ele>819</ele>
        <time>2005-10-02T17:24:39Z</time>
      </trkpt>
      <trkpt lat="44.23257" lon="2.96603">
        <ele>823</ele>
        <time>2005-10-02T17:24:57Z</time>
      </trkpt>
      <trkpt lat="44.23291" lon="2.96579">
        <ele>826</ele>
        <time>2005-10-02T17:25:14Z</time>
      </trkpt>
      <trkpt lat="44.23323" lon="2.96549">
        <ele>829</ele>
        <time>2005-10-02T17:25:32Z</time>
      </trkpt>
      <trkpt lat="44.23353" lon="2.96524">
        <ele>832</ele>
        <time>2005-10-02T17:25:49Z</time>
      </trkpt>
      <trkpt lat="44.23383" lon="2.96511">
        <ele>834</ele>
        <time>2005-10-02T17:26:03Z</time>
      </trkpt>
      <trkpt lat="44.23411" lon="2.96496">
        <ele>837</ele>
        <time>2005-10-02T17:26:19Z</time>
      </trkpt>
      <trkpt lat="44.2343" lon="2.96468">
        <ele>841</ele>
        <time>2005-10-02T17:26:35Z</time>
      </trkpt>
      <trkpt lat="44.23452" lon="2.96427">
        <ele>844</ele>
        <time>2005-10-02T17:26:54Z</time>
      </trkpt>
      <trkpt lat="44.23473" lon="2.96382">
        <ele>844</ele>
        <time>2005-10-02T17:27:15Z</time>
      </trkpt>
      <trkpt lat="44.23495" lon="2.96352">
        <ele>847</ele>
        <time>2005-10-02T17:27:33Z</time>
      </trkpt>
      <trkpt lat="44.23525" lon="2.96313">
        <ele>848</ele>
        <time>2005-10-02T17:27:54Z</time>
      </trkpt>
      <trkpt lat="44.23548" lon="2.96288">
        <ele>851</ele>
        <time>2005-10-02T17:28:10Z</time>
      </trkpt>
      <trkpt lat="44.23576" lon="2.96262">
        <ele>854</ele>
        <time>2005-10-02T17:28:28Z</time>
      </trkpt>
      <trkpt lat="44.23613" lon="2.96234">
        <ele>861</ele>
        <time>2005-10-02T17:28:50Z</time>
      </trkpt>
      <trkpt lat="44.23649" lon="2.96208">
        <ele>863</ele>
        <time>2005-10-02T17:29:12Z</time>
      </trkpt>
      <trkpt lat="44.23675" lon="2.96212">
        <ele>865</ele>
        <time>2005-10-02T17:29:26Z</time>
      </trkpt>
      <trkpt lat="44.23703" lon="2.96234">
        <ele>865</ele>
        <time>2005-10-02T17:29:39Z</time>
      </trkpt>
      <trkpt lat="44.23742" lon="2.9627">
        <ele>864</ele>
        <time>2005-10-02T17:29:52Z</time>
      </trkpt>
      <trkpt lat="44.23759" lon="2.96279">
        <ele>864</ele>
        <time>2005-10-02T17:30:01Z</time>
      </trkpt>
      <trkpt lat="44.23759" lon="2.96279">
        <ele>862</ele>
        <time>2005-10-02T17:30:23Z</time>
      </trkpt>
      <trkpt lat="44.23754" lon="2.96285">
        <ele>869</ele>
        <time>2005-10-02T17:30:55Z</time>
      </trkpt>
      <trkpt lat="44.23754" lon="2.96285">
        <ele>869</ele>
        <time>2005-10-02T17:30:58Z</time>
      </trkpt>
      <trkpt lat="44.23757" lon="2.9629">
        <ele>870</ele>
        <time>2005-10-02T17:31:04Z</time>
      </trkpt>
      <trkpt lat="44.23757" lon="2.96288">
        <ele>868</ele>
        <time>2005-10-02T17:31:32Z</time>
      </trkpt>
      <trkpt lat="44.23778" lon="2.96311">
        <ele>867</ele>
        <time>2005-10-02T17:31:42Z</time>
      </trkpt>
      <trkpt lat="44.23782" lon="2.96318">
        <ele>867</ele>
        <time>2005-10-02T17:31:44Z</time>
      </trkpt>
      <trkpt lat="44.2384" lon="2.96369">
        <ele>864</ele>
        <time>2005-10-02T17:31:57Z</time>
      </trkpt>
      <trkpt lat="44.2392" lon="2.9644">
        <ele>861</ele>
        <time>2005-10-02T17:32:10Z</time>
      </trkpt>
      <trkpt lat="44.23935" lon="2.96453">
        <ele>860</ele>
        <time>2005-10-02T17:32:12Z</time>
      </trkpt>
      <trkpt lat="44.23965" lon="2.96498">
        <ele>857</ele>
        <time>2005-10-02T17:32:17Z</time>
      </trkpt>
      <trkpt lat="44.23982" lon="2.96607">
        <ele>855</ele>
        <time>2005-10-02T17:32:26Z</time>
      </trkpt>
      <trkpt lat="44.23982" lon="2.9662">
        <ele>855</ele>
        <time>2005-10-02T17:32:27Z</time>
      </trkpt>
      <trkpt lat="44.23952" lon="2.96719">
        <ele>854</ele>
        <time>2005-10-02T17:32:36Z</time>
      </trkpt>
      <trkpt lat="44.23879" lon="2.9689">
        <ele>856</ele>
        <time>2005-10-02T17:32:54Z</time>
      </trkpt>
      <trkpt lat="44.23808" lon="2.97062">
        <ele>858</ele>
        <time>2005-10-02T17:33:14Z</time>
      </trkpt>
      <trkpt lat="44.23742" lon="2.97221">
        <ele>859</ele>
        <time>2005-10-02T17:33:33Z</time>
      </trkpt>
      <trkpt lat="44.23677" lon="2.97371">
        <ele>855</ele>
        <time>2005-10-02T17:33:50Z</time>
      </trkpt>
      <trkpt lat="44.23606" lon="2.97543">
        <ele>850</ele>
        <time>2005-10-02T17:34:05Z</time>
      </trkpt>
      <trkpt lat="44.23589" lon="2.97637">
        <ele>847</ele>
        <time>2005-10-02T17:34:12Z</time>
      </trkpt>
      <trkpt lat="44.23598" lon="2.9774">
        <ele>843</ele>
        <time>2005-10-02T17:34:19Z</time>
      </trkpt>
      <trkpt lat="44.23636" lon="2.97828">
        <ele>838</ele>
        <time>2005-10-02T17:34:26Z</time>
      </trkpt>
      <trkpt lat="44.23714" lon="2.97957">
        <ele>830</ele>
        <time>2005-10-02T17:34:37Z</time>
      </trkpt>
      <trkpt lat="44.23727" lon="2.98032">
        <ele>827</ele>
        <time>2005-10-02T17:34:42Z</time>
      </trkpt>
      <trkpt lat="44.23739" lon="2.98275">
        <ele>821</ele>
        <time>2005-10-02T17:34:58Z</time>
      </trkpt>
      <trkpt lat="44.23744" lon="2.98367">
        <ele>818</ele>
        <time>2005-10-02T17:35:07Z</time>
      </trkpt>
      <trkpt lat="44.23744" lon="2.9838">
        <ele>818</ele>
        <time>2005-10-02T17:35:10Z</time>
      </trkpt>
      <trkpt lat="44.23772" lon="2.98393">
        <ele>816</ele>
        <time>2005-10-02T17:35:18Z</time>
      </trkpt>
      <trkpt lat="44.23784" lon="2.98399">
        <ele>815</ele>
        <time>2005-10-02T17:35:21Z</time>
      </trkpt>
      <trkpt lat="44.23851" lon="2.98444">
        <ele>812</ele>
        <time>2005-10-02T17:35:37Z</time>
      </trkpt>
      <trkpt lat="44.23911" lon="2.98476">
        <ele>812</ele>
        <time>2005-10-02T17:35:50Z</time>
      </trkpt>
      <trkpt lat="44.23915" lon="2.98491">
        <ele>812</ele>
        <time>2005-10-02T17:35:52Z</time>
      </trkpt>
      <trkpt lat="44.2392" lon="2.98504">
        <ele>812</ele>
        <time>2005-10-02T17:35:54Z</time>
      </trkpt>
      <trkpt lat="44.23928" lon="2.98547">
        <ele>812</ele>
        <time>2005-10-02T17:36:03Z</time>
      </trkpt>
      <trkpt lat="44.23958" lon="2.98545">
        <ele>812</ele>
        <time>2005-10-02T17:36:12Z</time>
      </trkpt>
      <trkpt lat="44.24021" lon="2.98538">
        <ele>812</ele>
        <time>2005-10-02T17:36:28Z</time>
      </trkpt>
      <trkpt lat="44.24074" lon="2.98551">
        <ele>814</ele>
        <time>2005-10-02T17:36:43Z</time>
      </trkpt>
      <trkpt lat="44.24115" lon="2.9853">
        <ele>816</ele>
        <time>2005-10-02T17:36:57Z</time>
      </trkpt>
      <trkpt lat="44.24169" lon="2.98485">
        <ele>818</ele>
        <time>2005-10-02T17:37:18Z</time>
      </trkpt>
      <trkpt lat="44.24209" lon="2.98453">
        <ele>820</ele>
        <time>2005-10-02T17:37:35Z</time>
      </trkpt>
      <trkpt lat="44.24252" lon="2.9842">
        <ele>821</ele>
        <time>2005-10-02T17:37:52Z</time>
      </trkpt>
      <trkpt lat="44.24297" lon="2.9839">
        <ele>823</ele>
        <time>2005-10-02T17:38:10Z</time>
      </trkpt>
      <trkpt lat="44.24342" lon="2.98369">
        <ele>826</ele>
        <time>2005-10-02T17:38:28Z</time>
      </trkpt>
      <trkpt lat="44.24375" lon="2.98354">
        <ele>828</ele>
        <time>2005-10-02T17:38:41Z</time>
      </trkpt>
      <trkpt lat="44.24426" lon="2.98343">
        <ele>832</ele>
        <time>2005-10-02T17:38:59Z</time>
      </trkpt>
      <trkpt lat="44.24478" lon="2.98347">
        <ele>834</ele>
        <time>2005-10-02T17:39:17Z</time>
      </trkpt>
      <trkpt lat="44.24533" lon="2.98365">
        <ele>836</ele>
        <time>2005-10-02T17:39:39Z</time>
      </trkpt>
      <trkpt lat="44.24598" lon="2.98373">
        <ele>840</ele>
        <time>2005-10-02T17:40:01Z</time>
      </trkpt>
      <trkpt lat="44.2466" lon="2.98371">
        <ele>844</ele>
        <time>2005-10-02T17:40:23Z</time>
      </trkpt>
      <trkpt lat="44.24724" lon="2.98384">
        <ele>845</ele>
        <time>2005-10-02T17:40:44Z</time>
      </trkpt>
      <trkpt lat="44.24793" lon="2.9845">
        <ele>849</ele>
        <time>2005-10-02T17:41:13Z</time>
      </trkpt>
      <trkpt lat="44.24823" lon="2.98508">
        <ele>855</ele>
        <time>2005-10-02T17:41:32Z</time>
      </trkpt>
      <trkpt lat="44.24853" lon="2.98528">
        <ele>860</ele>
        <time>2005-10-02T17:41:47Z</time>
      </trkpt>
      <trkpt lat="44.24883" lon="2.98526">
        <ele>863</ele>
        <time>2005-10-02T17:42:02Z</time>
      </trkpt>
      <trkpt lat="44.24913" lon="2.98502">
        <ele>867</ele>
        <time>2005-10-02T17:42:19Z</time>
      </trkpt>
      <trkpt lat="44.24939" lon="2.98476">
        <ele>869</ele>
        <time>2005-10-02T17:42:35Z</time>
      </trkpt>
      <trkpt lat="44.24975" lon="2.9845">
        <ele>872</ele>
        <time>2005-10-02T17:42:56Z</time>
      </trkpt>
      <trkpt lat="44.2501" lon="2.9844">
        <ele>875</ele>
        <time>2005-10-02T17:43:14Z</time>
      </trkpt>
      <trkpt lat="44.25046" lon="2.98442">
        <ele>879</ele>
        <time>2005-10-02T17:43:33Z</time>
      </trkpt>
      <trkpt lat="44.25078" lon="2.98453">
        <ele>881</ele>
        <time>2005-10-02T17:43:50Z</time>
      </trkpt>
      <trkpt lat="44.25111" lon="2.9847">
        <ele>884</ele>
        <time>2005-10-02T17:44:06Z</time>
      </trkpt>
      <trkpt lat="44.25141" lon="2.98487">
        <ele>885</ele>
        <time>2005-10-02T17:44:20Z</time>
      </trkpt>
      <trkpt lat="44.25181" lon="2.98496">
        <ele>886</ele>
        <time>2005-10-02T17:44:39Z</time>
      </trkpt>
      <trkpt lat="44.25211" lon="2.98491">
        <ele>887</ele>
        <time>2005-10-02T17:44:53Z</time>
      </trkpt>
      <trkpt lat="44.25252" lon="2.98478">
        <ele>889</ele>
        <time>2005-10-02T17:45:12Z</time>
      </trkpt>
      <trkpt lat="44.25291" lon="2.98468">
        <ele>892</ele>
        <time>2005-10-02T17:45:30Z</time>
      </trkpt>
      <trkpt lat="44.25327" lon="2.98455">
        <ele>894</ele>
        <time>2005-10-02T17:45:48Z</time>
      </trkpt>
      <trkpt lat="44.25364" lon="2.98442">
        <ele>897</ele>
        <time>2005-10-02T17:46:06Z</time>
      </trkpt>
      <trkpt lat="44.25398" lon="2.9842">
        <ele>899</ele>
        <time>2005-10-02T17:46:23Z</time>
      </trkpt>
      <trkpt lat="44.2542" lon="2.98386">
        <ele>901</ele>
        <time>2005-10-02T17:46:38Z</time>
      </trkpt>
      <trkpt lat="44.25428" lon="2.98343">
        <ele>903</ele>
        <time>2005-10-02T17:46:52Z</time>
      </trkpt>
      <trkpt lat="44.25422" lon="2.983">
        <ele>905</ele>
        <time>2005-10-02T17:47:06Z</time>
      </trkpt>
      <trkpt lat="44.25411" lon="2.98251">
        <ele>908</ele>
        <time>2005-10-02T17:47:23Z</time>
      </trkpt>
      <trkpt lat="44.25402" lon="2.98195">
        <ele>911</ele>
        <time>2005-10-02T17:47:40Z</time>
      </trkpt>
      <trkpt lat="44.25407" lon="2.98139">
        <ele>912</ele>
        <time>2005-10-02T17:47:55Z</time>
      </trkpt>
      <trkpt lat="44.25415" lon="2.98114">
        <ele>912</ele>
        <time>2005-10-02T17:48:03Z</time>
      </trkpt>
      <trkpt lat="44.25426" lon="2.98124">
        <ele>912</ele>
        <time>2005-10-02T17:48:08Z</time>
      </trkpt>
      <trkpt lat="44.25462" lon="2.98167">
        <ele>911</ele>
        <time>2005-10-02T17:48:24Z</time>
      </trkpt>
      <trkpt lat="44.25501" lon="2.98172">
        <ele>913</ele>
        <time>2005-10-02T17:48:36Z</time>
      </trkpt>
      <trkpt lat="44.25565" lon="2.98178">
        <ele>916</ele>
        <time>2005-10-02T17:48:54Z</time>
      </trkpt>
      <trkpt lat="44.2566" lon="2.98191">
        <ele>917</ele>
        <time>2005-10-02T17:49:20Z</time>
      </trkpt>
      <trkpt lat="44.25718" lon="2.98199">
        <ele>918</ele>
        <time>2005-10-02T17:49:37Z</time>
      </trkpt>
      <trkpt lat="44.25761" lon="2.98229">
        <ele>916</ele>
        <time>2005-10-02T17:49:50Z</time>
      </trkpt>
      <trkpt lat="44.25823" lon="2.98298">
        <ele>917</ele>
        <time>2005-10-02T17:50:05Z</time>
      </trkpt>
      <trkpt lat="44.25883" lon="2.98369">
        <ele>914</ele>
        <time>2005-10-02T17:50:17Z</time>
      </trkpt>
      <trkpt lat="44.25962" lon="2.98463">
        <ele>914</ele>
        <time>2005-10-02T17:50:30Z</time>
      </trkpt>
      <trkpt lat="44.2601" lon="2.98523">
        <ele>913</ele>
        <time>2005-10-02T17:50:38Z</time>
      </trkpt>
      <trkpt lat="44.26033" lon="2.98534">
        <ele>912</ele>
        <time>2005-10-02T17:50:41Z</time>
      </trkpt>
      <trkpt lat="44.26068" lon="2.98528">
        <ele>910</ele>
        <time>2005-10-02T17:50:46Z</time>
      </trkpt>
      <trkpt lat="44.26091" lon="2.98517">
        <ele>908</ele>
        <time>2005-10-02T17:50:50Z</time>
      </trkpt>
      <trkpt lat="44.26119" lon="2.98493">
        <ele>909</ele>
        <time>2005-10-02T17:50:58Z</time>
      </trkpt>
      <trkpt lat="44.26134" lon="2.9845">
        <ele>910</ele>
        <time>2005-10-02T17:51:13Z</time>
      </trkpt>
      <trkpt lat="44.26147" lon="2.98418">
        <ele>911</ele>
        <time>2005-10-02T17:51:26Z</time>
      </trkpt>
      <trkpt lat="44.26164" lon="2.98373">
        <ele>913</ele>
        <time>2005-10-02T17:51:44Z</time>
      </trkpt>
      <trkpt lat="44.26183" lon="2.9833">
        <ele>914</ele>
        <time>2005-10-02T17:52:02Z</time>
      </trkpt>
      <trkpt lat="44.26205" lon="2.98302">
        <ele>916</ele>
        <time>2005-10-02T17:52:16Z</time>
      </trkpt>
      <trkpt lat="44.26207" lon="2.98296">
        <ele>916</ele>
        <time>2005-10-02T17:52:19Z</time>
      </trkpt>
      <trkpt lat="44.26203" lon="2.98287">
        <ele>916</ele>
        <time>2005-10-02T17:52:24Z</time>
      </trkpt>
      <trkpt lat="44.26194" lon="2.98279">
        <ele>915</ele>
        <time>2005-10-02T17:52:35Z</time>
      </trkpt>
      <trkpt lat="44.26192" lon="2.98279">
        <ele>917</ele>
        <time>2005-10-02T17:52:45Z</time>
      </trkpt>
      <trkpt lat="44.26192" lon="2.98279">
        <ele>918</ele>
        <time>2005-10-02T17:53:12Z</time>
      </trkpt>
      <trkpt lat="44.26192" lon="2.98281">
        <ele>917</ele>
        <time>2005-10-02T17:53:22Z</time>
      </trkpt>
      <trkpt lat="44.26192" lon="2.98281">
        <ele>917</ele>
        <time>2005-10-02T17:53:30Z</time>
      </trkpt>
    </trkseg>
  </trk>
</gpx>